GFSGL_prec_cthk_000.txt.gz
RH
65 67 74 74 70 69 65 53 45 38 29 28 33 36 41 49 52 60 71 76 79 83 89 95 96 98 98 98 98 93 86 84 77 70 75 83 86 90 91 93 94 95 87
69 70 70 70 68 61 50 44 37 30 32 38 44 45 47 52 55 59 61 63 66 74 83 84 84 88 91 94 96 96 93 89 86 79 73 71 77 84 87 90 91 91 90
64 65 61 61 55 53 47 44 39 38 44 46 45 46 46 46 45 46 45 46 45 43 39 37 40 53 56 63 64 76 84 88 88 86 84 80 74 74 79 85 89 89 88
60 63 54 57 49 44 44 41 43 46 45 44 49 52 51 52 51 48 45 42 39 37 32 29 33 41 53 62 62 59 58 68 75 74 72 71 71 69 68 67 71 74 75
62 71 55 50 47 45 45 47 47 47 47 52 53 50 52 52 50 47 43 44 48 47 43 41 39 41 46 52 54 59 54 45 48 58 63 66 64 65 71 79 81 79 76
56 54 50 70 84 77 79 69 54 54 56 60 54 53 52 52 52 53 51 59 64 66 64 59 55 53 54 63 63 56 53 48 42 44 46 52 58 61 64 67 70 71 70
45 54 59 77 87 86 77 60 64 61 65 63 55 55 56 57 59 55 58 68 74 74 71 71 72 75 77 78 70 62 57 51 50 50 54 50 48 46 50 52 53 57 60
44 59 66 68 70 78 61 70 71 75 78 54 54 59 60 61 62 66 66 77 82 82 80 80 78 75 78 80 71 61 56 55 52 51 51 44 49 46 47 45 45 44 44
44 45 73 77 92 76 73 74 81 84 54 55 57 60 59 57 54 67 85 89 92 90 93 95 95 86 80 81 72 63 55 50 50 50 52 52 52 52 51 53 54 62 64
41 50 75 84 95 89 75 78 85 57 53 57 55 53 54 52 68 89 95 96 94 93 97 97 94 94 94 91 81 73 65 61 58 54 56 57 60 64 70 77 83 83 82
51 49 71 93 96 79 74 83 58 50 54 53 51 54 50 60 82 91 93 92 95 96 97 94 90 87 84 81 77 72 67 64 63 64 68 71 74 80 85 84 85 87 88
52 59 67 75 76 76 82 75 48 51 54 55 56 52 52 67 84 86 89 95 97 98 99 99 99 99 96 90 87 85 81 80 80 81 82 86 88 87 87 89 90 91 92
51 63 68 72 78 84 83 47 48 51 53 56 55 52 47 66 74 86 90 95 98 99 99 99 99 99 99 99 98 90 88 88 89 91 90 89 88 86 85 85 85 85 87
61 70 77 81 83 82 56 48 48 51 52 56 56 50 47 60 76 88 93 97 98 98 99 99 99 99 99 99 99 99 98 96 91 89 86 84 83 82 80 79 79 78 77
66 71 72 77 84 62 48 48 48 49 52 57 57 53 48 58 78 87 93 97 98 99 99 99 98 98 98 99 98 96 92 87 85 83 81 80 80 80 79 78 76 71 67
68 68 74 69 61 53 53 47 44 49 53 57 57 54 50 55 76 87 92 97 99 99 99 99 98 98 98 99 95 89 85 84 81 79 78 78 78 78 76 73 71 71 74
72 71 62 55 57 57 52 45 44 52 54 56 59 57 54 50 71 84 90 95 98 98 99 98 98 86 82 89 95 88 86 83 81 79 77 74 74 74 71 68 67 71 74
77 67 56 52 53 53 50 45 49 54 56 61 61 60 59 51 60 77 86 92 96 98 98 98 92 79 70 65 60 64 74 83 84 80 77 76 76 73 72 69 68 69 70
73 65 53 47 48 52 50 49 55 57 58 62 66 64 62 56 53 66 81 86 86 87 90 94 87 80 77 72 66 64 60 55 69 80 78 76 76 75 75 72 69 68 69
69 65 57 49 49 52 52 54 60 59 61 65 67 68 61 57 57 57 70 81 82 79 79 81 87 83 77 72 67 63 60 55 53 56 66 73 70 71 74 74 75 74 72
71 62 53 50 50 54 56 61 61 61 64 67 68 65 62 59 58 60 60 70 80 75 74 74 77 76 74 72 67 60 58 53 49 48 49 52 59 65 68 68 68 68 69
63 59 53 53 56 58 60 62 63 66 67 67 67 65 61 59 60 59 62 63 69 80 77 76 75 74 73 72 69 66 60 53 49 45 47 47 46 47 51 54 53 53 55
61 60 57 57 61 61 63 61 67 69 68 66 65 65 66 66 64 63 63 64 68 70 79 82 82 81 80 77 74 71 67 64 58 52 49 48 48 47 48 48 49 48 46
64 63 61 58 61 63 61 62 70 69 65 65 65 66 67 69 68 65 64 64 66 69 71 80 86 88 86 83 79 76 74 71 67 63 58 57 54 49 50 50 49 52 50
69 65 59 55 57 59 61 64 68 67 66 67 66 66 67 69 68 66 66 66 67 69 71 71 77 83 87 89 88 86 83 81 77 72 68 62 59 56 53 52 50 54 54
74 69 58 55 55 59 64 68 66 66 67 65 63 63 65 67 67 67 65 66 70 71 73 77 80 85 87 88 87 86 84 84 82 79 75 72 68 63 60 56 54 54 54

GFSGL_prec_cthk_003.txt.gz
RH
64 63 59 59 56 55 56 49 49 46 45 36 34 32 34 38 38 37 38 37 34 35 39 49 54 63 70 79 91 94 96 97 91 75 77 72 70 77 82 92 96 90 88
43 43 42 45 56 58 57 51 43 47 41 40 33 37 36 40 42 40 40 44 42 43 43 40 38 33 30 40 54 71 86 85 85 82 78 75 73 76 80 85 92 96 95
42 44 46 46 60 76 74 60 63 72 70 62 46 40 41 43 44 44 47 47 46 48 48 49 47 41 33 32 41 49 56 61 66 73 78 80 78 79 80 82 88 92 96
35 38 42 40 52 71 64 69 82 94 82 53 49 40 47 43 46 44 45 46 51 56 56 56 58 58 54 48 46 47 53 62 55 51 49 58 71 79 84 81 73 85 87
27 28 35 50 58 65 80 78 97 86 68 63 56 51 49 42 45 49 55 55 57 57 59 63 65 66 70 70 67 63 57 54 46 44 48 42 42 57 71 73 70 72 83
28 25 26 35 49 64 67 98 85 70 70 73 58 49 39 46 52 60 60 60 65 71 75 76 77 80 84 85 82 80 79 69 62 54 47 40 37 41 49 59 63 70 70
25 23 30 41 46 54 67 90 93 89 76 74 52 39 46 55 60 60 60 65 78 87 88 86 86 90 89 86 86 85 83 81 73 62 57 48 43 44 49 51 54 62 69
22 21 28 35 39 48 67 93 94 87 76 57 41 45 54 60 59 53 58 80 91 94 93 89 89 96 98 96 87 80 78 75 69 60 53 45 45 43 48 52 56 57 55
25 25 31 44 46 54 76 91 89 79 64 44 43 49 51 54 50 49 73 87 91 91 89 92 94 93 93 95 96 92 84 79 69 58 52 50 50 48 54 56 51 50 43
31 34 40 44 55 64 78 80 74 71 56 44 47 48 55 53 47 56 77 86 88 91 93 94 96 99 96 89 93 93 88 80 71 65 60 55 52 53 58 60 57 56 58
34 39 44 51 61 64 67 74 79 69 46 46 47 56 58 51 45 59 73 84 89 93 96 98 98 98 98 98 90 83 78 74 72 66 60 57 56 56 60 63 66 72 80
37 43 49 59 69 72 80 87 84 55 44 46 52 57 53 49 44 57 78 90 95 97 98 98 99 99 98 99 98 90 87 79 76 73 72 72 74 75 78 83 87 87 87
43 46 54 64 71 77 86 89 70 49 45 46 52 51 51 49 44 60 82 90 97 98 98 99 99 99 99 99 99 91 88 88 86 84 85 85 87 90 90 89 88 87 87
47 51 57 64 70 76 78 66 54 49 44 47 50 51 51 50 45 57 83 91 96 97 98 98 98 98 99 99 99 99 95 93 94 94 94 94 92 90 88 86 84 81 77
56 57 60 64 64 57 56 58 56 51 45 47 52 54 53 52 49 53 77 89 96 98 98 98 98 97 98 98 97 98 98 96 95 93 90 86 84 82 80 79 78 74 69
64 61 62 63 56 53 56 59 56 49 43 51 53 55 57 55 51 50 73 86 93 98 98 97 98 83 82 74 82 92 92 91 88 86 84 82 80 77 75 72 71 71 72
70 70 66 60 53 49 52 52 50 44 48 54 55 58 59 56 53 51 60 79 84 92 96 96 91 80 75 71 58 54 76 88 84 83 80 78 75 73 70 68 68 68 69
73 75 70 59 54 47 47 49 51 51 56 57 59 62 62 60 56 54 56 67 76 76 83 92 89 82 79 73 68 66 51 61 84 81 76 75 75 73 69 68 67 67 68
75 76 68 59 55 47 49 53 56 58 60 62 63 64 64 64 61 56 59 57 70 73 73 78 86 86 78 72 69 64 63 58 56 74 81 78 77 75 74 73 70 67 67
76 75 65 60 55 48 54 57 57 61 63 65 65 66 66 65 64 61 59 61 59 69 72 73 75 76 76 74 69 61 58 51 47 54 61 72 75 72 72 72 70 71 71
75 66 62 60 57 53 58 59 62 59 65 67 64 62 63 62 63 65 63 62 63 62 68 75 78 77 76 75 73 68 59 54 50 46 50 50 53 58 64 67 66 63 60
65 60 63 59 56 56 60 60 58 62 67 64 61 60 60 62 64 67 68 65 64 64 65 67 77 83 83 82 79 75 70 64 56 53 54 49 47 49 49 50 49 48 49
61 58 61 60 57 54 56 58 58 66 66 62 60 58 57 59 63 66 67 67 66 65 64 64 67 76 87 88 86 82 79 75 69 63 57 55 50 47 49 49 49 50 47
64 64 67 63 53 52 56 57 61 66 63 63 59 57 57 60 64 65 65 65 65 66 66 64 66 66 70 84 89 89 90 87 82 76 69 64 59 56 53 51 52 54 50
77 76 72 65 58 52 56 60 62 63 63 61 60 57 56 56 60 63 64 65 64 63 64 66 69 73 74 77 87 89 89 88 88 86 82 77 70 65 60 58 55 54 52
84 83 81 76 65 57 56 57 62 64 64 64 62 57 52 52 56 62 64 65 64 65 64 66 68 74 80 83 89 96 93 90 89 88 85 82 79 75 71 68 64 61 59

GFSGL_prec_cthk_006.txt.gz
RH
57 48 36 36 39 42 44 45 53 62 84 79 71 72 68 59 53 52 43 34 38 40 43 45 46 46 43 39 39 39 52 68 91 85 87 86 87 84 81 82 81 84 84
41 36 36 38 40 44 46 49 56 63 71 80 88 80 72 61 53 46 36 43 40 40 42 45 45 45 40 39 38 34 27 38 50 71 81 84 85 89 86 81 78 80 89
32 31 29 28 28 32 43 42 51 66 80 93 80 72 68 63 56 49 39 40 44 49 51 51 51 49 45 43 44 45 41 36 46 49 52 82 78 78 86 85 80 80 82
33 31 29 26 23 26 38 48 70 72 73 70 78 77 72 63 49 45 45 46 49 52 55 58 59 60 59 60 61 60 58 53 53 51 46 52 61 62 61 75 83 86 86
34 30 27 21 20 26 36 41 47 59 62 73 85 81 68 53 50 51 49 51 53 51 53 65 72 72 73 80 83 83 83 78 72 67 55 50 48 41 42 45 62 76 84
31 30 26 22 21 24 27 34 48 59 67 88 92 78 54 47 53 51 53 51 46 51 67 73 75 75 76 84 87 94 95 90 88 83 76 64 55 48 39 37 41 55 68
33 28 23 21 23 28 33 46 56 72 82 90 75 66 47 53 51 52 50 46 47 66 75 80 77 82 85 85 92 93 93 92 90 89 79 71 62 52 46 38 37 42 50
28 24 24 24 26 32 44 55 76 86 83 75 70 54 51 49 50 50 49 43 56 72 83 84 87 90 92 93 94 91 97 96 90 80 74 69 61 51 44 39 38 42 46
27 26 26 29 31 38 52 59 64 69 73 79 64 54 51 48 50 50 44 40 62 83 88 90 95 96 97 99 98 88 91 94 95 86 79 70 57 50 48 47 42 48 47
29 27 29 32 41 47 59 66 71 76 84 76 62 49 50 51 50 46 40 42 69 82 90 93 96 98 99 98 99 96 88 93 90 84 76 65 57 52 51 48 48 51 52
27 32 36 38 45 54 62 70 76 88 92 76 56 50 49 49 48 45 43 48 73 85 91 93 95 97 98 98 98 97 90 85 80 78 72 65 57 51 49 46 47 52 51
31 35 38 43 51 60 68 79 84 87 77 61 56 50 47 49 47 46 44 51 77 87 93 95 97 98 98 99 99 99 90 88 81 79 74 71 66 62 61 62 64 67 69
32 39 46 50 55 63 72 75 64 61 60 57 52 46 49 49 48 47 46 51 78 90 96 97 97 98 98 99 99 99 95 88 86 80 78 77 77 76 76 75 76 79 83
37 50 55 55 55 58 61 58 51 57 59 54 48 46 53 49 50 48 48 50 77 92 96 96 97 94 92 95 99 99 99 95 91 89 88 88 88 88 89 89 89 89 87
49 60 63 62 59 56 56 55 54 55 55 52 46 52 54 53 53 51 51 47 67 88 95 96 95 80 79 57 70 97 99 99 98 97 96 95 95 93 91 88 85 82 77
53 65 71 72 68 58 53 52 53 53 52 50 53 56 58 59 56 54 52 49 50 69 85 94 86 80 77 72 55 64 87 91 89 87 86 85 84 83 81 79 75 73 74
59 67 75 77 73 63 57 51 48 49 52 53 56 59 62 61 58 55 53 52 48 56 71 85 89 81 79 75 69 58 60 80 88 86 85 84 81 77 74 72 72 72 69
62 69 77 78 72 62 58 51 49 52 52 55 58 63 64 61 58 57 55 56 54 48 60 71 80 82 81 75 70 66 57 50 75 86 84 81 77 74 73 71 67 67 66
64 71 77 76 66 61 59 52 54 58 60 60 62 65 62 59 58 59 61 59 58 56 53 64 72 76 75 74 73 65 60 52 51 60 83 81 79 77 75 73 71 68 66
68 74 73 65 64 65 63 59 59 61 59 62 66 62 59 56 57 60 64 64 61 60 60 57 64 76 79 77 76 72 64 56 48 52 62 70 83 80 77 75 75 73 72
71 74 67 64 65 67 66 60 59 59 56 65 65 61 57 55 57 60 62 64 64 62 60 60 61 63 76 83 81 79 75 69 58 55 51 51 52 57 59 60 63 65 65
76 76 69 64 65 63 58 58 60 57 60 66 62 59 56 53 55 58 61 62 64 64 62 61 59 59 62 74 88 88 83 80 74 65 58 57 51 48 49 48 47 47 45
87 80 69 67 71 64 57 57 58 59 63 65 62 60 56 53 54 56 58 61 63 64 63 61 59 61 60 58 64 81 89 90 88 80 72 64 58 54 50 50 48 50 48
93 86 78 75 73 67 60 58 60 60 63 62 63 62 58 52 51 52 54 59 61 61 62 62 59 60 65 68 66 69 78 88 89 90 88 80 71 65 59 56 53 51 50
91 87 83 82 83 82 75 64 63 63 63 63 63 63 60 53 50 51 52 56 59 61 61 61 62 62 62 69 76 78 82 84 89 90 90 88 83 79 71 66 62 59 56
89 89 88 89 93 94 88 79 68 65 65 65 65 66 66 63 56 52 53 55 59 61 63 64 61 62 64 68 76 82 84 87 92 97 98 97 92 86 80 78 74 71 68

GFSGL_prec_cthk_009.txt.gz
RH
54 44 36 31 30 30 27 26 31 39 47 54 50 58 75 71 69 74 70 61 50 43 43 45 49 45 43 43 43 42 40 41 37 32 37 52 75 88 96 93 85 78 74
45 40 36 34 29 24 21 23 33 43 48 52 56 62 65 71 65 61 62 49 46 47 47 51 51 47 46 47 46 42 39 38 42 40 35 41 58 78 87 96 93 85 76
44 39 35 30 26 21 18 20 26 28 32 44 49 51 53 67 69 69 50 47 51 51 53 53 51 44 43 53 58 59 61 64 61 52 46 49 43 61 78 83 88 91 82
40 37 33 27 23 21 21 22 26 30 40 44 50 54 62 76 77 56 50 49 53 57 56 48 42 52 61 62 64 66 74 76 78 80 71 65 62 52 44 61 72 79 84
39 36 31 28 23 23 23 23 27 37 46 51 57 64 82 75 62 50 50 51 56 52 47 43 53 67 75 74 75 78 81 85 86 90 91 89 78 69 53 40 52 60 62
38 34 32 28 25 25 24 26 32 43 51 59 69 78 75 67 56 50 51 52 52 48 43 45 66 77 80 84 90 93 95 93 90 94 96 97 95 86 76 56 42 41 41
38 36 33 29 28 27 26 28 38 46 57 71 72 69 68 65 55 48 48 49 46 44 42 62 77 84 89 95 96 96 96 96 94 89 98 98 95 91 81 65 50 40 31
39 37 32 28 29 30 31 37 45 52 60 66 67 74 75 65 51 45 44 44 41 41 47 73 83 90 96 97 98 99 99 96 94 90 98 98 88 84 80 69 56 43 34
36 32 30 31 30 32 36 42 51 59 64 68 74 82 80 61 50 43 41 41 42 41 59 83 91 94 95 97 98 99 98 96 90 91 92 94 91 83 78 69 59 49 39
30 29 33 32 31 35 42 47 55 64 72 80 86 86 69 57 47 41 42 42 42 42 69 89 93 95 98 98 98 98 98 95 90 93 94 89 82 77 74 66 57 51 45
31 32 35 33 35 40 47 55 64 72 76 72 65 66 59 50 45 44 43 44 45 47 73 90 94 98 98 99 99 99 99 92 89 84 88 91 85 74 64 56 52 49 45
31 32 35 40 43 46 50 58 66 63 62 58 60 60 54 50 45 47 46 45 48 48 72 91 96 97 98 98 98 99 99 91 89 83 80 77 75 71 66 60 54 49 46
29 32 40 49 53 51 52 55 57 55 56 58 57 54 52 49 51 52 48 47 44 47 67 92 96 92 85 66 70 98 98 94 88 87 81 79 78 75 71 69 67 67 68
31 36 47 56 60 60 59 59 55 54 56 56 55 53 52 55 57 56 51 49 44 40 55 90 94 79 79 72 55 87 99 99 96 90 88 88 87 83 80 79 79 79 80
36 43 52 62 66 68 70 66 59 55 52 54 53 54 57 61 62 58 52 49 46 41 41 76 86 80 76 74 65 58 87 96 98 99 97 94 91 90 89 88 88 88 88
40 47 57 66 70 75 76 67 58 54 53 55 56 60 61 64 65 58 52 50 50 47 40 52 80 85 80 77 71 57 58 87 90 89 90 90 89 88 88 87 85 82 77
48 53 60 70 75 78 76 68 62 53 54 57 60 62 63 67 63 56 54 52 53 54 48 44 61 76 79 78 74 69 54 56 87 88 86 86 84 83 80 79 77 77 75
54 57 65 73 77 75 66 63 63 60 57 60 61 62 65 64 58 54 54 56 58 57 58 51 50 65 74 77 78 73 61 52 55 84 86 82 80 77 75 74 73 74 72
59 66 69 74 76 68 68 65 65 65 59 60 59 63 64 59 54 53 55 58 60 59 58 58 53 54 64 79 80 78 73 62 53 52 72 88 84 80 77 73 71 70 70
65 74 76 76 74 72 70 69 68 64 57 56 56 64 61 57 51 52 55 57 58 59 58 57 58 57 56 61 77 81 79 75 67 55 52 58 72 81 83 79 78 77 76
69 78 87 82 77 71 69 70 61 60 60 57 61 65 61 57 50 51 52 54 56 58 59 58 57 56 53 54 59 76 85 82 79 73 65 52 46 46 54 58 59 60 65
74 80 90 95 83 77 76 68 62 60 60 60 62 65 63 59 53 52 50 50 51 53 55 56 56 53 55 55 55 55 64 81 88 83 77 72 63 52 45 44 43 44 45
76 83 92 97 84 77 78 76 65 63 63 62 62 63 64 62 57 54 49 47 49 51 52 53 54 53 52 53 59 62 62 66 73 87 90 84 77 70 59 55 48 47 46
74 84 92 96 90 84 84 85 77 68 65 65 64 62 63 65 64 56 50 49 49 51 51 53 55 55 53 52 55 63 69 71 71 73 85 90 89 82 74 69 62 55 50
74 81 89 93 91 88 90 95 93 86 77 70 68 65 63 65 68 67 59 54 52 54 55 55 56 57 53 53 55 61 68 74 76 78 82 90 95 90 87 79 74 69 64
74 79 86 90 90 90 92 95 98 98 94 83 77 73 70 67 69 72 72 65 60 58 61 61 59 58 52 51 55 61 68 75 81 83 86 90 94 98 94 89 84 82 79

GFSGL_prec_cthk_012.txt.gz
RH
65 57 50 45 41 33 27 23 20 20 30 35 46 43 44 48 42 43 50 57 57 46 43 44 45 48 46 49 49 45 43 47 48 44 44 36 32 33 38 62 84 85 88
58 52 49 44 36 31 26 22 20 20 28 33 37 38 48 50 47 54 64 64 60 43 42 44 48 50 50 44 40 47 57 61 63 61 55 50 49 48 42 44 70 89 87
57 54 48 40 35 30 25 22 20 22 29 35 38 49 50 53 56 69 63 60 48 43 46 49 50 47 41 40 53 63 67 68 76 82 72 71 59 68 66 54 56 79 88
59 52 45 40 35 29 24 22 24 27 31 37 43 48 52 56 65 68 69 58 44 45 47 50 46 44 42 56 71 76 79 84 86 90 90 86 84 73 75 73 57 54 72
52 49 43 39 32 26 25 27 27 29 31 41 45 52 57 65 69 67 66 58 44 44 45 44 42 41 54 76 82 85 89 92 94 95 97 95 97 95 86 82 77 54 45
51 46 42 34 29 27 28 29 30 33 38 42 49 61 68 67 67 73 72 51 47 41 38 39 39 43 70 84 89 94 97 96 96 97 97 97 95 96 97 95 94 78 55
49 42 36 33 30 29 29 30 32 38 44 49 57 63 65 68 77 83 66 52 41 38 41 39 39 59 80 86 89 94 97 99 98 98 98 98 97 93 93 96 96 90 70
43 38 35 32 33 30 28 30 34 41 50 58 64 68 75 80 82 73 55 43 37 42 41 42 46 73 85 90 95 97 98 98 98 98 98 95 93 97 98 94 92 87 73
38 34 34 34 32 30 30 34 39 46 55 61 68 76 79 73 64 56 45 40 41 43 42 45 53 82 90 96 97 96 98 98 98 94 93 94 96 95 99 94 86 82 71
35 36 33 33 34 33 36 41 48 53 62 68 70 63 55 58 55 48 44 41 44 43 44 47 59 86 94 97 97 96 98 99 93 90 89 94 96 94 92 85 82 80 74
34 30 30 33 34 39 43 47 52 56 59 59 57 54 57 53 48 46 44 47 46 44 43 48 60 89 91 89 74 66 99 99 93 88 84 87 94 92 86 79 72 69 65
30 28 28 30 36 45 50 52 51 55 54 54 53 54 53 52 48 47 51 51 50 42 38 49 60 88 79 77 71 63 98 99 98 88 82 81 80 82 80 76 68 58 53
28 27 28 33 41 51 53 56 59 61 58 57 56 53 54 53 51 55 56 54 49 42 36 41 56 73 76 77 75 66 82 99 99 93 88 84 80 78 75 72 68 64 60
27 28 32 38 46 54 60 64 68 64 61 57 53 55 56 56 58 61 59 51 47 45 40 38 48 70 78 77 76 72 61 95 98 99 94 89 88 85 80 79 77 74 72
27 31 38 44 50 58 64 71 75 70 61 54 53 56 59 61 64 63 57 48 46 46 45 43 42 54 76 78 74 72 64 75 95 94 98 99 94 89 88 88 86 84 83
31 36 44 50 56 63 71 78 79 64 57 57 57 60 62 63 64 63 53 49 48 49 51 48 47 46 65 78 79 73 66 56 90 93 92 91 93 97 97 94 92 90 89
35 42 50 57 63 70 78 80 68 64 62 61 60 61 60 63 65 58 50 49 51 52 51 52 51 49 50 70 80 80 72 63 58 94 91 89 87 84 83 82 84 84 82
44 50 55 64 72 76 77 73 70 68 65 66 61 59 59 63 61 54 49 50 51 51 51 51 53 52 50 52 67 80 80 72 62 57 84 90 85 82 80 80 79 79 77
49 55 61 67 77 83 79 74 76 74 71 66 62 59 60 64 61 53 48 48 48 50 50 50 50 52 54 54 54 63 80 81 77 67 56 64 80 86 83 78 77 75 74
53 61 64 71 79 88 85 74 76 75 67 66 64 61 63 65 63 54 48 47 45 46 47 47 48 47 48 49 50 53 62 78 83 80 74 57 52 60 72 80 81 76 72
52 62 67 74 82 87 89 78 79 75 66 66 65 64 64 64 65 61 51 48 45 44 44 45 46 43 43 45 48 50 51 56 68 85 84 81 69 49 47 48 52 54 61
56 64 68 73 83 89 93 82 81 81 72 65 65 66 62 62 63 66 58 54 48 45 45 45 45 46 46 44 44 48 52 55 58 62 78 88 84 78 64 47 43 41 43
60 63 67 73 80 88 92 84 81 87 85 74 69 69 67 62 60 62 67 62 53 49 48 49 49 48 48 47 43 45 51 58 63 62 63 73 87 87 81 74 63 48 40
68 69 69 72 78 85 90 90 86 88 93 92 82 76 74 71 67 63 65 69 66 60 55 53 53 54 53 48 45 46 50 56 63 68 68 70 76 87 89 85 79 72 65
75 74 75 74 79 86 91 93 92 92 97 98 98 94 84 79 76 71 70 70 71 72 68 63 60 60 60 53 44 47 51 57 63 68 73 76 78 82 87 90 88 85 79
79 81 83 84 86 89 93 92 90 94 93 96 98 98 98 95 87 81 77 74 73 73 76 76 72 68 67 61 47 47 53 60 66 70 77 81 82 84 88 90 94 93 91

GFSGL_prec_cthk_015.txt.gz
RH
68 61 57 56 50 47 37 29 26 24 22 25 34 38 42 43 43 50 46 48 54 55 57 48 42 41 43 49 52 50 47 46 53 46 57 55 56 54 48 44 44 42 58
66 64 57 54 49 41 34 29 27 25 24 27 34 40 41 41 51 51 51 59 60 63 62 47 42 44 48 50 48 45 47 64 76 66 68 69 71 68 64 53 60 54 50
60 53 54 51 44 39 33 29 28 27 26 28 32 36 45 51 54 54 59 68 69 68 63 48 45 46 47 46 46 48 67 78 85 84 77 78 79 83 79 72 69 70 55
54 55 52 48 44 39 33 30 29 28 28 33 39 44 50 52 58 60 67 68 69 75 60 50 45 43 46 43 49 66 80 86 89 92 87 87 87 88 90 89 93 83 67
55 54 52 49 43 38 34 30 28 29 31 37 39 44 53 60 67 69 67 74 79 70 54 43 37 41 40 44 57 80 86 88 93 94 92 92 93 94 98 98 97 95 79
57 55 52 46 43 37 33 29 27 30 32 36 42 48 57 63 67 70 77 80 76 54 42 37 41 39 44 51 72 83 88 92 96 97 97 96 95 97 98 99 99 99 91
58 57 48 44 39 35 32 30 29 29 33 39 47 56 63 69 72 76 77 67 52 43 38 40 42 45 47 59 80 88 93 97 99 99 98 97 95 98 99 98 98 97 96
60 48 43 38 36 33 32 31 30 32 35 42 49 57 62 67 71 65 55 48 42 38 42 44 46 46 52 68 87 91 94 88 99 100 93 91 92 96 95 93 92 90 91
48 41 38 36 33 33 32 32 34 37 43 49 54 58 57 57 52 50 46 42 40 44 45 46 45 49 56 76 88 85 70 75 99 98 89 87 89 94 97 97 99 99 97
44 40 36 31 30 29 30 34 38 42 47 50 54 55 53 51 50 48 45 42 45 48 45 41 44 50 60 74 77 73 65 84 98 97 85 82 89 95 96 98 99 98 97
42 37 32 29 28 28 31 38 42 45 47 51 55 56 54 54 51 51 47 48 51 48 41 35 42 48 56 70 75 77 71 79 97 97 86 80 83 94 96 97 96 90 90
39 33 28 27 27 30 35 43 46 50 55 59 58 57 55 55 54 52 52 56 52 46 40 36 35 47 55 68 76 75 71 72 95 98 91 85 82 82 88 91 89 86 81
34 31 28 29 30 34 40 47 51 56 60 63 63 59 55 54 54 55 58 57 50 45 44 39 38 40 49 66 76 76 70 66 94 96 99 90 87 81 81 80 78 76 70
32 29 30 31 31 37 44 52 58 62 69 69 55 52 53 55 58 60 59 55 47 44 45 45 43 43 42 54 75 76 69 64 92 92 96 99 90 88 83 81 79 76 73
32 33 35 34 36 40 49 57 64 72 74 63 56 54 57 60 59 60 60 50 46 46 46 48 47 48 49 51 65 78 72 66 80 95 92 93 99 94 89 88 86 83 81
35 37 36 36 41 46 53 62 69 75 71 64 63 60 61 59 58 61 57 48 47 47 46 46 49 49 50 51 54 69 78 69 66 90 94 91 88 95 98 94 90 89 88
40 37 34 38 45 52 60 68 75 76 68 67 67 65 60 59 59 63 56 49 47 45 46 45 46 49 51 53 54 55 69 79 69 64 89 94 89 86 86 92 99 97 96
42 36 38 43 51 56 65 74 82 78 75 72 68 65 62 60 61 64 58 50 46 44 43 42 42 43 46 48 52 56 59 68 81 74 63 66 91 90 85 85 86 86 86
41 41 43 48 55 60 67 75 82 82 76 75 67 63 65 62 61 65 64 52 48 45 43 40 40 41 40 41 43 46 51 57 67 82 81 67 52 63 82 87 82 83 81
42 46 48 51 56 62 69 78 84 80 76 76 67 65 65 62 61 63 66 59 50 47 44 42 41 41 40 40 39 40 42 48 52 60 80 85 77 56 48 58 70 72 71
44 48 53 58 61 63 69 79 85 86 78 80 74 68 67 67 64 61 61 65 61 53 49 46 44 44 43 43 40 39 41 43 48 54 57 73 87 83 69 51 46 46 54
47 52 57 60 62 65 69 78 85 89 82 83 88 78 72 72 67 65 64 61 64 66 59 52 49 49 49 48 44 38 40 45 48 53 54 58 66 84 85 78 62 44 40
54 57 61 65 68 71 71 77 85 88 88 83 89 93 84 77 74 72 69 68 64 66 69 65 60 57 55 54 51 41 40 44 49 54 58 59 63 67 79 86 81 75 57
58 62 64 67 74 78 80 80 84 90 93 93 92 94 96 96 88 81 79 77 71 70 68 70 72 69 64 60 57 45 42 44 50 55 59 64 67 69 71 74 86 85 80
62 65 69 70 76 84 86 88 90 92 92 88 88 91 93 96 97 97 90 85 81 78 74 72 73 76 78 71 65 55 48 46 49 55 61 66 71 72 74 76 74 83 88
66 71 75 77 76 81 84 86 86 81 79 78 78 79 85 89 93 94 95 98 91 86 82 77 75 76 83 86 76 63 53 51 49 53 59 65 70 75 78 78 79 82 85

GFSGL_prec_cthk_018.txt.gz
RH
75 59 56 57 56 50 43 42 39 38 35 32 32 37 40 39 40 49 60 60 60 58 65 70 72 70 67 62 60 60 59 60 55 35 56 62 63 65 66 64 63 60 55
74 59 52 53 49 46 46 43 41 39 35 34 33 36 39 46 50 57 60 57 58 64 70 72 74 76 62 59 58 61 61 56 54 56 69 72 73 72 72 70 70 72 70
62 49 52 52 48 49 48 45 42 38 36 35 38 43 46 43 42 50 54 61 66 71 71 77 80 66 57 54 52 54 53 54 68 77 78 81 80 81 78 79 76 78 86
51 53 54 51 51 51 48 44 42 36 33 36 41 43 42 39 44 53 60 69 74 75 80 81 67 51 45 44 47 49 53 63 82 85 83 85 87 87 88 85 86 90 95
55 56 54 54 54 49 48 44 38 33 34 37 37 43 43 46 52 63 70 76 77 77 78 58 47 42 38 44 47 51 59 75 86 89 89 91 94 94 91 87 88 91 97
58 58 58 58 52 50 46 41 37 39 36 37 39 46 56 57 57 67 71 72 71 63 49 44 41 42 48 47 48 54 66 85 90 93 83 96 97 92 90 89 94 97 96
60 60 62 56 51 47 44 40 42 36 36 40 42 50 52 55 57 60 63 61 52 46 43 41 44 49 51 51 54 63 80 89 79 70 89 99 94 89 87 87 92 97 97
64 65 59 53 48 43 40 40 39 37 40 43 47 48 52 52 52 51 49 47 44 43 43 48 51 49 51 50 57 68 83 86 78 79 97 99 89 83 87 92 92 92 94
69 63 55 50 47 39 35 34 38 40 42 46 47 50 54 55 52 49 48 46 47 44 52 52 48 44 47 51 55 71 83 83 78 88 97 94 77 75 84 93 95 92 91
65 55 50 48 41 37 34 32 36 43 43 44 46 50 54 58 51 49 50 51 50 55 54 48 43 39 42 52 57 70 85 82 73 95 95 94 78 78 89 93 96 98 97
57 53 48 41 37 36 34 35 39 46 43 47 48 53 54 53 52 51 52 51 55 55 50 46 44 38 37 46 55 74 77 72 70 95 94 96 84 80 87 93 96 98 98
56 49 42 40 40 37 37 37 46 46 48 53 54 58 58 50 50 51 53 54 54 48 46 46 42 40 39 41 51 67 74 71 78 96 94 98 92 82 81 88 91 92 92
49 46 45 41 40 38 37 45 48 48 54 60 66 66 59 59 56 55 56 55 53 44 43 43 43 42 42 45 48 61 79 77 77 97 95 95 98 89 82 82 83 86 86
49 46 47 44 41 36 38 44 50 52 58 66 71 64 65 60 60 63 58 58 52 47 47 46 42 45 46 48 54 56 77 78 74 95 96 93 96 98 90 83 82 80 79
51 50 48 44 39 39 41 43 50 56 62 70 71 67 65 61 64 60 59 60 53 48 44 45 46 48 51 53 56 57 58 78 75 81 98 95 91 96 97 91 89 86 82
47 50 48 43 41 41 41 46 51 58 63 70 68 65 65 61 57 57 59 58 50 45 43 44 45 44 46 50 54 58 60 61 75 74 82 99 95 90 94 99 93 90 89
50 50 47 45 41 42 48 51 55 59 66 77 68 68 65 60 58 58 60 61 52 47 44 48 43 42 42 43 45 49 56 60 56 79 75 69 97 96 89 91 99 97 95
49 47 46 42 44 48 52 54 57 62 73 80 77 72 66 60 60 59 61 64 58 50 46 45 44 42 42 42 42 43 43 49 58 58 83 82 64 80 95 89 91 91 97
48 47 43 42 45 50 55 57 59 65 73 78 76 74 68 62 61 62 62 63 65 58 56 54 51 46 45 43 42 39 36 39 42 52 63 80 91 71 62 81 89 87 88
46 43 45 47 49 54 61 62 63 66 75 82 77 76 76 69 66 64 63 62 61 65 62 57 53 51 50 49 47 42 37 40 45 47 53 62 76 93 82 60 60 74 81
51 51 51 52 55 59 66 68 69 68 77 84 84 77 82 79 73 71 71 69 68 64 66 66 62 57 54 55 53 50 40 38 41 43 49 51 58 71 92 89 71 50 53
55 55 54 57 60 62 63 70 74 75 79 87 91 85 84 88 84 77 75 75 74 72 67 67 70 69 65 62 59 56 46 40 40 44 48 51 54 64 70 88 89 82 61
58 57 59 62 65 64 66 71 76 83 85 88 94 96 95 91 93 94 88 81 81 80 73 70 69 70 72 70 65 60 54 46 43 42 48 53 58 62 66 70 83 87 82
59 58 59 60 63 66 70 73 78 85 91 94 95 96 93 90 87 88 92 96 93 85 82 78 73 73 71 74 76 71 61 47 43 44 45 50 58 63 66 69 72 74 86
55 57 59 64 68 74 76 79 78 83 88 92 91 87 85 82 78 78 85 94 96 97 92 87 82 79 76 74 77 82 74 58 47 45 47 48 53 60 66 68 71 75 72
62 63 65 71 77 81 84 84 79 81 84 83 79 76 71 66 66 67 70 77 84 90 94 97 91 87 83 79 77 84 85 72 57 51 49 49 51 55 61 67 70 73 75

GFSGL_prec_cthk_021.txt.gz
RH
69 67 67 66 65 61 46 43 42 42 49 47 44 41 39 40 43 42 50 62 63 72 74 67 65 74 73 75 77 76 71 68 64 50 51 46 53 65 66 67 65 63 60
71 69 64 67 60 52 50 51 49 54 52 48 43 41 45 46 43 44 46 59 57 63 62 68 74 76 79 80 76 68 60 57 59 51 43 52 66 72 72 72 73 74 71
69 65 68 61 56 52 55 54 57 57 51 47 43 45 45 45 42 46 48 49 54 60 68 75 79 78 76 64 56 51 46 52 54 51 47 63 73 76 77 80 81 81 79
69 66 64 61 56 58 60 60 61 56 52 47 45 47 46 44 53 50 49 55 61 68 74 77 73 68 50 46 41 42 51 50 50 54 61 75 80 80 81 88 86 82 78
69 66 62 58 64 66 63 63 60 57 52 48 50 48 48 54 60 57 50 60 66 68 68 65 56 45 41 38 44 47 52 51 54 62 77 81 74 76 92 90 86 80 79
66 62 67 65 70 70 65 62 58 54 54 49 52 50 50 56 53 50 48 53 57 57 56 49 45 45 47 51 51 49 48 54 62 74 81 75 75 91 92 90 82 77 78
68 73 74 74 77 65 62 58 53 53 53 56 52 49 49 51 46 44 43 45 48 50 47 47 47 49 55 53 50 47 53 59 70 81 84 79 88 92 92 79 80 83 86
72 81 78 74 66 61 59 55 51 53 54 51 52 51 49 49 48 46 44 43 48 49 50 49 54 56 52 43 40 46 56 64 79 86 78 79 92 92 80 75 81 85 87
85 80 72 67 63 61 56 54 52 50 47 54 52 51 51 54 55 50 46 45 50 53 54 57 55 46 43 35 37 50 57 69 80 77 71 89 86 88 71 74 83 85 88
81 79 77 68 64 60 58 51 53 53 53 53 50 50 51 58 54 51 45 44 50 54 58 59 51 42 41 35 35 42 57 72 72 67 85 90 89 92 76 78 89 92 98
84 76 73 66 64 57 53 51 54 53 52 50 49 49 57 61 59 48 46 48 52 55 56 50 50 45 40 39 39 42 54 63 70 76 91 91 91 95 79 79 90 92 97
79 72 69 63 59 58 53 52 56 55 55 50 48 54 65 66 59 53 48 49 52 53 50 45 44 40 38 40 43 47 48 63 79 82 94 94 91 93 88 80 84 90 91
76 67 66 61 60 58 56 47 49 49 48 51 55 62 70 71 68 63 54 55 54 52 45 43 39 37 38 43 48 51 53 63 72 80 94 97 92 91 96 84 81 85 87
68 67 63 63 57 53 52 51 45 47 48 50 60 66 75 77 74 69 61 58 55 54 47 44 39 39 40 42 48 53 57 62 63 79 85 97 94 93 93 96 86 83 84
63 63 61 59 57 51 50 44 40 43 49 55 60 71 75 73 72 67 64 65 62 59 49 42 44 46 43 44 45 48 53 59 62 68 77 89 97 94 92 95 96 90 89
63 57 54 53 51 51 51 47 42 42 49 55 64 72 77 72 69 61 58 59 60 59 50 47 48 47 45 44 43 44 46 51 58 60 72 80 84 97 94 93 97 97 94
50 47 46 46 45 46 46 48 48 49 51 54 62 73 79 78 75 64 61 62 60 61 54 50 52 49 48 47 44 42 41 44 45 55 60 75 81 74 98 95 93 97 98
44 45 45 43 41 43 47 50 53 56 58 62 67 72 79 78 77 67 62 63 62 61 60 57 57 55 53 51 50 49 44 37 40 45 52 60 72 87 75 90 95 93 95
43 42 44 45 45 46 48 51 54 59 62 67 69 73 81 80 79 69 66 65 65 63 64 67 65 61 58 57 56 51 48 38 37 40 46 52 60 71 92 76 78 90 90
47 47 47 49 52 53 56 58 60 60 67 72 75 77 87 82 83 80 73 72 70 67 66 65 67 69 66 60 57 57 55 47 39 39 42 48 53 61 71 91 83 70 79
51 54 58 59 59 59 61 62 65 65 67 73 82 82 90 92 85 89 90 83 80 78 74 73 71 66 68 68 66 64 60 57 46 40 41 46 51 55 61 68 90 86 69
57 60 61 60 60 60 62 64 65 66 68 75 83 88 92 95 94 90 93 96 92 86 85 84 79 76 72 69 72 74 71 64 55 43 42 43 49 55 58 62 69 83 89
56 57 59 59 58 57 58 63 66 69 73 80 84 91 97 97 97 98 96 91 91 93 92 91 88 84 81 75 73 73 77 75 65 48 42 43 45 51 58 61 63 68 76
54 56 61 62 58 59 62 68 74 78 82 84 87 91 96 99 99 97 90 86 84 87 93 96 97 90 85 81 78 74 73 79 74 56 45 42 44 47 53 60 63 66 68
68 67 63 64 69 68 70 74 79 84 86 89 89 87 90 94 92 87 81 75 74 78 81 89 94 95 97 92 84 80 77 77 82 71 54 47 45 44 47 53 60 66 68
66 72 70 69 74 72 71 77 81 87 88 92 90 88 90 87 80 77 70 67 69 72 74 75 80 89 94 96 96 89 83 79 84 83 69 55 51 50 48 50 54 57 63

GFSGL_prec_cthk_024.txt.gz
RH
55 59 63 66 68 60 58 62 61 50 45 51 52 50 49 49 55 56 51 45 48 50 61 62 73 77 72 64 71 72 72 72 55 48 45 47 45 39 38 43 51 52 51
58 63 65 65 69 61 62 65 58 52 54 58 54 51 51 53 55 48 42 50 47 46 52 54 62 67 67 74 71 64 54 44 44 40 41 41 41 40 47 57 61 62 63
62 67 69 66 73 73 64 64 59 57 62 62 55 53 53 55 58 53 56 59 51 48 51 52 60 68 71 66 53 41 37 36 40 46 42 40 45 52 59 68 66 65 69
66 73 68 73 77 71 66 62 66 69 67 65 58 55 55 56 57 56 65 62 50 48 55 59 62 60 52 43 38 35 36 43 43 43 44 46 52 61 67 65 64 75 71
72 71 76 76 69 76 66 76 77 65 66 64 64 58 59 60 59 60 62 58 48 47 51 54 54 46 42 38 39 41 45 44 43 44 47 52 61 71 71 72 82 79 74
74 76 75 76 77 73 82 74 63 70 69 66 68 65 65 65 60 52 54 43 39 42 46 46 46 44 43 45 49 47 44 42 45 54 57 66 76 79 78 87 82 78 64
75 76 78 80 80 86 81 66 75 68 69 73 69 66 64 66 50 51 47 38 37 40 42 41 44 48 47 51 46 42 36 44 55 60 67 79 80 78 84 80 80 65 61
77 80 82 86 85 82 74 77 70 72 68 64 66 67 68 64 53 48 51 45 43 42 40 43 47 52 49 43 38 34 33 39 52 65 72 72 70 83 83 82 72 61 66
79 82 91 92 87 75 78 75 70 68 67 67 66 64 65 56 46 50 57 52 45 42 44 47 52 55 43 42 38 34 34 38 49 61 62 63 81 86 85 87 70 71 73
90 90 87 86 88 80 74 71 70 67 67 66 63 62 56 51 48 53 61 52 44 45 47 50 51 47 45 42 37 35 35 39 42 56 68 79 87 86 86 89 76 77 84
94 95 92 87 79 76 73 72 69 63 64 62 60 52 45 46 48 61 61 52 50 48 49 52 52 44 42 37 36 38 40 42 47 52 66 84 90 87 85 87 79 77 89
90 91 86 78 73 74 70 65 62 58 58 53 49 46 45 51 55 61 66 61 55 51 51 52 48 43 38 35 36 39 43 46 50 55 60 83 91 89 87 89 85 80 85
92 84 74 73 74 69 60 52 46 42 41 41 45 46 50 59 61 64 69 69 61 55 55 54 46 42 37 36 36 39 40 42 50 54 60 70 92 92 88 87 92 78 83
79 71 72 65 58 49 48 44 43 38 36 40 46 51 58 65 72 73 69 69 67 60 59 56 48 44 41 39 40 40 40 41 44 51 58 65 80 94 91 89 92 90 83
67 64 58 51 46 43 42 42 38 36 39 41 49 58 64 68 78 83 78 71 65 65 64 62 52 47 46 42 41 42 40 38 39 42 49 61 70 80 94 93 91 95 93
51 43 44 42 41 41 38 38 39 40 43 50 54 59 65 71 77 82 78 77 67 65 63 61 55 49 51 47 44 47 45 40 34 35 42 51 63 74 80 97 95 93 95
36 38 40 38 37 39 41 41 39 41 48 53 58 66 71 76 79 84 79 78 69 65 63 61 59 54 57 52 50 51 52 47 37 33 36 43 52 63 82 77 96 93 93
33 36 39 43 47 49 48 49 49 47 46 49 57 64 71 78 79 85 80 80 72 66 65 62 59 58 61 61 56 56 53 54 47 38 37 39 46 53 65 86 72 92 93
39 42 46 48 51 53 53 55 53 55 56 57 60 65 72 80 81 87 86 84 78 71 68 64 64 66 66 68 67 61 59 60 56 45 39 39 43 49 56 67 89 73 79
43 48 54 56 55 57 60 59 57 57 60 63 67 69 72 78 85 87 94 88 88 82 77 75 73 74 74 73 71 70 68 67 63 56 45 40 41 47 52 57 68 89 73
53 57 57 55 57 61 58 57 58 57 61 63 64 68 75 81 88 91 95 95 90 96 93 86 82 81 79 77 75 71 70 72 74 66 53 43 41 42 50 55 59 66 89
51 50 52 54 53 55 54 56 54 55 58 65 69 73 80 83 89 94 99 98 97 94 97 96 91 90 91 87 83 79 72 72 75 78 65 48 43 42 45 52 57 60 64
46 47 51 52 60 66 65 62 57 60 65 71 78 79 84 88 92 93 98 99 98 98 98 94 88 89 94 97 93 87 81 77 74 78 78 57 46 42 45 47 53 59 61
41 44 47 55 71 79 80 76 65 64 73 78 80 85 89 92 94 94 96 99 99 99 94 86 85 88 92 97 98 96 91 83 79 75 79 73 55 45 46 47 48 53 59
28 35 38 42 63 76 79 78 72 72 77 83 85 88 92 93 93 94 97 99 98 91 83 77 79 83 85 89 93 95 97 95 87 79 79 80 69 53 46 47 46 47 50
34 45 50 54 55 62 74 78 80 80 80 81 85 90 92 95 95 94 94 95 89 80 74 71 71 75 77 78 86 90 96 98 97 88 81 83 80 68 56 53 51 49 48

GFSGL_prec_cthk_027.txt.gz
RH
55 59 62 64 67 72 72 70 73 64 76 62 52 54 57 57 57 59 61 59 57 58 62 55 50 50 54 59 61 68 70 74 65 49 35 31 32 35 35 33 33 36 40
55 60 65 71 75 73 71 72 71 69 61 58 61 63 57 57 60 58 55 60 65 72 68 58 54 52 52 55 61 63 62 59 36 31 29 33 35 34 35 36 38 44 48
58 64 70 73 71 71 73 76 75 74 69 74 63 65 64 64 61 66 68 73 72 71 67 56 48 54 57 53 50 51 41 35 35 37 37 35 36 36 40 43 47 51 50
62 62 70 71 71 76 79 74 78 75 79 65 68 71 72 74 69 66 73 75 74 65 59 50 47 48 47 43 40 39 37 41 42 39 35 36 40 44 50 56 57 57 58
59 62 66 70 75 74 75 78 81 82 81 72 73 78 79 72 71 73 75 69 66 58 48 41 43 41 38 38 36 40 46 44 39 34 39 43 47 53 61 63 63 64 65
61 69 76 75 71 76 82 86 89 81 75 75 78 79 77 73 76 69 62 63 56 40 35 37 38 37 38 37 41 48 45 41 34 38 44 49 56 64 62 63 71 68 60
73 78 75 75 77 84 91 92 83 79 79 80 79 73 77 75 70 61 63 55 49 48 44 40 38 41 42 45 48 44 40 37 35 39 44 53 61 65 63 72 72 71 67
75 76 78 81 85 89 90 86 89 84 79 78 78 74 72 68 61 56 54 52 54 56 51 41 43 44 46 47 43 40 39 38 38 40 46 49 56 59 76 81 77 74 66
78 81 83 85 91 97 94 89 84 79 76 68 69 68 58 52 53 50 52 55 58 61 51 46 46 48 49 44 42 40 36 37 40 42 45 49 60 75 83 85 80 77 63
83 84 87 93 93 93 89 82 80 71 68 63 55 51 48 47 49 50 52 57 60 57 51 48 50 49 48 45 41 35 34 36 39 43 45 48 63 80 86 85 81 77 69
90 90 97 97 93 85 79 74 72 63 54 45 42 46 41 42 47 51 56 57 61 60 58 53 49 50 45 43 38 36 36 35 37 41 47 49 61 78 86 86 84 83 72
95 95 93 87 80 74 70 65 57 46 42 37 38 40 42 45 48 55 56 61 68 68 64 58 53 52 46 43 40 38 38 37 36 38 44 52 55 75 86 87 85 84 83
86 79 75 63 55 56 51 41 39 38 35 34 34 38 46 50 53 57 59 66 73 75 72 62 59 54 48 45 41 40 39 38 33 34 40 46 58 62 86 88 86 85 87
64 56 43 39 37 33 29 32 35 36 39 41 39 39 45 50 56 59 65 69 74 81 82 66 62 61 52 47 44 43 42 43 38 34 34 39 46 60 68 91 90 84 87
38 35 31 26 24 25 29 34 39 42 45 45 44 47 50 51 60 68 71 73 76 82 82 71 63 62 58 50 49 49 46 48 47 39 34 34 41 50 61 82 94 91 88
25 24 22 23 26 32 35 38 44 47 47 46 48 50 51 59 65 68 73 76 78 82 80 69 64 64 61 55 53 52 51 51 53 50 40 35 37 44 53 72 79 93 91
23 25 26 29 33 38 42 46 48 46 47 50 51 50 53 60 68 72 79 83 83 85 79 70 64 65 62 58 57 58 55 57 57 59 46 39 37 41 48 57 81 78 93
30 32 33 36 41 48 54 57 56 52 47 43 47 53 56 63 71 74 79 85 86 87 81 72 68 66 65 62 60 64 62 62 63 63 53 45 40 39 44 52 63 87 76
34 38 42 49 57 62 61 59 58 58 55 47 44 47 56 61 67 74 80 86 90 90 87 82 74 71 70 69 70 71 68 68 69 70 65 51 43 40 41 48 54 72 86
36 42 51 57 62 63 65 63 62 60 56 51 47 47 58 64 62 72 80 85 93 95 92 90 87 80 78 78 79 78 75 72 70 71 74 63 49 42 39 44 51 58 81
42 47 50 49 48 50 52 61 56 60 63 63 55 53 59 67 71 76 81 86 93 96 98 95 97 96 89 85 85 83 82 79 74 69 72 75 56 45 39 41 48 54 60
43 41 38 41 45 45 45 49 52 71 77 76 66 63 63 73 79 83 87 89 92 94 99 98 97 98 98 93 89 93 94 88 84 77 71 76 70 51 42 41 44 51 57
31 27 24 24 26 30 34 34 49 86 86 83 73 73 71 76 82 89 91 95 95 95 98 99 97 96 97 89 89 94 98 98 92 86 79 75 79 65 49 43 44 46 51
28 29 30 30 33 44 44 37 55 74 81 79 76 78 75 77 86 90 94 95 95 98 99 99 99 98 96 85 86 88 94 98 98 95 88 80 79 77 61 49 45 46 47
27 29 31 35 41 48 48 53 57 71 74 75 80 81 80 77 81 88 93 96 97 97 98 98 99 98 88 81 86 86 85 91 94 97 95 88 80 81 75 60 52 48 49
26 28 31 35 39 43 48 57 62 69 75 80 84 85 84 82 78 82 88 95 97 97 96 96 96 91 78 76 78 80 82 85 89 93 97 96 84 82 80 74 62 57 52

GFSGL_prec_cthk_030.txt.gz
RH
57 64 70 74 75 79 81 78 72 70 79 77 74 64 66 62 60 60 64 63 68 72 72 69 72 72 68 60 58 54 57 61 62 56 47 35 27 25 27 30 31 31 31
55 59 64 69 75 77 70 69 70 75 79 72 71 70 64 65 66 68 69 70 70 74 76 80 76 71 60 58 54 56 56 55 48 39 30 31 32 32 32 32 32 34 38
70 73 71 71 68 62 61 65 71 72 68 71 76 72 69 73 74 76 68 68 78 79 78 74 67 64 57 51 50 48 40 40 40 38 36 37 31 31 34 38 41 44 45
78 73 69 67 63 65 67 70 71 70 73 78 79 71 75 76 78 77 79 76 81 73 71 67 54 45 44 44 44 38 39 40 43 41 36 30 30 35 42 46 44 46 46
73 69 66 68 70 71 70 71 73 76 81 85 80 82 77 75 77 85 78 76 72 66 55 46 44 41 41 39 38 40 42 46 42 36 31 29 33 39 48 52 51 50 60
67 67 73 77 74 69 74 76 78 79 84 82 84 80 77 82 79 76 70 64 56 48 43 46 49 46 39 39 42 43 48 42 37 33 31 32 37 43 49 53 53 62 66
71 75 74 71 73 77 79 79 83 88 95 92 84 80 79 72 66 62 53 49 48 46 47 51 56 48 42 43 44 49 45 42 37 34 33 37 39 43 45 57 70 72 71
79 77 76 77 75 75 75 82 91 96 92 83 79 71 65 58 52 47 45 45 45 49 52 57 57 48 46 47 48 45 42 38 34 34 36 38 41 44 53 69 76 76 70
74 80 85 92 85 83 89 96 96 89 84 75 68 59 47 39 39 39 42 45 46 50 55 57 50 48 49 49 47 43 37 33 33 35 37 40 41 48 61 72 79 77 71
81 84 88 95 93 97 96 92 88 80 67 52 44 32 30 33 39 43 47 49 49 53 57 56 57 55 52 50 47 41 35 34 34 34 37 41 43 46 60 74 81 83 80
93 96 90 89 92 90 89 78 57 50 40 28 22 24 30 35 40 45 48 49 54 56 62 65 63 61 54 53 46 40 37 37 37 35 34 37 42 48 53 74 84 87 83
87 88 90 85 76 62 50 40 35 28 23 23 26 30 32 36 40 46 50 51 57 60 67 74 75 71 61 55 48 43 42 41 39 37 35 35 38 43 49 61 83 88 87
76 70 62 51 41 35 32 29 22 23 24 27 31 35 36 38 39 44 50 58 59 63 73 78 84 82 67 63 55 46 44 44 43 42 42 37 37 38 44 52 77 90 87
56 48 40 34 29 26 23 22 24 26 29 34 39 42 44 42 43 46 49 58 63 69 76 78 85 88 71 66 61 50 48 48 50 49 48 46 40 37 40 47 63 87 88
39 30 24 21 20 21 23 26 28 32 38 44 49 51 48 42 44 49 53 56 66 75 79 80 87 88 74 67 64 55 52 52 53 56 54 55 46 38 39 44 56 71 86
23 22 23 23 24 26 29 30 38 44 52 59 60 58 51 48 46 48 55 61 68 75 77 82 88 88 74 66 64 60 57 56 56 58 61 59 50 42 39 43 49 63 77
25 26 27 29 32 35 38 44 47 50 59 59 61 60 60 52 49 50 56 64 71 76 75 85 89 87 75 68 66 64 58 58 60 62 66 67 52 45 42 42 47 55 78
28 28 30 34 38 42 49 53 58 59 54 52 61 62 57 56 56 55 59 68 75 79 81 88 93 88 79 72 69 67 65 66 66 66 70 73 62 49 44 42 46 52 67
27 29 33 39 42 45 50 52 55 57 56 63 58 51 52 54 52 54 64 68 72 79 84 90 95 93 88 79 74 72 70 71 71 72 72 74 74 55 46 41 44 50 56
27 32 37 37 37 37 40 44 40 43 45 45 60 58 59 63 59 62 63 68 73 80 86 90 95 97 96 91 82 80 80 81 80 79 76 73 76 66 49 42 42 47 55
27 26 25 26 27 27 25 26 34 40 37 47 46 52 80 77 70 64 67 68 81 87 91 92 94 99 98 98 95 88 87 83 83 85 82 76 73 75 56 45 42 44 52
25 25 28 30 29 29 29 30 32 35 33 32 35 66 87 85 77 72 72 72 82 90 95 96 96 98 99 98 99 97 94 89 92 91 88 84 76 77 71 51 44 44 47
24 25 25 26 28 30 33 35 42 44 38 42 70 78 85 79 76 79 74 74 82 89 95 97 98 98 99 98 98 98 97 88 94 98 97 89 83 78 80 64 49 45 45
26 24 24 24 25 27 30 34 41 45 45 55 58 72 77 80 81 82 79 75 77 86 94 96 98 98 99 99 99 99 97 90 92 96 98 99 91 81 80 76 59 49 47
24 24 24 25 27 28 30 34 38 41 48 56 64 67 72 78 80 81 81 80 77 77 87 98 98 98 99 99 99 98 96 87 89 91 95 98 99 91 80 79 73 60 52
24 25 26 28 30 32 35 37 39 40 44 51 62 69 74 79 81 84 87 85 80 75 82 92 97 99 98 99 99 98 88 79 85 88 87 92 97 98 87 82 79 71 61

GFSGL_prec_cthk_033.txt.gz
RH
44 49 57 66 74 75 76 78 78 76 73 72 74 78 74 73 72 76 74 70 65 65 64 64 63 72 72 69 69 63 57 55 51 41 39 35 29 28 28 30 31 31 32
55 61 72 79 83 83 79 75 69 68 72 76 77 75 79 78 80 79 76 72 62 62 68 69 66 65 66 63 51 47 47 47 46 36 32 31 32 33 29 30 32 33 34
75 80 84 81 83 80 74 69 69 73 72 74 77 82 83 82 81 78 72 70 74 71 65 61 57 53 45 40 41 43 43 42 41 38 37 38 33 30 29 30 32 35 37
77 79 80 82 77 73 71 74 73 70 73 78 78 81 87 88 82 81 80 77 69 64 53 48 42 36 39 40 41 41 39 40 42 44 41 34 32 31 32 34 32 38 37
67 66 78 80 77 78 76 72 73 77 74 77 80 87 94 90 83 81 78 70 58 50 42 38 37 37 40 43 43 39 40 43 44 43 38 34 31 32 35 36 37 36 46
61 69 73 80 86 81 75 74 82 83 90 89 89 95 96 85 80 71 66 48 37 38 41 44 44 43 47 51 46 42 44 45 45 43 38 33 31 34 34 37 40 48 56
62 70 78 78 74 77 83 83 82 86 90 91 96 96 90 80 75 51 31 32 37 41 43 43 44 48 51 49 45 47 47 47 45 42 35 34 33 34 34 37 47 57 65
69 73 75 74 79 80 81 81 83 95 93 94 90 84 77 60 30 26 29 33 40 44 45 45 47 48 46 45 49 50 49 46 45 37 35 35 35 33 35 41 51 60 66
69 71 74 79 86 93 89 98 93 95 93 80 74 59 40 22 22 25 31 38 43 45 46 47 49 47 50 48 52 49 49 45 40 38 37 37 36 35 38 37 48 61 67
68 75 86 91 90 97 89 92 94 91 71 61 48 28 21 18 21 27 35 43 47 50 49 50 53 52 58 55 56 52 50 45 41 39 39 39 40 38 38 40 44 62 73
78 84 87 89 91 89 88 80 68 56 42 33 25 22 22 23 26 31 39 44 53 53 54 55 57 60 67 70 64 57 53 48 43 43 42 39 41 39 38 39 41 51 74
85 87 87 84 77 69 60 51 40 31 28 23 22 23 26 28 31 34 44 51 54 55 60 61 62 66 73 77 76 64 62 52 46 45 47 46 43 44 41 38 43 46 70
78 71 65 59 54 48 37 28 24 22 22 24 26 26 28 36 44 49 51 51 51 55 57 66 70 74 79 82 84 75 68 59 51 47 47 50 52 49 47 40 40 46 58
63 58 54 46 36 29 22 20 21 23 26 29 32 36 41 45 51 52 50 51 54 56 56 66 71 78 85 87 88 83 71 65 55 50 49 52 55 52 51 44 38 42 53
51 43 37 32 26 23 23 24 26 29 35 39 44 50 54 51 52 53 50 48 50 56 63 65 73 86 88 91 92 88 74 70 58 54 53 56 60 57 51 47 41 41 49
39 35 30 26 24 24 26 26 33 40 46 51 54 60 58 59 57 58 57 51 47 55 63 65 75 85 89 93 95 88 75 70 62 57 57 60 64 64 54 48 42 41 45
36 29 25 25 27 29 33 37 35 31 39 42 51 56 61 57 75 73 62 51 49 55 62 65 76 87 90 95 96 85 72 70 68 63 63 64 66 70 61 50 43 39 46
26 24 23 24 26 28 28 30 32 33 31 28 28 37 47 49 72 75 58 55 53 57 63 67 77 87 91 96 98 90 76 72 70 67 68 69 69 72 72 54 45 39 44
23 23 24 24 24 23 22 21 23 25 25 32 32 29 33 40 54 62 67 64 62 65 69 64 70 86 92 96 98 96 83 76 72 71 74 75 74 73 74 60 48 41 43
26 26 25 23 22 22 23 24 25 26 27 25 25 24 24 27 41 52 64 76 75 76 74 68 75 84 92 96 99 98 94 82 78 77 80 81 81 75 74 69 51 42 43
27 25 23 22 22 25 27 28 30 33 34 34 37 37 38 46 37 52 76 81 84 82 78 74 79 89 95 98 98 98 98 91 87 87 83 83 85 80 75 76 57 45 44
26 23 23 24 24 24 24 25 27 31 35 39 40 40 42 50 59 71 78 83 87 82 78 76 83 91 98 98 99 99 98 97 94 91 88 88 88 86 81 79 69 52 45
23 23 23 23 23 23 23 25 27 29 32 35 41 47 50 57 69 78 79 83 87 86 81 76 84 91 97 99 99 99 99 99 98 97 95 95 95 91 86 80 79 62 49
23 23 23 22 23 25 26 28 30 32 34 36 38 41 53 61 68 72 82 88 88 89 86 80 78 89 98 98 99 96 98 99 99 99 98 94 96 98 97 84 81 74 59
24 23 23 25 26 25 27 30 32 36 38 40 41 42 43 49 63 70 78 80 84 88 85 83 80 77 91 99 98 99 99 98 99 99 99 95 95 97 98 97 84 80 71
24 25 26 26 26 29 31 34 37 40 41 44 47 50 52 53 54 57 74 80 88 90 90 88 83 78 79 95 99 99 99 99 98 97 97 94 93 93 96 98 93 83 80

GFSGL_prec_cthk_036.txt.gz
RH
44 47 55 63 73 82 84 86 84 79 76 81 80 83 79 72 75 78 80 78 75 77 70 68 64 50 40 32 30 33 34 35 35 33 36 38 37 36 35 33 30 29 29
66 70 75 82 82 84 82 78 76 73 81 83 79 71 74 78 78 84 87 79 77 73 72 65 49 31 25 30 30 31 33 37 38 34 35 35 36 37 33 30 30 30 32
63 72 82 84 83 77 73 72 78 77 81 82 71 82 89 85 87 93 83 78 78 76 68 48 34 30 30 30 31 36 39 39 39 36 36 38 37 33 30 29 30 32 34
67 73 77 78 73 74 72 75 76 81 83 79 80 88 84 88 97 93 86 81 77 70 46 31 31 33 33 35 38 42 42 42 39 40 41 40 34 31 30 30 29 32 33
60 64 68 68 67 70 75 77 78 81 75 78 90 80 86 96 97 94 83 71 64 48 31 31 35 38 40 41 44 46 46 42 41 43 44 38 35 31 32 32 32 30 34
53 57 59 66 69 76 82 85 81 72 76 91 91 97 97 97 95 93 80 64 43 27 29 34 38 41 44 46 49 46 40 40 44 46 42 38 34 34 34 33 32 34 39
47 52 58 71 78 82 80 80 79 87 93 97 95 93 92 94 89 83 56 35 24 27 32 38 42 46 50 52 48 42 40 44 46 46 42 37 35 37 36 33 33 36 44
52 59 67 78 80 81 77 78 91 92 93 97 95 91 91 84 66 44 29 23 25 28 35 42 47 53 57 56 49 45 43 48 49 47 41 38 38 38 40 41 38 33 38
59 64 69 70 74 78 86 94 91 88 89 91 90 86 72 52 35 25 21 23 27 32 41 48 57 62 63 59 54 52 52 52 54 48 44 41 42 43 44 45 43 37 33
59 63 69 75 83 83 86 87 87 87 86 79 67 53 38 26 23 23 23 25 30 37 48 58 66 64 64 63 60 62 65 62 59 52 49 46 45 45 46 46 47 44 39
65 72 76 80 86 88 87 83 71 62 55 45 34 27 22 23 24 27 30 32 38 47 54 57 62 65 66 67 66 70 74 75 67 59 55 49 47 47 46 48 49 49 42
78 81 81 80 73 66 61 57 51 40 32 26 22 20 23 26 30 34 40 45 48 53 57 57 55 60 70 70 74 78 83 83 80 67 60 53 51 52 49 48 48 51 45
73 70 65 62 60 54 46 38 33 27 23 22 23 24 27 33 40 46 51 54 55 54 51 50 52 54 60 75 78 83 87 88 89 73 65 57 54 53 53 51 50 52 44
64 61 56 49 43 40 36 32 27 24 25 28 31 35 37 38 42 50 54 55 55 54 52 51 50 54 59 73 80 87 90 92 94 81 70 61 58 56 57 56 52 53 42
53 47 45 43 40 34 31 28 27 29 34 37 40 41 43 39 40 46 52 54 56 60 69 63 48 47 63 67 77 92 94 94 95 86 73 64 59 59 61 61 56 54 45
47 47 44 38 31 29 26 23 24 24 23 24 25 30 30 38 34 38 46 50 58 75 76 66 53 49 60 69 81 90 93 96 97 86 74 68 63 63 65 67 59 55 47
48 42 35 31 28 25 22 20 18 17 19 19 20 26 28 28 28 32 41 46 57 75 77 69 53 56 61 78 84 91 94 97 96 82 73 71 68 68 68 70 65 57 50
42 36 33 30 27 24 21 20 19 18 17 17 21 23 24 23 21 19 30 42 54 62 65 60 62 67 72 65 78 91 93 97 97 83 73 73 71 72 72 72 69 60 50
39 37 33 28 23 20 19 18 19 21 22 23 21 21 23 23 26 25 30 34 53 53 67 70 72 77 76 67 72 88 95 98 99 91 77 75 76 78 76 74 72 63 52
41 35 27 22 19 17 18 18 18 19 21 23 25 28 30 30 28 32 42 44 44 58 66 77 81 82 79 73 79 89 95 99 99 97 82 77 80 82 79 78 74 67 55
35 27 21 18 18 18 18 19 19 20 21 23 25 29 33 40 43 47 53 62 59 64 74 79 85 85 79 76 84 91 97 99 99 98 89 85 87 83 81 81 76 73 58
30 24 20 19 19 19 19 19 21 22 23 24 25 28 32 35 40 49 58 66 69 78 80 85 87 87 83 81 87 93 99 99 99 99 95 92 90 86 87 84 80 77 65
27 22 21 21 21 19 20 22 22 23 24 27 29 32 35 37 37 39 52 65 74 79 85 89 89 88 82 82 87 94 98 98 99 99 98 95 94 91 92 89 86 80 75
25 25 24 22 21 21 22 23 24 25 28 30 34 38 40 40 41 42 41 47 60 75 84 89 89 90 88 80 82 96 98 99 98 98 99 98 97 98 96 97 96 85 79
29 27 24 23 22 23 24 25 27 29 31 34 39 43 45 46 46 48 48 48 47 52 75 89 90 92 91 87 80 89 98 99 99 99 99 99 99 99 98 98 99 96 84
29 26 25 25 25 26 27 27 29 31 33 35 38 40 44 49 52 53 54 55 55 58 61 78 91 94 94 90 85 82 93 99 99 99 99 99 99 99 99 97 97 98 91

GFSGL_prec_cthk_039.txt.gz
RH
47 55 60 60 69 73 80 89 92 94 94 88 78 75 86 90 82 75 76 87 93 83 79 76 70 65 50 38 24 27 32 32 35 37 41 37 33 33 35 34 29 26 26
66 69 71 70 77 81 88 90 93 93 83 80 74 79 86 88 86 85 86 94 86 82 81 78 73 62 48 26 25 28 32 36 38 42 45 37 35 35 34 31 28 26 26
71 74 71 71 76 79 85 87 83 79 74 75 77 83 90 83 79 86 95 96 90 84 83 80 73 59 27 28 28 29 35 39 43 46 42 38 37 38 36 33 30 29 30
65 59 56 58 64 71 79 79 70 76 85 84 82 83 88 88 92 95 98 98 94 85 83 75 57 31 29 32 32 35 40 45 51 49 41 38 40 38 36 32 32 33 32
48 48 50 54 61 63 66 65 69 79 79 84 79 78 91 91 96 97 97 96 92 85 73 50 34 29 32 34 36 40 46 53 52 45 41 43 41 40 36 34 35 36 36
44 45 51 54 56 58 65 71 77 79 85 76 74 92 95 93 97 98 96 93 82 63 43 32 29 33 37 38 42 48 56 58 49 46 43 44 43 41 37 38 39 41 44
36 38 43 50 57 61 66 71 77 78 89 80 95 97 95 93 92 92 84 65 45 31 25 26 32 37 43 45 52 60 63 56 51 49 46 48 46 43 41 42 46 51 48
39 47 53 57 60 64 66 70 84 88 82 89 89 89 88 88 84 68 47 33 24 21 24 29 34 41 49 56 64 68 66 60 56 52 49 50 47 45 42 44 46 52 54
46 50 52 55 59 62 67 76 83 84 84 85 86 84 78 56 42 35 26 21 21 22 26 31 40 45 54 66 70 70 68 63 61 60 58 55 51 49 45 47 50 52 52
45 49 53 59 64 68 73 78 81 84 81 68 57 47 39 34 28 24 23 25 25 28 30 36 46 53 57 63 68 66 65 68 69 68 68 64 57 54 50 49 50 48 53
55 61 65 68 71 73 72 63 58 55 48 41 37 32 29 27 24 25 28 33 35 36 39 42 46 53 55 55 58 63 68 77 77 77 79 79 69 61 58 55 53 49 51
67 70 67 60 57 56 55 48 42 39 37 33 28 26 25 25 28 31 35 39 42 44 44 44 44 47 53 55 57 60 68 78 78 85 84 88 80 68 62 58 57 54 53
65 59 55 53 51 45 42 42 40 37 33 30 30 30 30 32 33 37 41 43 48 52 47 45 47 49 51 57 61 65 64 72 84 88 90 93 87 74 62 57 58 57 53
58 54 49 48 45 44 44 41 37 34 31 31 30 29 27 26 29 30 31 31 38 48 52 54 53 64 63 66 64 65 64 70 83 88 92 95 94 78 64 59 60 63 60
51 50 50 48 46 42 40 36 32 30 29 27 25 27 26 23 23 24 28 33 35 35 46 49 54 73 66 65 59 70 71 71 80 87 95 97 98 81 66 61 63 64 64
53 51 50 47 43 42 39 35 33 29 25 22 20 19 22 23 19 19 20 21 27 35 36 49 54 61 75 67 62 69 66 78 86 89 95 99 98 81 71 66 67 68 67
54 53 48 48 46 42 37 31 28 25 21 18 17 17 18 19 20 20 19 20 20 20 33 45 57 68 76 70 67 71 70 74 84 93 96 99 96 79 74 69 70 72 70
56 52 52 47 43 38 33 29 26 24 22 20 16 15 15 16 19 23 23 22 26 34 39 51 57 61 61 67 71 82 77 70 79 90 97 99 93 80 75 72 74 75 72
57 54 50 44 39 34 31 29 25 23 21 16 13 14 14 15 17 20 28 34 41 47 49 46 59 64 74 77 81 85 80 72 81 92 98 99 95 83 77 77 79 77 72
56 51 45 40 36 33 30 27 25 21 17 15 16 16 16 17 18 20 23 33 46 56 59 58 62 67 72 81 88 84 81 75 83 93 98 99 98 85 80 81 81 79 74
53 46 42 38 35 31 29 26 22 18 18 18 19 21 22 23 23 25 28 32 38 51 58 68 70 76 80 86 88 85 84 80 86 97 99 99 98 87 83 85 82 80 76
48 44 41 36 33 32 28 23 20 20 20 21 22 23 25 26 28 30 33 36 37 38 52 66 72 79 84 89 90 87 83 82 91 99 99 99 98 93 90 88 85 82 79
48 43 39 37 34 29 26 24 22 22 23 24 24 25 26 27 31 35 37 40 40 40 41 53 70 83 89 89 90 86 82 82 91 99 99 99 98 97 94 91 89 86 82
48 44 41 36 30 29 27 25 25 26 27 26 25 25 25 27 30 35 41 44 44 44 44 44 46 68 85 90 91 90 83 80 94 98 99 99 98 98 96 95 96 94 91
50 45 40 33 33 31 29 28 28 29 28 26 26 26 27 29 31 34 37 42 47 49 51 51 49 51 60 88 93 95 93 82 94 99 99 99 98 99 98 98 99 99 98
52 47 40 37 36 34 32 31 31 30 29 29 29 28 29 31 33 36 38 41 44 49 59 60 61 66 64 81 95 99 98 91 91 98 99 99 99 99 99 99 99 99 99

GFSGL_prec_cthk_042.txt.gz
RH
54 54 50 51 65 70 70 73 76 82 90 95 98 94 88 79 70 79 86 87 95 90 95 90 89 85 83 81 75 67 55 40 40 39 41 45 46 47 45 41 39 31 26
49 47 49 65 67 68 66 75 83 88 90 95 91 81 81 75 83 82 85 90 91 96 94 91 91 89 87 79 72 58 42 41 42 38 41 44 52 54 46 44 39 34 28
49 58 64 64 62 56 53 56 65 79 78 84 79 75 78 85 85 79 84 94 98 97 97 95 94 91 85 69 50 44 44 45 46 45 45 52 55 54 52 46 38 33 33
56 59 58 57 55 55 53 59 65 68 74 71 69 81 84 90 96 85 97 97 97 96 94 91 87 78 61 49 42 45 47 45 49 50 52 57 57 55 53 47 41 34 35
53 53 52 52 53 60 61 63 63 64 65 66 78 83 82 90 91 90 92 92 92 92 90 81 64 45 36 35 36 43 48 51 55 56 59 60 57 56 53 50 39 37 39
52 51 50 48 46 48 50 54 57 62 64 75 71 76 85 85 83 89 89 89 87 83 64 46 39 33 29 32 35 41 46 55 60 63 65 63 60 57 56 50 43 43 42
40 39 39 38 41 47 52 57 60 64 64 72 77 83 89 89 88 88 85 78 68 45 36 31 31 34 37 39 43 47 52 55 59 65 64 61 58 59 58 50 49 50 47
37 36 39 44 48 51 53 56 60 65 71 74 79 85 86 85 79 70 58 42 34 31 30 30 30 34 43 48 48 55 57 57 57 57 59 60 63 66 61 57 57 57 53
38 41 43 44 47 51 54 60 65 69 71 76 77 74 67 55 45 38 34 32 32 31 32 32 34 37 41 45 53 56 55 59 68 61 62 63 64 64 64 60 60 62 57
40 43 46 51 57 61 65 66 65 63 60 57 51 48 45 37 34 31 32 32 35 36 36 35 37 37 41 46 52 57 58 55 64 71 59 69 73 72 70 70 68 67 61
46 50 54 58 62 62 57 53 53 51 44 44 40 39 39 38 34 33 35 37 40 40 42 41 43 44 40 45 48 54 53 56 66 70 75 80 79 78 78 81 80 70 64
54 57 57 53 50 50 47 44 43 46 45 46 43 42 42 41 41 40 39 39 41 41 36 34 43 45 47 45 48 45 54 66 70 76 78 75 83 88 89 90 86 74 66
55 54 52 50 47 44 46 47 50 48 48 46 43 43 41 40 37 33 31 31 27 24 26 25 28 40 46 55 54 62 73 76 71 77 76 70 86 93 94 93 91 75 67
57 53 48 46 48 47 48 44 45 45 44 42 41 39 37 37 36 33 27 24 19 16 20 27 28 29 31 48 59 63 80 75 66 72 74 74 85 90 97 97 95 78 69
55 50 49 47 47 46 45 44 43 42 36 32 32 32 36 35 30 26 23 19 16 14 15 16 18 26 41 46 49 65 78 69 70 76 76 80 85 91 98 99 95 78 72
54 51 49 49 47 47 48 49 43 36 33 30 29 28 27 25 22 18 15 13 14 16 17 23 25 27 38 58 67 86 80 71 68 73 75 84 88 95 100 99 92 78 74
53 52 52 50 49 48 46 43 44 41 34 33 30 28 25 21 15 12 12 12 18 21 31 33 43 53 62 74 73 80 79 72 68 76 79 83 90 99 99 99 90 79 76
59 58 54 53 49 46 42 39 39 37 37 38 36 27 22 16 14 13 14 15 22 25 33 42 45 50 51 60 74 74 67 70 79 83 80 79 85 98 99 98 89 80 78
64 60 56 52 48 44 41 38 37 36 38 36 34 30 21 15 15 17 18 25 25 26 29 39 50 57 54 60 74 78 79 81 87 87 84 77 88 99 99 98 89 81 82
64 62 58 53 48 44 41 39 38 37 35 35 33 27 18 16 20 25 27 28 29 30 31 32 44 58 65 66 72 75 81 86 89 86 82 82 94 99 99 98 90 83 83
64 62 58 52 49 46 43 41 39 35 32 31 31 25 20 19 26 27 28 29 31 33 35 36 37 45 66 71 78 81 89 89 89 88 84 86 98 99 99 98 91 85 85
65 61 57 53 51 47 45 42 39 35 30 30 30 25 21 25 29 30 30 29 30 35 38 40 41 40 45 69 78 82 88 90 90 89 85 92 99 99 99 98 93 88 84
65 62 60 57 54 52 48 44 40 33 31 31 29 27 27 30 30 31 31 30 31 31 39 44 44 42 43 44 64 82 89 90 91 90 85 94 99 99 99 99 96 88 87
67 66 64 61 59 55 50 44 39 35 33 31 30 32 33 32 32 32 32 31 28 31 35 39 45 47 47 45 43 59 89 95 94 90 87 96 99 99 99 99 96 92 91
72 71 68 66 62 55 48 47 42 37 35 33 34 34 34 34 34 34 34 32 31 33 37 40 44 51 54 52 53 53 74 96 99 93 89 97 99 99 99 99 98 96 98
78 73 69 65 61 55 52 49 44 40 36 35 36 36 36 36 36 37 38 41 45 43 42 44 49 55 63 63 65 66 66 93 99 96 95 96 99 99 99 99 99 99 99

GFSGL_prec_cthk_045.txt.gz
RH
61 66 65 63 58 56 58 73 70 69 68 74 81 83 84 89 93 86 76 74 77 84 86 91 94 95 94 93 91 90 79 70 57 43 47 46 47 49 51 52 51 49 47
57 53 59 63 65 57 69 64 63 60 56 58 64 77 80 79 94 78 73 80 87 97 97 94 93 92 91 88 86 78 64 53 47 41 42 48 50 53 56 59 54 54 50
59 58 57 57 63 65 62 60 60 59 59 62 67 72 70 75 74 70 80 90 93 97 97 92 90 88 86 82 73 62 50 49 51 51 47 51 55 58 61 62 60 56 51
54 58 60 57 61 64 63 60 64 63 62 68 70 72 79 76 71 81 87 91 86 88 89 86 85 79 73 64 53 49 49 47 55 53 54 56 61 63 64 60 58 57 53
58 61 62 63 62 61 59 57 61 63 65 65 73 74 73 73 81 79 83 83 87 92 84 79 72 63 49 41 40 40 45 46 52 59 61 64 62 67 65 64 61 57 51
64 64 62 60 56 58 57 51 49 50 53 57 63 65 69 73 73 82 84 87 88 79 71 62 53 42 40 40 39 39 41 45 48 54 58 64 66 67 66 64 64 61 54
60 59 55 49 45 44 42 43 48 51 53 55 62 67 69 74 76 77 77 72 67 59 51 43 41 41 41 42 45 50 45 45 50 52 60 62 67 66 67 65 67 68 60
49 46 43 41 39 40 44 45 45 47 51 55 61 64 67 68 66 61 56 51 44 41 40 41 44 44 45 46 46 47 52 54 55 57 59 54 59 70 69 74 73 70 65
40 38 36 36 38 40 42 44 48 53 57 58 58 56 54 50 44 44 40 39 41 40 39 41 46 46 44 42 42 40 39 42 58 78 67 61 59 62 74 81 80 77 67
34 33 35 38 41 46 49 51 53 52 48 47 48 47 45 45 44 44 42 41 41 40 40 40 43 42 39 40 41 39 38 37 48 65 81 80 74 72 81 83 90 81 80
36 39 41 45 47 49 51 50 49 46 45 47 43 45 44 44 45 44 43 41 39 36 34 33 31 31 34 34 41 46 53 49 44 50 66 78 73 78 81 75 86 85 86
41 45 47 47 47 49 49 47 46 47 48 47 46 46 47 47 48 42 38 34 32 30 27 26 25 22 22 21 24 32 47 62 65 55 61 75 88 84 84 80 79 88 87
47 48 49 51 52 51 49 49 49 48 46 46 46 46 44 42 39 37 35 32 27 24 20 15 11 9 9 14 17 24 34 51 60 81 83 88 88 80 80 78 88 93 94
52 55 56 55 53 51 50 48 48 49 47 47 47 45 41 40 38 33 27 26 24 20 16 12 9 10 11 16 19 30 48 41 47 71 77 86 85 80 80 81 90 92 96
59 60 59 55 54 54 52 51 48 47 44 40 37 34 33 32 32 29 28 27 22 17 14 14 23 30 37 40 36 40 58 67 60 68 81 77 77 74 80 89 91 96 98
63 63 61 58 56 55 55 55 53 49 44 40 37 34 33 32 31 30 28 23 18 14 15 28 26 30 31 35 48 61 73 71 84 89 83 78 76 81 85 91 95 98 99
66 59 58 58 62 61 58 59 54 54 47 42 40 38 36 35 32 30 25 19 16 20 24 31 31 30 32 37 41 52 69 83 79 77 72 73 74 83 88 91 97 99 99
63 62 66 70 67 64 63 57 57 55 50 49 48 46 42 36 32 27 22 17 24 25 28 33 32 30 32 38 45 46 50 69 82 75 75 76 83 89 91 84 95 99 99
69 71 70 68 64 61 58 56 54 54 55 53 52 50 48 37 30 28 27 26 25 25 29 30 34 35 30 35 46 55 62 80 81 84 86 86 86 88 86 85 98 99 99
80 74 72 69 67 66 62 58 59 58 58 57 56 53 48 34 29 32 30 28 28 28 28 30 32 34 34 32 38 58 67 78 85 82 90 88 88 90 84 92 99 99 98
82 77 75 74 70 65 62 61 60 61 61 61 58 53 43 35 36 34 32 31 30 29 29 31 33 36 37 37 36 42 69 77 82 90 90 88 91 88 86 95 99 99 99
79 79 76 72 68 66 63 63 63 65 65 64 59 52 47 44 40 35 33 32 31 31 31 32 33 33 38 42 42 40 47 74 86 90 91 92 90 88 91 99 99 99 99
79 76 74 73 69 68 70 72 72 72 70 66 59 54 51 47 41 35 34 33 33 34 34 33 33 34 37 43 48 46 43 48 70 90 91 91 94 89 96 99 99 99 99
76 76 76 75 77 75 80 78 76 73 69 65 60 56 53 48 40 37 36 37 38 39 41 41 39 39 40 44 49 51 49 46 48 70 91 94 95 91 98 99 99 99 99
82 85 85 84 87 86 84 79 75 71 67 64 61 57 53 45 39 39 40 41 41 42 44 44 47 48 46 47 52 56 57 55 53 53 84 96 96 93 99 99 99 99 99
90 92 90 91 89 88 81 74 72 68 64 62 58 55 48 42 42 43 44 44 43 44 45 51 53 56 58 55 58 63 68 66 65 62 81 98 97 94 99 99 99 99 99

GFSGL_prec_cthk_048.txt.gz
RH
65 64 69 75 73 69 66 68 62 72 70 61 62 60 59 58 63 68 74 72 73 76 79 77 84 97 93 88 82 82 79 74 66 57 56 51 45 46 49 52 53 50 44
72 73 78 76 69 65 72 71 73 71 63 62 61 63 62 64 71 76 73 73 74 70 77 80 84 91 88 88 85 78 72 68 63 53 49 43 41 43 46 49 50 51 49
71 70 74 69 65 63 67 74 65 66 66 62 56 61 64 66 71 72 82 79 68 70 84 82 86 89 85 86 76 72 66 62 59 61 50 46 47 53 51 51 51 51 52
61 60 62 60 66 64 61 64 68 69 65 60 59 62 62 63 62 73 68 73 73 77 81 81 86 84 76 68 63 56 55 57 64 62 62 52 53 54 59 59 59 57 55
64 60 55 62 65 68 70 69 65 60 58 60 59 55 56 62 68 70 68 72 76 79 77 79 74 65 59 52 49 46 48 49 50 57 54 55 53 57 64 70 71 65 63
52 59 64 64 66 66 60 58 59 58 50 47 50 56 57 58 65 69 72 76 76 74 67 61 54 48 42 44 46 45 44 44 45 46 41 46 52 62 70 78 78 70 64
63 68 68 66 64 61 57 49 45 41 43 47 49 53 58 61 67 69 70 70 65 58 51 45 41 41 42 40 40 42 42 43 45 47 50 48 53 58 71 75 81 79 69
67 66 65 61 53 47 44 41 40 42 44 46 50 55 60 62 63 62 57 49 44 38 40 43 43 40 39 43 44 42 39 36 34 38 44 52 61 67 77 80 78 75 76
58 56 53 48 42 40 36 38 40 42 47 50 56 58 56 52 49 47 44 41 39 39 39 37 36 35 35 38 38 36 32 28 28 31 38 44 56 69 80 86 88 86 70
49 48 44 39 35 36 39 43 46 49 49 49 49 49 48 47 47 45 44 43 41 37 34 32 30 28 27 26 26 28 30 28 30 42 44 53 43 59 79 89 92 88 89
43 39 36 36 38 42 43 44 46 48 50 48 47 46 48 47 46 45 45 40 35 32 30 28 27 24 21 18 15 16 16 17 18 20 28 61 63 69 57 78 93 91 89
38 36 37 39 42 44 45 46 45 47 49 51 52 52 52 52 51 46 40 35 33 30 27 27 25 22 18 14 14 11 9 12 16 20 26 29 44 78 84 88 91 91 84
38 39 40 42 45 48 50 49 50 52 54 55 53 50 52 52 47 41 37 35 31 29 28 26 24 20 16 18 19 25 30 33 33 42 47 46 44 75 90 85 93 87 80
41 44 46 49 53 55 54 52 55 56 55 54 52 52 52 48 43 38 36 34 32 31 30 27 24 20 21 19 20 25 37 43 47 49 56 52 54 64 75 88 88 78 85
48 51 56 60 60 58 58 55 55 56 56 54 54 51 49 46 42 40 38 36 34 33 30 27 24 25 19 18 18 23 27 40 53 62 64 72 81 79 80 80 72 81 85
61 67 68 66 67 64 63 61 61 62 62 59 55 51 48 46 44 42 41 40 37 35 33 30 26 22 21 21 22 25 30 31 49 57 81 80 79 81 82 81 78 84 90
75 76 75 73 70 66 66 67 70 69 67 61 56 53 50 49 46 47 46 43 41 42 37 30 25 24 24 24 26 28 31 39 43 64 77 85 83 84 86 86 83 89 88
78 75 76 73 69 67 72 75 71 70 68 67 65 64 62 56 52 50 48 46 45 38 34 31 28 27 27 28 28 29 31 39 47 54 73 90 88 86 83 83 90 94 85
78 82 78 72 76 80 77 73 71 71 71 70 68 66 65 64 58 52 57 54 49 43 39 35 30 29 28 30 32 34 33 34 50 61 87 90 90 89 89 89 91 94 88
84 84 89 90 86 81 77 79 78 75 71 68 69 70 68 64 60 57 62 57 50 47 44 37 31 30 31 32 33 36 35 33 41 66 83 90 91 85 89 91 93 93 92
97 96 91 85 84 87 84 78 73 70 69 70 72 73 73 70 66 66 61 55 53 50 46 38 33 33 34 34 35 36 38 38 37 54 80 90 92 88 86 90 92 92 96
95 89 89 89 87 81 75 73 72 73 75 78 79 78 76 74 71 63 59 57 54 49 44 36 37 39 40 38 38 36 38 44 44 42 60 82 91 91 95 94 93 94 98
95 90 87 81 79 79 79 80 81 84 86 83 80 79 78 74 66 62 60 57 52 47 40 41 44 46 45 45 43 40 41 46 50 49 44 62 85 92 95 97 95 96 99
88 86 83 84 85 86 86 89 85 87 88 87 83 77 72 69 65 62 56 51 47 43 43 46 47 48 47 49 50 49 48 51 55 56 52 48 66 88 95 96 97 98 99
92 94 95 93 94 95 95 95 92 87 84 77 69 67 64 59 56 54 49 47 45 44 46 49 51 51 54 55 56 58 57 57 61 63 61 55 50 76 94 97 98 98 99
97 96 96 95 96 95 90 83 79 73 66 63 60 56 55 52 49 45 44 45 45 44 47 50 54 58 60 60 62 64 65 65 66 71 69 64 59 60 93 99 98 99 99

GFSGL_prec_cthk_051.txt.gz
RH
71 67 70 71 76 74 87 78 74 77 78 72 76 68 67 65 61 61 65 74 78 68 85 75 81 76 78 84 86 84 86 86 73 60 56 54 54 51 48 46 47 51 51
56 68 80 78 91 78 94 78 71 76 82 76 68 66 68 63 61 64 72 64 66 79 90 87 79 79 79 82 81 81 79 72 63 52 53 54 54 54 55 53 49 50 51
68 89 85 88 85 76 67 64 64 70 68 68 68 66 62 60 62 63 65 69 61 74 76 73 76 79 81 78 77 68 60 60 59 58 49 51 53 60 59 66 59 56 62
71 65 59 60 64 56 58 59 65 69 71 67 67 62 59 62 61 57 60 66 66 75 75 76 81 81 75 66 51 48 49 49 50 50 51 48 52 52 58 55 62 64 63
51 43 43 51 51 53 60 63 66 68 69 64 59 59 58 55 54 59 64 66 72 71 75 79 76 67 50 44 44 45 48 48 47 46 46 45 41 40 44 49 56 72 75
36 43 43 45 54 58 63 67 70 68 62 60 56 49 50 54 57 62 63 66 71 75 73 67 54 47 40 40 41 44 47 46 46 46 44 46 41 40 41 52 75 86 87
40 42 46 52 62 64 65 66 65 59 50 46 45 48 50 53 56 60 63 68 67 63 51 48 43 42 43 40 37 36 38 40 41 41 39 37 38 37 44 53 64 76 79
51 54 60 63 63 64 62 57 49 43 41 40 42 45 47 50 54 59 62 57 50 47 42 40 44 43 41 37 34 33 33 32 31 33 36 34 33 30 38 46 52 68 78
54 65 70 66 65 59 52 46 41 38 37 40 43 47 51 54 56 54 50 48 45 42 45 46 42 37 34 31 29 26 24 21 18 16 13 13 18 31 35 52 50 67 69
58 59 58 57 52 50 46 41 38 39 42 46 49 50 49 47 48 49 50 49 49 49 45 39 35 34 33 32 30 27 22 20 18 13 9 7 7 8 11 34 76 77 75
43 46 45 48 48 42 37 37 40 43 46 47 47 47 47 49 53 55 56 55 52 49 43 40 38 37 35 34 32 30 30 27 25 24 20 18 15 24 22 26 53 66 87
41 44 46 43 40 37 38 40 42 47 50 51 52 52 53 55 57 60 61 56 50 46 43 42 40 39 38 36 33 30 29 30 30 29 26 27 34 38 39 37 43 71 88
46 47 44 42 40 40 42 44 47 51 53 53 54 57 58 60 61 61 59 54 49 46 44 43 42 40 38 37 36 30 25 22 21 24 30 36 45 51 51 49 61 72 87
50 49 46 44 44 45 47 49 57 61 60 62 64 62 63 63 61 60 57 53 49 47 46 45 44 43 42 40 34 27 21 17 20 22 25 35 49 59 66 64 64 71 78
53 52 51 49 49 52 58 68 71 68 68 67 65 62 61 63 62 59 56 52 50 51 50 50 48 45 43 40 35 30 20 16 17 22 29 34 54 74 76 75 80 84 82
56 58 59 60 61 68 76 77 75 71 69 67 64 67 69 65 62 58 56 57 56 55 54 54 54 53 50 45 38 30 24 19 19 23 33 41 57 75 78 78 79 83 82
64 68 71 75 80 79 78 75 73 72 70 72 76 71 67 65 65 63 62 59 59 59 59 58 57 56 53 46 38 32 27 24 24 26 36 46 58 76 84 86 85 89 86
75 80 85 86 83 81 80 80 76 82 86 82 77 78 77 75 71 69 65 64 65 63 63 62 60 57 51 43 39 33 28 27 28 29 33 51 56 79 88 86 88 84 84
87 91 89 83 81 83 82 86 89 87 83 85 89 85 80 76 74 72 69 68 71 71 68 65 64 56 48 45 39 32 29 30 33 35 33 46 63 80 88 90 91 88 89
95 86 90 93 95 97 97 93 88 91 92 89 83 79 78 78 77 74 72 74 76 72 69 67 60 53 48 41 35 31 31 33 35 39 38 35 63 86 91 94 93 85 86
95 97 97 97 97 97 97 97 96 89 82 80 82 81 81 84 85 82 79 78 76 74 69 60 55 50 44 38 36 37 38 38 40 41 40 37 48 80 91 95 93 92 89
97 97 97 97 97 97 93 89 87 87 86 83 85 89 91 89 87 86 80 74 71 62 55 50 47 42 38 38 38 40 44 47 44 43 43 44 41 66 89 94 95 96 94
96 97 97 97 95 91 91 91 91 90 92 95 94 89 89 89 85 76 69 62 58 52 50 46 39 36 36 39 42 45 49 51 51 46 45 48 48 47 75 89 94 96 97
97 97 97 96 96 96 97 96 97 96 96 97 96 91 84 75 66 57 55 52 48 46 41 38 35 35 38 41 46 51 55 57 57 53 52 53 54 51 50 78 89 95 98
97 97 97 97 97 98 98 98 98 97 91 82 73 66 58 53 51 49 46 44 41 37 37 36 36 38 41 47 53 59 62 62 62 61 59 59 60 59 52 56 83 95 98
97 98 98 97 96 93 87 78 67 59 53 48 44 42 40 38 38 38 38 38 38 39 40 37 39 44 50 56 62 67 68 67 69 70 67 65 66 66 61 54 75 95 98

GFSGL_prec_cthk_054.txt.gz
RH
75 66 70 74 78 79 79 71 81 92 91 91 87 80 78 71 66 65 62 57 60 65 66 61 66 71 88 93 84 79 73 77 71 64 62 55 51 49 50 54 53 50 49
67 69 59 72 84 89 93 94 86 70 81 93 88 86 76 69 70 63 61 59 64 60 62 61 64 68 86 84 73 72 73 72 65 56 48 44 44 46 47 53 57 57 57
67 74 62 69 66 85 83 74 73 68 68 78 77 74 73 69 63 60 58 60 67 59 65 63 63 71 77 76 75 73 69 58 47 45 42 43 44 47 44 46 46 50 47
56 61 59 60 58 68 70 66 62 65 68 71 69 69 70 62 57 60 60 60 61 60 59 71 67 79 77 75 74 62 48 43 41 43 42 41 43 42 45 44 42 43 41
41 48 56 54 60 66 68 65 65 65 68 69 71 70 60 58 59 59 59 58 55 59 66 69 76 76 76 70 56 45 42 42 41 41 42 42 40 40 41 40 42 42 36
37 45 51 53 62 68 63 67 70 71 73 73 67 62 59 59 53 52 51 54 58 65 68 70 75 75 61 48 43 45 46 44 44 46 48 47 43 45 43 42 43 42 38
48 51 50 54 55 59 65 73 72 71 72 67 66 62 56 48 47 50 55 57 60 64 69 71 63 52 51 47 47 46 45 46 48 46 44 43 39 37 38 35 37 38 38
44 49 52 54 58 61 65 73 75 74 69 64 55 48 45 48 51 54 55 60 64 65 61 54 55 54 50 48 44 44 42 40 38 36 33 29 25 21 17 16 17 16 30
42 50 56 59 57 61 64 66 69 61 52 50 46 43 44 46 48 52 56 62 59 53 53 54 54 54 51 49 45 42 42 40 38 37 35 33 30 25 26 22 15 20 20
46 50 55 62 69 66 67 66 54 51 49 42 39 42 45 48 53 56 56 53 55 55 56 59 58 53 48 46 45 44 42 42 40 39 36 32 28 26 27 33 35 33 31
48 47 48 53 59 60 54 52 51 46 40 39 42 47 51 54 55 54 55 59 61 62 62 58 52 50 51 49 48 45 46 44 42 38 33 29 26 26 25 29 38 44 40
44 47 50 49 45 45 49 50 46 41 41 45 48 51 54 55 57 59 62 64 66 63 56 52 52 55 53 50 49 50 49 45 42 39 36 31 25 19 20 30 40 47 48
45 45 42 43 46 49 49 48 47 46 48 50 53 54 55 57 65 67 70 69 64 57 56 59 56 54 52 53 54 53 50 48 46 43 38 34 27 20 18 32 44 55 52
45 45 46 48 50 51 52 52 52 53 55 58 61 62 68 72 72 70 67 65 60 66 65 59 55 57 58 58 58 55 53 52 50 45 40 33 24 26 25 44 56 62 64
51 51 53 55 57 57 60 63 63 65 66 65 70 79 77 73 70 68 70 74 69 64 59 58 61 62 61 61 59 58 58 55 52 48 38 27 24 29 31 52 69 74 71
56 59 61 63 65 66 66 70 74 78 81 82 82 79 76 75 77 82 75 71 66 67 66 67 67 67 67 64 64 63 60 57 53 44 34 26 25 31 35 46 71 80 75
70 68 68 71 73 76 79 82 84 85 82 82 77 76 73 84 81 73 70 74 73 72 70 70 71 70 71 71 67 64 61 56 46 37 30 26 26 33 43 48 70 80 85
87 85 85 85 86 87 87 86 85 88 87 86 90 94 92 87 84 88 85 81 74 73 77 77 79 80 74 71 68 64 57 44 37 31 26 27 30 33 45 57 76 85 87
92 92 93 94 94 94 96 96 95 95 96 97 96 96 97 97 94 90 89 86 82 83 85 84 82 78 75 71 65 54 43 39 33 28 27 29 35 36 40 62 74 89 87
97 97 97 97 96 96 96 96 96 96 96 97 97 97 97 95 94 90 86 85 89 88 87 86 82 77 70 62 50 45 39 35 31 30 31 35 37 41 40 59 81 90 91
97 96 96 97 96 96 96 96 97 97 97 97 97 97 97 97 93 94 97 95 95 92 88 82 75 68 58 48 41 36 33 30 31 33 37 40 40 44 43 46 82 90 99
97 97 96 95 92 93 94 96 97 97 97 97 98 98 98 98 98 98 98 98 93 86 75 64 57 52 45 40 37 33 31 32 36 38 41 45 45 47 47 44 72 92 99
93 91 95 97 97 97 97 97 97 97 98 98 98 98 98 98 98 98 91 81 70 60 55 53 48 42 36 33 32 33 35 38 42 45 49 51 53 50 51 50 59 82 99
97 96 96 97 97 97 98 98 98 98 98 98 99 99 97 90 79 66 57 52 48 45 43 40 37 34 33 35 36 39 43 46 51 54 57 59 58 54 56 56 54 71 92
97 97 97 98 97 98 98 98 98 97 91 82 74 63 50 44 43 41 40 39 38 39 39 38 37 36 36 38 42 46 50 56 60 63 66 64 63 62 62 62 59 62 77
97 97 96 93 89 81 71 62 54 47 41 36 35 35 35 36 37 38 39 39 40 40 40 41 41 40 39 45 50 53 62 65 70 73 70 70 71 70 68 68 65 58 66

GFSGL_prec_cthk_057.txt.gz
RH
59 58 61 59 59 66 65 70 73 76 82 92 92 87 86 88 89 88 81 72 69 66 60 63 65 59 68 61 60 62 66 77 81 72 68 67 60 50 47 46 46 47 46
68 72 75 78 72 74 77 79 84 84 79 87 92 87 85 89 89 89 80 76 70 66 62 63 58 62 69 67 62 62 69 74 72 68 66 53 43 43 44 44 44 46 48
56 70 72 74 77 71 64 73 92 78 70 70 78 79 88 89 83 85 78 72 65 62 65 61 69 67 59 60 63 66 77 78 74 67 51 45 47 47 43 43 43 42 43
36 49 53 55 67 68 67 65 85 83 72 64 67 78 81 80 81 79 75 68 66 65 61 58 66 63 61 62 70 72 75 72 61 48 46 46 45 44 45 45 42 42 40
30 34 38 45 54 68 62 63 68 78 68 70 71 77 80 77 73 71 68 62 62 57 61 59 61 61 61 71 75 74 74 58 48 48 48 46 46 45 46 47 45 40 36
30 33 35 42 53 63 68 64 70 67 70 73 72 74 75 74 70 68 64 61 56 58 56 60 60 62 73 78 74 78 58 50 52 50 48 47 48 48 44 39 35 33 28
26 32 36 44 54 64 66 71 73 71 75 74 74 77 78 78 76 70 63 55 54 57 56 60 63 72 79 79 72 58 55 56 52 49 46 46 45 44 41 40 38 36 32
28 35 42 45 52 55 58 61 61 67 70 79 85 83 86 79 70 60 53 52 54 57 61 65 71 79 81 64 58 56 56 52 45 43 45 46 46 47 48 47 44 41 35
31 44 48 44 47 54 59 65 67 72 80 87 83 82 68 61 55 49 50 54 58 62 68 74 79 72 64 59 58 55 50 49 52 52 51 49 49 49 51 52 49 50 40
33 38 45 46 48 54 58 61 70 78 80 81 75 64 60 56 50 51 55 59 62 66 69 66 60 63 64 63 55 50 50 55 54 51 50 52 51 49 49 49 51 50 49
35 40 44 51 52 54 57 63 69 75 72 62 59 61 60 56 54 56 59 63 65 61 58 65 67 67 60 54 50 52 58 54 53 53 55 56 53 52 51 50 48 45 43
44 46 50 50 53 58 63 67 66 59 57 59 61 59 58 56 58 62 65 65 61 62 71 72 67 59 56 54 59 63 58 56 57 58 58 56 55 55 53 50 45 38 29
51 55 57 58 61 64 64 59 58 60 61 61 62 64 64 65 65 67 66 65 66 75 74 67 60 56 58 69 71 61 58 65 61 62 62 59 61 58 54 47 41 30 33
54 56 58 61 65 63 60 59 61 63 65 67 69 70 70 69 68 67 69 73 76 75 66 60 70 79 78 68 61 62 67 65 69 66 65 65 62 57 51 46 34 24 37
66 65 65 65 64 64 64 65 66 68 69 70 72 73 73 73 75 80 79 77 73 71 80 84 80 71 67 67 69 72 72 73 71 73 69 65 61 55 44 33 26 27 40
74 78 78 77 78 79 76 74 75 77 81 83 87 88 89 89 89 82 80 79 92 89 80 73 72 78 80 77 75 78 80 79 77 73 68 65 57 46 34 25 26 34 40
85 85 89 89 90 93 94 94 92 94 95 96 96 97 95 89 88 87 86 91 86 79 79 83 82 78 75 84 89 88 82 81 76 71 67 56 45 34 27 24 25 37 46
88 94 96 98 98 97 96 97 97 97 97 96 93 92 92 92 93 95 96 97 97 96 91 85 88 97 97 94 92 87 83 78 73 67 56 42 34 28 24 25 27 36 54
91 95 98 98 97 97 97 96 97 97 97 97 97 97 97 97 97 97 97 97 97 97 97 98 98 98 97 94 89 85 80 73 64 51 38 35 31 27 27 30 34 36 57
98 97 97 97 92 92 92 94 96 96 96 96 96 97 97 97 98 98 98 98 98 98 98 98 98 98 96 90 85 76 63 54 42 36 32 30 29 30 32 34 40 38 56
97 92 89 89 87 93 96 97 96 96 97 96 94 97 97 98 98 98 98 98 98 98 98 98 98 95 88 77 67 55 43 37 33 31 30 30 33 36 38 38 43 44 51
83 88 88 88 87 87 90 93 92 94 96 97 98 98 98 98 98 98 98 98 98 98 98 94 88 79 68 55 43 37 33 31 32 33 34 37 40 43 44 46 46 51 49
96 96 91 90 91 95 96 97 97 97 97 97 98 98 98 98 99 99 98 97 91 82 73 63 51 43 40 37 34 32 31 33 36 39 41 45 46 51 53 54 55 56 51
96 96 95 94 96 97 98 98 97 97 98 98 98 98 96 90 79 70 61 52 44 39 36 35 36 36 36 36 36 36 37 40 43 46 49 52 56 60 61 63 63 60 57
94 97 97 97 97 97 96 94 89 81 70 59 52 47 43 39 35 33 33 33 34 35 36 38 39 39 39 38 39 41 43 46 51 54 57 63 67 71 71 69 66 64 64
88 84 79 71 60 51 45 42 39 36 35 32 29 27 28 29 30 31 33 34 36 38 39 40 40 40 41 42 43 45 50 55 59 65 69 74 78 78 74 73 72 69 69

GFSGL_prec_cthk_060.txt.gz
RH
49 49 50 50 56 55 54 54 69 71 73 81 86 90 92 90 90 92 94 92 90 90 84 81 76 71 62 64 57 57 57 63 59 59 62 72 75 74 62 45 44 45 45
60 62 61 64 62 69 69 65 69 73 78 80 83 86 95 92 87 89 88 92 94 92 92 84 78 70 61 60 56 61 63 56 59 63 69 73 76 62 48 44 44 44 46
53 54 55 59 62 63 70 69 68 67 75 84 89 84 83 89 90 89 90 98 95 89 82 76 73 64 62 62 57 68 67 64 65 69 73 75 61 51 46 45 44 43 43
37 39 38 41 48 52 62 73 75 73 72 84 75 73 73 73 87 88 86 87 86 82 76 74 69 66 63 57 62 63 65 67 70 77 74 61 54 49 46 43 42 42 45
31 31 27 30 37 44 47 59 74 80 69 74 88 81 72 75 76 83 85 86 75 73 70 69 69 67 59 63 71 62 72 70 79 81 68 60 52 48 46 45 44 45 44
28 26 26 26 35 40 48 55 68 74 75 73 76 80 76 76 77 78 81 75 74 74 72 71 64 62 61 69 65 67 72 80 84 74 63 55 51 48 48 49 51 47 48
34 29 29 25 30 36 45 53 60 71 75 77 79 76 78 80 78 84 85 86 85 80 74 66 63 63 64 65 66 72 79 85 79 66 58 52 48 49 55 55 53 53 50
38 34 32 26 33 41 46 53 62 68 73 79 76 78 80 80 84 88 88 86 77 75 69 62 59 60 61 66 72 78 84 79 67 59 52 51 51 61 57 53 56 51 50
42 40 39 29 39 47 53 52 58 65 71 77 75 76 80 86 93 95 96 82 76 72 62 59 60 62 66 72 78 82 77 66 59 54 54 52 63 58 56 55 57 55 51
47 43 43 38 40 45 52 52 59 63 66 71 75 75 80 85 89 92 76 69 70 68 64 62 64 67 72 78 78 68 65 58 55 54 54 62 61 59 61 66 65 63 64
49 46 53 47 47 47 49 52 55 57 60 65 70 75 82 85 89 69 67 69 71 71 69 68 71 75 75 70 65 59 61 57 54 59 68 70 65 65 67 67 67 68 64
52 54 60 57 52 54 56 57 59 59 61 66 71 74 79 74 66 67 71 75 77 77 77 79 77 74 68 63 59 64 63 65 72 76 70 64 69 71 70 70 70 66 66
62 64 63 60 60 57 58 57 59 66 71 74 75 70 69 71 76 78 79 80 81 84 83 77 74 70 65 60 67 75 77 80 78 69 69 74 75 76 76 73 68 62 59
76 74 71 69 67 68 69 71 77 78 79 78 76 75 76 79 80 82 84 85 85 86 86 83 73 66 71 83 87 86 82 76 73 76 78 82 83 78 75 71 64 60 54
73 72 73 75 77 79 81 87 90 89 87 85 85 86 87 88 88 91 95 96 96 92 85 76 80 89 92 88 83 79 85 87 82 87 88 85 83 77 73 65 61 55 44
83 81 82 85 86 86 85 86 92 94 95 96 96 97 98 98 98 97 97 96 96 87 87 91 95 90 85 83 91 90 87 90 92 89 89 85 79 74 67 63 55 43 32
87 88 88 89 90 90 93 97 98 98 98 97 97 97 97 97 97 97 96 94 94 96 97 96 94 94 96 95 94 97 97 95 94 91 88 81 76 69 63 52 42 30 21
97 96 98 95 93 95 96 98 97 97 97 96 96 97 97 96 96 96 96 96 97 97 97 97 97 97 98 98 98 98 98 98 95 90 82 76 70 61 51 39 27 22 22
95 96 97 95 94 97 98 97 97 93 93 94 96 95 96 95 96 96 96 96 96 97 97 98 98 98 98 98 98 98 98 95 87 81 75 66 57 45 32 28 26 27 27
94 91 93 93 93 94 94 93 93 92 94 95 93 89 90 93 94 96 97 98 98 98 98 98 98 98 98 99 99 98 92 85 76 67 56 44 34 31 30 29 30 30 31
95 88 88 89 81 84 88 89 91 92 93 95 91 91 91 92 93 96 97 98 98 98 99 99 99 99 99 97 89 81 70 59 46 36 33 32 34 34 35 36 37 40 38
81 85 86 87 92 95 96 92 95 97 97 97 97 97 96 98 98 98 98 99 99 99 98 93 84 73 63 54 45 38 35 33 33 34 35 37 38 40 42 44 44 46 47
95 96 96 96 97 97 97 97 96 97 97 97 97 98 98 98 98 94 85 72 61 52 47 43 39 36 35 35 37 37 35 35 36 39 41 44 45 48 50 51 53 53 56
91 90 91 94 97 97 96 94 95 96 94 88 76 63 54 48 45 41 38 36 34 32 30 29 30 31 33 35 37 38 39 39 42 45 49 51 54 57 59 59 61 62 63
95 94 93 88 81 73 64 56 50 46 43 41 39 35 33 33 32 29 27 27 28 29 31 33 34 36 37 38 40 42 44 46 50 53 55 58 61 65 67 69 71 73 72
53 49 45 42 39 38 36 34 32 30 29 27 25 23 23 24 25 27 28 29 31 32 33 35 37 39 41 43 45 47 50 53 57 61 62 67 71 75 77 81 82 79 75

GFSGL_prec_cthk_063.txt.gz
RH
42 44 45 48 51 53 54 58 56 58 58 58 60 61 62 61 63 67 76 91 94 92 93 95 96 94 91 87 85 76 67 63 63 61 65 65 69 67 70 75 74 61 50
49 52 53 51 53 59 60 63 63 61 64 66 70 71 70 75 83 92 92 92 95 95 97 95 95 97 91 90 80 76 70 61 60 65 66 68 64 64 71 71 58 51 46
48 48 49 52 51 53 60 59 66 68 62 64 68 66 77 81 89 92 94 93 98 95 96 90 93 94 92 82 81 76 71 66 58 63 62 68 72 71 64 59 55 48 45
38 38 37 37 39 41 41 50 56 66 70 73 73 69 66 76 78 83 84 92 95 95 94 92 90 87 79 79 74 72 65 71 60 70 68 64 69 67 62 60 52 45 48
37 37 31 28 31 36 38 40 41 49 65 76 83 83 72 74 77 82 80 80 81 85 88 87 83 78 74 75 72 68 70 66 62 68 73 66 70 63 61 56 48 48 48
40 35 35 34 30 25 30 36 44 47 57 67 73 84 84 81 85 82 86 87 84 87 86 85 82 83 84 81 74 75 66 72 64 67 69 71 69 65 61 52 48 48 55
42 43 42 39 36 33 29 33 35 40 47 55 66 81 82 86 86 87 82 82 82 78 83 86 85 88 84 76 78 68 65 66 66 70 73 70 67 65 56 51 51 57 61
44 43 42 44 41 36 34 33 40 48 51 55 62 71 77 79 86 86 86 88 86 85 90 92 96 93 79 84 76 75 67 66 70 74 71 68 65 57 54 53 61 66 65
47 45 45 48 47 46 40 41 45 50 57 57 60 66 71 77 83 83 83 86 90 94 96 96 95 86 78 80 78 76 73 75 77 75 70 63 56 59 61 65 70 70 65
49 52 57 53 50 48 50 48 48 51 54 55 55 59 62 66 70 74 80 84 88 92 95 99 94 79 81 81 81 82 83 83 79 70 64 60 62 68 68 77 74 68 76
55 59 63 61 57 55 58 54 52 51 55 56 54 56 60 65 68 73 80 86 92 92 90 90 78 77 80 82 86 87 86 79 72 66 62 67 74 79 83 77 74 82 80
62 64 64 63 62 63 71 72 63 58 59 61 60 61 65 67 73 75 81 82 94 94 80 77 80 83 87 90 88 87 78 70 68 72 79 86 86 83 77 85 92 87 82
63 65 65 67 71 75 72 64 67 62 65 63 65 67 74 79 85 90 94 91 82 83 85 89 93 93 93 88 86 75 74 77 82 91 91 86 81 86 96 92 87 82 78
70 71 74 76 84 79 74 73 75 81 84 84 87 93 95 95 99 93 90 90 90 92 93 94 96 95 90 85 81 88 93 95 89 87 89 92 94 94 91 88 84 77 73
75 82 85 85 79 78 80 80 81 86 90 93 97 99 99 98 97 94 95 97 97 97 97 97 93 89 92 95 96 96 91 91 95 95 93 96 97 95 89 85 79 75 70
89 94 88 85 85 86 87 88 92 95 97 96 95 97 97 97 98 98 98 97 97 96 96 96 96 96 96 96 93 91 96 97 97 97 97 97 96 90 87 81 77 73 69
98 92 93 94 94 95 96 94 96 97 97 97 97 97 98 97 96 95 95 96 97 96 96 96 96 96 96 96 96 96 97 97 98 97 97 96 92 88 82 80 75 70 62
98 98 99 99 99 99 99 98 97 96 95 96 97 97 97 97 97 94 97 97 96 96 93 91 91 91 92 94 95 97 97 97 96 96 96 93 89 85 80 72 64 53 41
98 98 98 98 97 96 97 97 98 97 97 94 94 96 97 95 94 95 96 96 96 95 94 94 93 94 94 95 95 96 96 96 96 96 92 83 72 62 52 41 35 32 30
93 97 97 96 97 97 96 96 97 91 90 94 90 87 85 88 96 96 96 96 95 95 94 94 93 94 95 96 96 95 93 83 71 61 51 39 33 33 34 34 34 35 35
86 93 97 96 96 96 97 96 95 84 87 90 92 95 96 96 95 95 95 94 93 93 95 95 94 88 77 63 53 48 44 39 35 34 32 33 34 37 38 39 40 41 41
84 85 85 90 90 88 89 92 93 95 96 96 96 96 95 94 94 94 94 91 83 71 58 51 46 42 39 36 33 30 30 32 34 34 35 36 40 42 44 46 48 50 50
93 92 92 94 94 96 95 96 95 95 96 94 91 89 83 73 63 54 48 45 41 36 33 31 31 28 26 27 29 31 33 35 36 38 40 44 47 50 53 54 55 55 56
93 95 96 94 95 93 89 84 76 67 57 52 48 44 41 38 34 31 30 29 28 26 24 24 25 26 27 29 32 34 36 38 41 44 47 51 56 59 61 60 62 64 65
67 60 52 49 47 45 43 41 38 36 33 31 28 26 25 25 25 23 21 22 23 24 25 26 27 29 31 34 36 39 42 44 47 50 55 60 64 66 67 69 71 75 77
39 36 34 32 30 26 22 19 17 17 16 16 17 18 19 20 21 22 23 24 25 27 28 30 31 33 35 38 41 44 46 49 52 57 63 67 71 73 75 79 83 87 87

GFSGL_prec_cthk_066.txt.gz
RH
40 44 47 49 50 50 56 55 59 62 60 57 63 66 67 68 70 71 70 71 68 64 64 64 78 90 94 95 97 94 97 92 95 88 81 73 67 58 59 59 57 60 63
42 43 43 47 51 55 58 60 64 64 66 65 65 64 62 65 68 68 69 70 69 71 75 83 91 94 96 95 95 94 93 97 95 83 78 80 69 64 58 64 61 61 62
47 46 46 47 47 45 45 49 59 65 68 73 76 68 69 71 71 74 76 79 80 84 94 94 92 98 97 98 95 89 96 95 86 83 77 77 67 72 60 68 67 62 58
48 48 47 44 42 43 43 41 42 47 55 58 64 67 67 71 71 70 69 72 77 82 89 93 97 96 96 94 92 90 89 83 83 84 77 71 72 67 71 64 64 60 57
44 46 42 41 41 41 41 42 43 43 43 50 53 57 64 69 75 78 72 71 75 77 82 81 83 87 88 94 87 85 84 88 88 84 77 73 78 68 65 65 61 58 56
42 38 40 40 37 33 34 33 34 38 42 48 49 51 58 67 73 78 84 89 89 92 87 86 86 90 99 88 87 86 90 89 92 85 82 81 75 69 66 61 58 57 57
44 43 46 45 45 42 40 40 37 33 37 40 47 54 55 58 64 74 89 92 94 93 94 91 90 87 90 87 85 91 96 97 93 90 83 77 81 71 68 65 63 64 65
49 49 48 47 49 50 50 48 48 46 39 37 43 51 60 65 65 72 85 92 90 91 92 89 90 93 90 93 93 94 97 99 91 87 85 82 79 75 70 68 68 65 60
50 47 49 53 54 57 50 52 54 54 50 46 46 51 59 63 65 68 76 79 84 88 87 87 91 90 92 93 97 99 99 98 94 88 86 83 80 76 74 69 66 72 84
52 51 53 53 57 59 61 59 58 56 54 55 52 51 54 58 60 61 65 72 78 79 85 87 88 90 90 90 96 98 97 97 91 84 84 83 75 79 75 67 73 82 88
55 56 58 60 63 66 67 68 58 61 63 67 67 60 57 56 56 57 60 66 71 74 79 82 83 85 91 91 97 98 96 86 81 84 87 85 78 73 77 83 90 87 84
57 58 57 59 62 66 72 75 77 79 71 74 79 70 61 62 61 62 65 69 74 77 79 81 82 90 98 98 97 94 89 88 90 88 82 81 82 86 93 91 86 89 93
66 69 67 68 73 76 80 80 80 76 80 78 70 70 68 67 69 71 72 74 82 87 92 95 98 98 96 94 91 90 94 92 88 88 91 94 95 91 88 90 95 96 96
75 75 78 79 81 81 81 81 81 84 85 76 74 76 76 78 82 86 92 94 96 98 99 97 98 94 93 95 97 95 92 94 96 95 95 94 94 95 96 96 95 95 93
80 79 79 81 83 84 86 89 90 91 87 82 84 84 85 88 94 97 98 98 97 97 97 95 96 94 96 94 93 94 95 94 91 93 95 95 94 93 93 95 96 95 93
87 85 83 82 82 84 85 89 93 92 91 92 94 94 96 97 97 96 96 95 95 95 94 92 93 95 96 95 95 95 94 92 92 91 92 92 92 93 93 94 94 92 89
97 99 96 95 96 95 98 95 98 98 98 98 98 98 98 98 97 97 97 97 97 96 96 96 96 96 96 96 96 95 94 91 90 90 90 90 92 93 94 95 94 92 90
96 98 99 99 99 99 99 99 98 98 98 97 97 96 96 97 97 96 96 96 96 96 96 96 95 91 94 95 94 93 93 91 89 90 91 93 94 91 84 75 64 56 49
92 95 97 97 98 97 98 97 97 97 97 96 96 96 96 96 96 96 96 93 94 93 92 89 91 94 94 94 93 92 92 92 88 81 71 59 51 45 44 41 39 39 40
87 85 83 89 94 94 97 96 96 97 96 96 97 96 97 96 96 97 97 94 94 96 95 94 94 94 93 90 82 69 57 50 46 44 41 39 37 36 37 38 39 40 41
92 92 93 91 87 89 90 94 92 91 93 96 96 97 96 94 96 97 97 96 95 93 90 82 71 59 50 45 42 37 35 34 33 32 30 33 35 36 40 42 43 44 45
90 91 93 92 90 92 93 93 93 92 93 96 95 96 96 96 94 90 83 73 61 53 47 42 39 36 33 31 29 29 28 28 29 32 34 36 39 43 45 47 48 49 50
94 93 92 92 92 92 94 93 94 94 93 90 84 76 68 58 50 46 41 36 34 30 24 23 22 23 25 25 26 29 30 31 33 35 37 39 44 49 50 52 55 57 58
90 88 84 80 77 73 67 62 56 53 52 49 45 42 40 36 32 28 23 19 18 19 19 19 20 20 22 24 26 29 33 35 36 38 43 46 49 53 57 60 62 64 66
50 48 46 46 46 45 43 40 40 38 35 34 32 31 31 27 23 24 23 19 18 19 20 22 23 24 26 28 29 31 33 36 38 41 44 50 54 60 64 67 70 72 75
38 35 34 34 31 31 30 27 26 26 25 24 24 23 23 24 24 20 20 20 21 22 24 25 27 28 30 31 34 37 39 41 43 46 50 56 62 67 72 75 79 82 85

GFSGL_prec_cthk_069.txt.gz
RH
37 39 43 47 50 54 54 54 54 49 49 54 56 58 62 66 67 68 66 69 72 73 74 75 77 74 69 69 75 81 89 96 99 98 98 97 95 97 81 73 73 68 60
42 38 38 41 46 51 55 60 62 63 62 64 66 63 57 59 62 62 65 65 67 70 70 74 72 73 73 77 84 85 99 98 94 94 96 96 95 92 80 75 82 70 70
42 43 42 40 40 42 46 50 55 57 58 63 68 67 68 71 70 68 67 68 69 70 72 76 76 77 82 86 96 96 96 99 97 93 90 86 94 95 84 90 81 78 71
47 46 44 43 43 44 45 45 46 44 46 50 52 59 64 66 70 68 70 72 73 71 71 71 71 74 77 77 91 95 97 98 97 95 89 96 91 85 95 91 85 84 78
49 47 42 47 49 49 47 47 47 45 45 45 46 46 49 52 55 62 63 66 72 77 83 82 75 74 76 79 83 86 90 94 98 98 91 92 88 97 96 97 91 84 77
49 46 47 46 48 50 48 46 45 44 43 43 42 45 46 47 49 51 55 62 69 75 80 80 85 88 87 92 91 94 94 98 97 92 93 87 95 95 98 97 96 89 83
51 52 51 52 49 46 46 44 43 42 45 42 40 38 36 41 44 47 51 56 60 65 71 83 92 94 95 96 98 97 93 90 96 98 91 91 96 99 99 98 98 93 86
58 57 55 55 52 51 51 51 54 52 48 49 50 49 46 40 41 44 51 61 74 75 77 78 86 92 95 94 96 93 91 88 93 87 86 94 98 98 98 97 95 91 85
59 64 63 60 57 56 54 53 52 53 53 50 54 56 56 56 54 51 57 64 71 73 74 75 79 84 86 89 89 89 89 98 86 98 94 93 96 97 97 95 83 73 83
58 60 66 71 68 68 60 60 57 54 57 60 62 62 63 66 71 71 67 62 65 68 69 69 71 75 79 84 86 85 85 84 87 88 92 98 98 94 85 82 89 84 81
60 61 62 67 69 70 70 72 70 69 67 72 72 75 75 72 74 77 82 77 68 66 66 66 66 70 75 79 82 87 92 87 98 97 94 96 97 96 92 89 83 82 86
68 64 62 64 67 70 72 73 76 77 78 82 86 89 88 84 80 87 88 81 76 75 74 72 71 74 80 85 91 98 99 96 96 97 96 96 93 88 88 91 93 95 94
71 71 69 70 73 75 78 78 82 84 85 88 94 91 96 91 84 90 88 77 77 80 83 83 88 90 93 94 98 97 97 97 97 96 93 93 93 94 96 96 92 91 91
77 77 79 78 80 83 85 87 87 94 93 95 96 95 97 92 88 90 91 82 84 86 89 92 96 98 97 97 97 97 96 97 96 95 96 96 96 96 96 95 93 92 88
85 86 86 85 85 87 90 94 93 96 96 99 99 96 97 96 95 97 98 91 92 93 95 97 97 97 97 97 97 96 95 95 95 95 95 94 95 94 93 91 89 88 88
93 92 97 96 92 92 94 95 98 97 97 97 96 96 95 96 98 98 98 97 98 98 97 97 97 97 97 96 97 97 95 96 95 95 95 92 88 88 89 88 88 90 89
92 96 98 99 99 99 95 95 94 97 98 97 98 98 98 98 97 97 97 97 96 97 96 96 96 96 96 96 96 96 96 92 89 89 88 89 91 89 87 85 78 71 64
93 96 98 95 98 98 98 98 98 97 97 98 98 97 97 97 97 97 95 96 96 96 96 96 96 95 96 96 95 95 94 93 90 89 86 79 70 64 58 52 47 44 41
89 91 95 95 96 96 97 97 96 97 97 96 97 97 96 97 97 96 96 96 96 96 96 96 97 96 96 95 93 92 88 78 66 58 58 54 49 44 40 37 36 36 36
90 91 92 93 95 95 94 95 97 97 96 96 96 97 97 97 96 96 96 96 96 97 96 95 93 90 86 75 63 56 52 49 47 43 40 36 34 34 33 34 35 37 38
92 92 92 95 95 97 97 97 97 96 95 96 97 96 96 96 97 99 96 95 94 89 82 71 60 54 50 44 37 33 31 29 28 28 28 31 33 34 35 37 39 41 44
93 93 94 95 96 98 97 96 95 96 95 95 97 97 96 94 90 83 73 63 56 52 47 43 38 34 32 31 28 27 28 28 26 27 28 30 33 38 40 42 44 47 50
94 94 94 94 94 93 94 93 92 90 86 82 76 69 62 56 51 47 44 42 39 36 30 29 30 29 29 25 25 27 26 27 28 29 31 33 35 41 45 47 50 53 58
74 71 69 67 64 62 60 58 56 54 51 48 46 43 41 39 36 33 32 30 29 29 27 22 23 24 20 20 22 23 28 28 27 28 33 38 40 42 46 52 56 60 63
54 52 51 49 47 44 42 41 39 37 35 33 32 31 31 30 30 29 29 27 21 20 20 20 23 22 23 21 22 24 27 29 32 35 36 38 44 47 51 57 63 67 71
45 44 41 39 36 34 32 32 31 31 31 31 30 30 29 28 26 24 24 24 18 18 22 24 23 22 23 24 28 29 33 35 37 38 40 42 47 54 61 68 73 76 81

GFSGL_prec_cthk_072.txt.gz
RH
32 34 38 44 50 50 49 50 54 54 56 59 59 60 59 61 67 72 76 78 79 78 78 78 81 78 80 81 80 84 86 82 79 78 92 93 98 95 91 91 94 94 95
34 35 35 36 41 46 50 54 58 59 61 62 61 65 64 63 58 62 66 65 67 70 70 74 73 74 75 77 79 83 82 81 87 89 89 95 98 98 97 96 96 97 91
39 38 38 38 37 39 41 44 46 51 54 57 58 58 60 62 61 59 65 67 68 65 66 70 73 77 78 80 81 79 78 83 86 83 91 97 98 97 91 91 88 96 97
41 42 41 42 41 39 41 41 43 46 48 48 47 48 49 52 61 65 65 68 73 71 72 75 76 79 77 78 80 76 77 80 85 82 87 90 95 99 96 92 91 88 88
49 47 45 47 45 43 44 45 48 48 48 47 46 45 45 45 45 46 49 52 56 65 70 71 72 75 80 82 89 88 91 92 94 92 90 90 94 97 96 96 97 93 90
53 50 51 52 51 48 47 50 52 51 49 49 45 43 43 41 37 39 44 48 52 55 56 56 58 62 64 69 76 88 90 95 96 97 98 94 98 98 90 95 99 89 87
56 57 56 55 54 54 57 59 53 51 49 44 45 48 47 47 46 46 45 48 49 52 54 55 56 60 66 74 82 87 93 98 98 98 96 96 96 87 93 99 96 97 97
65 65 64 62 61 61 60 59 60 61 56 54 54 52 51 49 52 55 56 59 59 54 54 58 60 66 71 77 78 79 82 88 86 96 87 88 85 89 90 90 88 97 98
71 74 71 67 67 66 64 64 64 66 66 64 64 65 63 62 64 64 69 69 68 69 70 70 70 68 67 70 76 77 78 80 83 81 91 97 82 80 87 89 88 97 96
59 61 63 68 65 67 69 67 69 68 68 71 67 64 63 67 69 73 77 80 80 76 78 79 81 84 84 79 77 78 80 80 79 80 80 86 82 87 98 97 96 94 96
71 67 67 68 69 73 74 75 76 77 73 75 74 70 72 72 75 78 82 85 89 86 86 87 87 91 88 84 83 83 83 84 84 84 84 89 94 97 97 97 97 97 95
72 72 75 74 76 77 77 82 80 78 83 83 83 86 86 85 87 87 89 92 94 96 97 94 92 95 94 87 84 87 87 88 91 97 96 97 97 96 97 96 96 95 92
72 75 79 79 79 82 82 85 89 87 87 89 88 89 91 90 92 97 96 96 98 97 99 98 98 96 98 96 92 96 93 92 94 97 97 97 96 96 95 96 95 94 92
66 73 75 79 84 86 86 89 92 92 92 92 95 95 97 97 96 98 99 98 96 98 99 99 98 98 97 96 96 96 97 97 97 97 97 97 96 96 95 94 92 89 84
54 62 73 76 80 87 94 92 90 92 97 97 98 96 96 94 94 93 98 98 98 97 97 98 98 98 98 97 97 97 97 96 96 96 96 96 96 94 90 88 87 86 83
64 59 61 76 84 84 84 86 92 94 98 95 90 96 95 97 96 96 96 92 95 95 94 94 96 96 97 97 96 96 96 96 96 95 95 92 90 88 86 84 79 72 68
66 71 72 72 74 84 91 89 87 94 97 98 98 97 92 96 98 97 96 95 96 97 97 96 97 96 96 96 96 96 96 95 94 92 89 86 80 70 63 56 52 49 48
89 83 77 84 83 83 89 92 93 95 96 94 97 97 98 94 94 97 96 96 96 96 97 96 95 97 95 95 96 96 96 95 87 75 64 57 51 47 45 41 40 38 37
90 95 90 87 89 90 92 94 94 95 96 96 97 97 96 96 96 97 97 96 96 96 96 96 96 96 94 94 91 82 70 60 54 51 48 44 41 39 36 34 35 36 39
93 94 95 94 92 91 92 93 95 98 95 95 97 96 96 96 96 95 96 96 96 96 96 94 89 79 68 60 54 51 50 47 43 41 39 36 32 32 33 33 33 34 34
97 96 94 94 94 94 94 94 92 94 97 97 95 96 96 96 96 97 96 96 90 79 69 63 56 52 49 47 44 39 37 34 31 31 30 29 28 27 27 29 32 35 38
95 97 98 95 93 93 95 95 95 93 93 93 94 94 92 85 77 67 59 54 49 46 45 43 40 36 32 28 26 27 30 30 27 26 25 25 26 28 29 31 35 38 42
96 96 97 96 94 90 86 84 80 77 73 70 65 58 52 48 45 42 38 37 34 30 27 26 26 26 25 23 22 22 23 22 22 21 22 23 26 31 33 36 39 44 47
63 64 62 58 56 55 54 53 49 46 43 41 39 36 34 32 32 30 28 27 27 27 24 22 20 18 17 17 18 19 19 21 22 23 25 26 29 33 36 40 45 48 53
54 54 54 52 48 45 43 41 38 36 34 33 33 32 32 31 30 29 27 22 18 17 18 20 20 19 19 20 20 21 23 24 25 27 29 31 33 36 41 46 51 56 62
46 44 42 40 38 36 33 32 31 31 30 29 28 26 25 25 24 25 22 19 19 20 21 21 21 22 22 23 23 24 26 28 29 31 33 36 39 43 48 55 60 66 70

GFSGL_prec_cthk_075.txt.gz
RH
31 34 39 42 48 50 49 47 50 52 51 52 58 59 61 65 64 67 70 75 78 81 83 83 86 88 89 89 88 85 83 85 82 79 80 82 81 78 80 84 89 93 94
33 36 37 38 41 44 47 50 55 58 60 60 62 59 60 64 64 63 61 67 70 71 73 78 79 81 83 81 80 77 78 78 81 80 82 78 75 79 79 87 92 91 94
39 37 38 39 40 41 43 45 47 48 49 51 54 57 61 63 65 62 60 60 58 60 64 65 64 68 68 70 73 77 80 82 80 83 82 82 82 85 86 83 84 95 96
39 40 41 43 42 41 44 45 44 46 47 47 47 47 47 47 48 51 56 63 64 65 67 71 73 72 69 73 76 78 82 84 86 86 86 87 89 89 92 92 89 91 97
50 43 44 46 47 48 46 45 47 48 50 52 52 51 50 47 44 44 44 45 48 50 50 51 55 64 71 72 73 73 77 77 79 77 77 83 89 90 96 96 95 99 97
53 52 51 49 49 51 53 52 51 50 53 56 54 54 53 50 45 44 47 46 45 44 43 44 47 50 52 57 61 64 65 65 68 79 81 85 80 83 94 98 92 91 91
63 59 58 58 57 54 54 54 55 57 60 58 58 57 53 50 51 55 58 60 59 56 55 55 55 52 51 53 55 60 65 72 76 80 81 81 75 71 75 89 98 83 98
74 76 75 73 66 61 60 58 55 57 59 62 64 65 63 57 60 61 63 65 63 62 65 65 65 65 67 70 72 74 75 76 74 73 75 75 78 76 73 82 89 86 87
69 75 76 77 76 73 77 74 66 63 64 59 67 71 68 65 70 69 73 73 73 76 74 75 77 78 81 84 86 87 88 86 85 86 85 85 79 80 81 90 81 86 90
67 65 69 70 71 72 72 70 78 78 77 76 76 77 70 75 74 74 76 77 78 79 81 83 85 88 91 93 94 94 93 94 91 89 93 89 87 84 77 96 98 90 96
78 76 72 69 71 71 72 71 73 76 78 80 87 90 89 88 83 76 81 82 82 82 82 84 87 90 96 98 99 99 98 98 99 99 94 94 92 92 89 85 91 94 97
66 69 71 74 77 76 77 78 76 80 83 87 90 88 89 91 89 90 90 91 90 91 87 91 94 92 94 96 99 99 98 97 98 98 95 95 89 92 96 92 95 97 96
51 50 53 60 67 69 74 75 77 86 89 89 92 93 95 95 92 92 92 91 90 92 93 90 92 95 98 96 99 98 98 98 98 97 98 96 97 94 97 97 96 97 96
43 43 45 46 48 52 62 70 79 84 89 92 95 97 93 96 97 93 98 92 97 94 99 98 96 94 97 98 97 97 96 97 98 96 97 96 96 96 96 96 96 95 94
48 47 48 48 47 47 50 56 69 74 79 86 92 92 98 98 94 91 93 99 95 97 95 96 98 96 96 97 95 93 93 95 96 96 96 97 97 96 95 95 93 90 87
50 51 54 56 56 57 53 55 57 61 69 79 85 89 90 90 87 96 96 99 94 96 97 97 96 97 97 95 94 96 97 96 95 96 96 96 95 94 90 83 77 69 64
54 55 59 62 65 66 66 68 64 70 69 70 77 83 92 95 97 95 97 98 93 91 96 98 96 96 95 97 96 97 97 95 95 95 94 85 77 67 60 52 48 46 42
62 62 64 67 68 68 71 76 83 83 76 83 85 86 88 93 95 96 97 95 96 94 96 96 97 96 96 96 96 97 94 87 77 67 60 55 50 47 44 41 38 36 34
68 72 73 74 75 78 79 80 82 88 90 89 90 92 95 95 96 97 96 95 96 97 97 95 98 96 96 94 86 76 65 58 54 50 46 42 38 34 31 30 29 29 29
75 78 82 86 87 87 91 94 93 95 96 97 96 96 96 94 95 95 96 96 97 97 95 92 84 75 67 60 56 51 47 42 37 34 32 30 28 28 28 28 28 28 29
83 87 88 92 92 91 96 96 97 97 97 97 97 97 97 96 95 93 87 75 65 59 54 51 46 42 40 36 32 29 27 25 25 25 25 24 24 25 27 27 27 28 29
92 92 93 95 95 95 96 96 96 92 90 87 83 77 71 62 54 49 46 44 42 40 38 34 32 30 27 26 25 25 25 24 23 22 20 19 20 22 25 27 28 29 31
86 86 86 83 82 79 76 74 72 69 62 58 53 47 43 40 37 34 31 29 29 28 27 26 26 26 24 22 19 17 17 18 18 19 20 21 22 23 24 26 29 33 35
62 61 60 60 59 58 56 55 54 53 50 47 44 42 39 36 31 29 28 27 25 23 22 19 17 16 16 16 16 18 19 20 20 21 21 22 23 24 27 30 34 38 43
53 52 51 51 49 47 45 43 41 40 39 38 36 34 34 34 31 27 25 23 21 19 18 17 17 18 18 19 20 20 21 22 22 23 23 24 27 29 32 35 41 47 52
48 46 43 42 40 37 34 34 32 31 30 30 31 30 29 29 26 21 20 20 19 20 20 20 20 20 21 21 21 22 23 24 25 26 28 29 32 35 38 45 51 55 57

GFSGL_prec_cthk_078.txt.gz
RH
34 34 39 45 46 47 49 49 50 53 54 55 59 63 63 67 66 66 70 72 74 79 87 88 88 88 88 89 90 90 88 87 86 79 81 78 77 77 78 81 83 81 79
31 35 38 38 44 48 50 55 58 61 62 62 61 60 61 60 63 68 70 68 67 72 77 81 83 85 84 84 85 84 85 82 83 80 74 73 73 75 77 81 78 80 84
34 35 37 38 40 41 45 48 52 55 57 59 60 62 62 64 67 66 66 67 68 67 68 69 68 73 72 72 74 75 76 77 77 75 72 74 73 75 78 81 82 86 89
47 42 40 42 43 44 45 46 48 50 52 54 55 56 57 57 59 61 62 61 61 65 70 68 69 72 72 74 73 71 70 71 73 76 77 78 78 79 74 67 69 76 84
59 58 53 51 48 48 48 48 47 47 48 51 54 57 59 59 58 58 58 59 61 61 62 61 60 59 58 60 68 72 76 79 81 80 77 71 65 63 63 70 76 82 76
60 61 63 65 65 62 59 57 55 53 52 53 53 56 57 56 55 56 58 57 56 54 50 50 50 51 49 50 51 53 57 58 61 63 60 60 58 65 71 73 75 73 73
76 76 71 66 66 65 65 64 62 63 63 59 60 61 61 61 60 60 62 64 62 59 58 59 58 56 59 60 61 65 68 71 69 69 67 68 71 75 78 80 82 82 80
70 72 79 78 75 74 73 72 71 72 69 69 68 66 65 66 70 73 71 70 67 66 63 63 64 64 65 69 73 75 77 78 79 82 88 86 85 86 90 88 95 92 94
69 71 74 81 82 82 81 81 80 80 78 79 80 81 80 75 78 77 80 80 78 79 79 79 78 77 77 81 85 86 86 87 87 88 89 90 93 96 95 95 97 97 95
72 71 68 71 74 78 80 82 83 82 82 84 84 84 84 87 85 85 87 85 80 79 79 82 83 79 80 82 85 86 89 91 91 89 89 92 94 95 96 97 96 98 99
70 68 68 70 73 76 77 78 79 80 83 84 86 88 87 88 89 89 89 93 93 91 89 88 88 85 86 85 86 91 93 95 97 97 94 93 96 96 98 98 97 98 97
59 58 60 62 64 67 71 74 74 76 80 85 89 91 91 88 88 91 92 94 97 95 98 96 89 86 89 90 95 94 93 99 97 97 97 97 98 97 97 97 97 94 93
46 45 45 46 47 47 48 51 57 65 73 78 82 84 87 89 89 93 94 94 91 97 96 98 93 95 95 98 99 98 99 99 97 97 97 98 96 98 94 97 96 94 95
45 44 41 38 38 39 40 42 45 49 52 60 64 72 76 79 80 79 82 97 92 85 91 98 98 95 88 93 98 97 97 97 93 97 97 97 97 96 96 96 97 96 95
44 44 43 42 42 42 41 42 43 46 46 49 52 57 61 70 74 74 76 81 80 78 80 86 90 88 86 95 96 97 97 96 97 96 95 96 96 96 96 96 95 90 83
42 42 43 45 45 46 48 50 52 53 54 55 57 59 60 62 63 68 72 74 78 83 87 89 92 90 87 91 93 96 96 96 99 97 94 96 97 93 83 74 67 61 57
46 48 48 49 51 52 54 55 56 58 60 62 66 69 69 70 74 75 76 80 83 87 91 93 96 95 97 96 96 96 94 96 98 96 90 79 71 66 60 57 54 49 44
49 50 50 52 54 55 57 61 63 63 65 69 70 71 73 77 77 81 87 89 91 95 96 96 95 95 95 96 96 96 95 87 77 69 63 59 54 49 45 42 38 34 31
53 55 55 57 59 61 64 67 70 73 75 76 81 85 86 86 87 90 94 96 97 96 97 96 96 96 96 93 85 73 65 59 54 49 44 38 34 32 29 28 28 28 28
57 59 60 63 65 68 71 75 79 83 87 86 87 88 96 95 97 97 97 97 97 96 91 81 71 63 56 51 47 45 42 37 33 31 29 29 28 28 27 26 24 23 23
65 67 68 70 74 78 82 87 89 90 93 95 95 94 92 91 86 77 69 64 59 55 50 48 44 41 37 33 32 30 29 28 26 27 28 26 24 23 22 22 22 22 23
79 78 77 77 78 79 81 81 80 79 78 76 73 70 65 59 54 52 50 47 45 45 43 40 37 35 33 30 28 27 27 27 26 23 22 21 20 19 19 20 22 23 25
67 67 65 64 65 65 65 66 66 64 59 57 55 52 49 48 46 45 41 38 36 33 30 29 27 26 25 24 23 22 20 19 18 18 19 19 19 20 21 22 24 27 30
58 58 57 56 55 54 53 52 52 51 48 45 42 39 38 36 34 32 30 28 26 25 25 25 24 24 23 22 20 19 19 19 19 20 21 21 22 23 24 25 28 32 35
57 55 54 53 52 51 49 46 44 42 41 40 36 32 30 29 28 27 26 25 23 23 22 21 20 20 19 20 20 21 21 22 23 24 24 25 26 27 27 30 33 36 40
49 50 50 50 49 47 44 42 41 40 36 32 32 32 29 25 23 21 21 22 22 21 21 21 22 22 23 23 23 24 25 26 27 27 28 28 29 30 32 34 38 42 46

GFSGL_prec_cthk_081.txt.gz
RH
32 34 35 36 41 49 58 63 68 67 63 67 77 85 85 83 83 81 83 87 86 92 91 91 85 83 88 89 93 93 90 90 90 84 88 88 88 88 89 89 87 82 80
32 36 37 38 40 42 45 49 50 50 51 53 56 61 65 66 69 71 73 74 75 75 75 74 76 80 83 87 90 89 91 92 90 86 87 86 87 86 86 83 80 79 80
39 40 42 42 42 41 45 48 53 56 59 62 65 66 64 66 66 68 69 72 73 71 70 70 71 75 76 80 83 86 86 85 86 85 82 82 80 81 77 75 73 76 78
48 45 45 45 45 44 45 46 51 54 55 54 54 55 55 56 58 60 63 65 66 65 65 64 67 70 71 73 75 76 75 76 76 79 76 71 70 68 70 70 72 75 71
61 60 58 55 52 50 50 51 51 51 52 56 57 57 58 59 59 60 62 62 60 59 57 59 64 66 70 72 76 74 76 76 78 79 79 77 76 74 71 68 64 60 55
71 69 71 70 67 63 62 61 61 61 61 58 56 55 56 57 61 66 72 70 67 63 60 62 61 60 56 58 61 62 66 65 61 61 60 60 56 56 57 59 56 60 59
74 75 76 78 78 73 72 71 71 72 73 72 72 71 70 69 69 68 68 68 68 65 65 66 63 61 60 61 62 64 66 68 71 71 67 66 68 70 71 73 75 80 86
76 79 81 82 81 81 81 80 80 81 81 82 82 83 85 82 85 83 82 83 80 75 72 70 69 68 69 67 67 69 70 74 74 79 79 73 75 77 83 86 90 92 89
77 79 79 78 78 79 83 84 84 85 86 86 88 89 89 90 86 86 88 88 85 83 83 87 87 82 84 84 85 84 88 87 86 86 85 83 83 82 87 91 92 94 98
72 75 76 77 76 76 77 76 80 85 87 88 90 90 90 91 90 90 91 93 96 96 96 93 90 91 88 88 92 93 94 91 92 92 92 93 90 87 89 91 95 95 97
68 69 70 70 72 72 73 75 77 80 80 84 86 88 88 89 90 90 90 94 97 98 98 97 96 94 96 95 92 98 98 98 94 99 92 91 93 96 91 92 92 93 95
59 60 60 60 59 58 58 59 61 64 69 75 81 82 84 84 86 89 91 93 96 98 99 98 97 96 98 96 96 96 95 98 98 98 98 98 94 96 97 96 98 96 95
57 56 52 50 46 42 41 41 41 44 45 47 49 52 57 62 65 67 69 72 72 80 84 87 86 96 97 94 96 96 97 95 97 97 97 96 95 94 97 96 96 96 94
54 52 49 48 46 43 40 38 36 34 34 36 37 39 43 47 49 51 55 60 64 68 76 72 72 72 72 76 84 85 84 82 90 96 95 95 87 89 97 97 95 96 96
51 50 48 45 43 42 41 40 41 42 42 42 44 46 47 49 49 50 51 53 56 59 61 64 66 68 70 71 72 73 74 75 80 83 85 89 91 93 95 95 93 88 82
54 52 51 49 46 41 41 42 44 46 47 47 48 52 53 54 56 58 60 62 64 65 66 69 71 75 78 80 82 84 88 90 92 93 95 94 94 91 84 78 73 68 64
47 47 47 47 47 46 46 46 47 48 50 52 54 55 58 59 62 65 69 70 72 74 75 77 79 81 84 86 88 92 94 96 96 93 86 79 76 72 66 63 58 53 49
46 46 47 48 49 50 50 51 53 54 54 54 56 59 61 64 66 70 73 77 80 84 86 86 87 88 89 91 95 96 92 84 76 70 64 58 53 49 44 39 34 32 31
51 52 53 53 54 54 55 55 56 57 58 59 63 64 66 71 74 78 83 86 86 86 94 95 95 95 90 80 71 65 61 56 52 47 44 40 36 33 30 28 27 27 26
58 59 60 61 61 61 61 62 63 63 64 66 69 72 76 80 81 82 86 88 87 83 74 71 65 59 57 56 52 47 45 41 37 35 34 31 28 27 27 26 25 24 24
65 66 68 68 68 69 69 70 70 69 66 65 64 64 66 64 62 60 57 55 55 54 55 53 49 47 46 45 42 37 35 35 34 33 31 30 28 26 24 24 24 24 23
61 60 61 60 60 59 60 59 60 59 57 53 48 44 43 44 45 47 46 44 43 42 42 41 39 38 36 35 34 33 31 28 27 27 26 26 25 24 23 21 20 20 21
51 53 54 53 54 54 53 52 52 49 47 46 46 45 44 42 40 37 36 35 34 32 29 27 26 26 25 25 24 24 24 24 24 23 22 22 21 20 21 21 21 22 23
52 51 51 52 53 53 53 52 50 48 48 48 47 46 45 42 38 37 35 33 30 29 27 27 27 26 25 24 23 21 20 20 21 21 22 22 22 23 23 24 25 27 30
39 40 41 42 43 42 43 43 44 44 44 44 43 41 39 39 38 36 32 31 29 28 26 24 22 21 21 21 22 22 22 23 23 24 25 25 26 27 28 28 30 34 37
38 39 39 40 39 39 39 38 38 38 39 39 38 37 34 32 31 29 27 25 22 22 22 22 23 24 24 25 25 25 25 26 27 28 28 28 29 30 32 34 36 38 42

GFSGL_prec_cthk_084.txt.gz
RH
31 36 38 40 46 55 65 74 78 77 78 81 83 86 89 89 92 89 88 81 81 87 89 92 95 93 94 92 96 96 93 95 95 90 93 92 92 92 91 90 90 89 87
32 36 37 40 42 46 56 64 69 71 69 62 63 71 83 88 86 80 78 76 78 79 83 85 85 92 92 91 92 89 86 88 90 90 87 89 90 89 87 88 87 84 83
35 38 39 39 40 44 47 50 53 54 55 55 56 59 60 63 67 70 71 74 74 78 80 82 81 80 76 77 78 78 79 81 84 86 85 86 85 87 84 84 80 80 81
41 40 42 42 41 40 43 47 51 54 56 59 60 62 64 66 67 71 73 75 74 74 74 72 72 72 70 72 74 76 78 80 81 83 85 82 78 74 74 70 66 67 65
50 50 50 49 47 47 46 45 45 46 48 51 53 54 55 56 59 62 65 66 67 66 66 66 65 66 66 67 70 69 72 75 78 78 79 78 76 75 73 70 67 65 64
64 65 64 63 60 58 57 57 55 54 54 54 54 54 54 57 62 66 68 67 69 68 66 66 66 68 66 68 69 71 73 74 70 68 68 67 65 63 62 64 62 62 58
77 75 75 75 75 74 72 71 67 68 69 69 71 72 71 74 74 71 70 69 69 68 69 71 73 73 74 73 73 73 70 69 72 75 72 69 67 69 71 68 71 73 73
82 81 81 81 82 83 82 82 80 79 78 80 81 82 83 82 81 84 86 88 88 88 87 87 87 84 81 78 75 74 75 79 77 78 80 80 78 75 80 81 83 86 85
82 82 80 80 81 82 83 84 84 84 85 83 84 86 88 86 86 88 90 91 94 95 95 92 93 92 90 89 93 95 98 94 90 94 96 94 91 89 95 98 98 98 97
82 82 81 80 84 82 80 82 82 81 82 84 85 87 88 88 87 88 89 92 95 97 99 96 94 93 93 98 98 96 97 98 98 97 98 97 98 94 94 98 99 98 99
76 75 71 68 68 73 78 83 85 84 81 80 81 82 84 86 87 89 91 93 95 97 96 94 94 93 90 95 98 95 98 99 97 99 99 99 98 97 98 98 98 97 98
73 65 60 59 58 60 62 65 66 66 65 65 63 64 65 68 69 68 71 76 79 81 82 83 82 82 79 81 76 85 97 96 94 93 93 94 95 96 93 94 92 90 96
64 63 59 58 56 54 52 50 48 48 47 46 47 48 47 46 44 42 42 43 44 46 51 54 56 58 58 56 54 60 65 71 65 64 67 72 72 78 90 90 87 87 88
66 63 59 55 52 48 45 45 44 43 43 43 43 43 42 42 40 41 42 42 43 45 46 48 48 49 49 50 52 55 56 58 61 64 67 69 72 76 77 79 81 86 83
64 64 62 59 56 52 48 47 48 50 49 48 47 46 44 42 43 44 45 46 46 47 49 51 53 55 56 57 59 60 62 65 68 70 73 75 78 81 82 81 82 79 79
63 63 62 59 56 53 51 51 50 47 45 46 46 45 46 47 49 50 51 53 54 56 58 61 63 64 66 68 70 72 73 75 77 80 82 81 79 77 76 75 71 66 63
52 50 50 49 48 48 46 45 45 45 46 47 48 49 50 51 52 53 55 57 59 61 63 67 71 74 75 77 79 82 85 87 86 85 82 77 72 66 64 59 55 53 47
54 52 52 52 52 52 50 50 50 50 51 52 53 53 54 54 55 56 58 61 63 65 67 70 73 76 80 81 79 73 65 63 62 62 60 58 55 52 48 45 43 41 37
56 56 56 57 57 57 58 57 58 58 57 57 59 59 59 59 62 62 64 65 67 69 72 74 72 67 60 56 55 56 54 52 50 50 50 50 48 47 44 43 41 36 33
60 60 62 63 63 63 63 64 64 63 62 62 62 63 63 65 68 68 64 60 55 50 45 42 42 42 42 42 42 42 41 41 41 39 37 36 36 35 33 32 29 29 28
63 64 65 65 64 62 62 62 58 55 55 53 50 49 48 45 43 42 41 39 39 38 36 34 34 33 33 34 33 32 31 32 31 29 27 26 25 26 25 26 25 25 24
51 51 51 50 50 51 51 49 49 47 45 44 44 44 45 42 40 38 38 38 37 37 37 36 35 34 33 33 32 32 31 30 29 28 27 27 26 25 24 22 21 20 21
44 45 45 46 46 45 45 44 45 44 43 42 43 43 43 42 41 40 38 37 37 37 37 36 35 35 34 34 33 31 29 28 27 26 26 25 24 22 21 21 21 22 23
40 41 41 41 41 41 41 40 39 38 38 38 38 38 36 35 34 33 32 31 31 32 32 33 32 31 30 28 28 27 26 24 22 22 22 22 22 23 23 24 25 26 27
32 34 34 34 34 34 35 35 36 37 38 38 36 35 33 31 30 30 29 28 28 28 27 26 26 25 24 22 22 22 22 22 23 23 24 25 25 26 26 28 29 30 32
27 29 30 32 32 32 31 31 30 30 29 28 27 25 23 21 20 19 19 19 20 20 20 21 22 22 23 23 24 25 26 26 26 28 29 29 30 30 31 32 34 35 37

GFSGL_prec_cthk_087.txt.gz
RH
33 38 41 42 45 54 63 76 87 84 86 90 90 94 95 96 96 97 96 90 89 88 83 81 84 87 91 91 95 90 91 93 92 91 90 92 90 92 91 91 90 91 90
34 37 41 43 43 52 59 68 79 82 81 83 88 90 88 92 95 92 94 88 85 80 77 78 84 87 89 90 92 92 93 94 93 91 88 86 85 83 85 86 86 86 88
33 37 39 42 44 47 53 61 67 71 73 68 64 66 70 81 89 89 89 84 82 79 78 79 79 82 82 84 84 85 83 83 85 86 81 80 79 80 78 80 78 80 82
35 38 40 41 42 45 49 52 55 56 57 59 59 60 62 65 67 69 73 71 70 72 73 73 78 79 79 80 81 79 78 80 80 81 78 75 76 74 78 76 76 77 74
44 44 45 46 46 46 47 48 51 54 56 57 58 59 60 61 62 63 64 66 67 68 68 66 64 65 67 70 71 67 69 70 70 70 70 69 67 67 70 71 69 66 63
56 54 53 54 53 52 53 53 52 51 51 52 54 56 58 60 59 59 60 62 62 62 62 64 66 70 71 72 72 72 71 71 70 72 74 75 73 74 74 72 72 69 64
68 63 63 66 67 68 67 67 66 64 61 60 61 61 65 64 64 65 67 69 70 71 72 75 76 76 79 82 83 84 84 85 87 84 81 80 80 81 81 80 81 83 82
86 84 80 79 80 80 82 81 80 81 81 79 78 77 78 77 77 79 82 85 87 86 85 84 86 87 88 89 91 92 93 91 91 93 94 93 91 93 98 95 96 96 94
87 89 86 85 83 82 83 84 84 85 85 86 84 85 85 83 83 85 88 91 94 94 93 93 93 95 93 95 95 97 97 94 93 96 97 96 95 93 94 99 98 96 99
92 90 87 84 81 79 80 81 82 87 88 88 88 88 87 86 85 87 90 94 96 95 92 94 93 94 94 93 93 96 98 98 97 93 95 96 95 95 96 97 97 96 96
91 90 87 85 84 83 82 82 81 81 84 85 88 87 86 86 86 85 85 86 90 91 91 90 87 86 84 87 91 87 93 86 97 83 88 91 74 72 80 82 85 81 78
86 82 80 78 76 74 68 68 69 70 73 74 75 78 76 74 72 67 63 61 61 62 62 61 59 56 55 55 55 55 54 54 56 55 53 53 53 54 54 55 57 61 61
89 87 83 78 73 68 62 58 58 57 56 56 56 55 52 49 46 44 42 41 40 41 42 43 44 43 42 42 44 45 47 49 49 50 51 52 52 53 56 58 60 62 63
86 78 72 65 61 58 55 53 52 51 51 50 49 48 47 46 46 46 46 45 45 44 44 44 44 44 44 45 46 47 49 51 52 53 55 57 59 61 62 63 65 66 66
81 76 74 69 63 61 59 58 56 55 55 55 55 53 51 50 50 48 46 46 45 45 46 47 48 47 47 50 51 53 54 56 58 60 63 64 64 64 63 62 63 62 62
70 70 68 66 65 63 61 59 59 57 55 52 51 51 49 48 46 45 44 45 46 48 49 50 51 51 52 54 55 57 59 61 64 65 65 64 61 58 55 51 53 57 57
67 64 61 58 56 54 52 52 50 49 47 46 46 45 46 45 46 48 50 50 50 51 52 53 54 56 58 60 61 61 58 55 51 49 48 47 47 47 46 44 42 41 43
58 59 59 58 57 56 54 53 52 51 50 50 51 50 52 53 53 54 55 56 56 57 58 59 62 63 61 57 51 46 42 41 41 42 41 40 40 40 39 39 37 37 38
56 56 56 55 54 54 56 55 54 53 54 56 56 56 56 58 59 59 60 59 60 61 59 57 51 45 42 40 39 38 38 36 35 33 31 30 30 30 29 28 28 28 28
60 60 59 59 59 60 59 59 59 60 60 60 58 56 54 53 52 48 45 42 39 36 34 34 35 33 32 31 33 33 32 31 30 30 31 31 31 31 31 32 31 31 30
51 51 51 52 52 52 52 51 51 49 47 43 39 35 33 32 32 32 33 34 35 35 36 36 35 36 35 35 34 34 33 32 32 32 32 32 32 32 31 30 29 28 27
40 41 41 41 42 43 42 41 39 36 34 33 33 34 34 33 32 32 32 31 30 31 31 31 30 30 30 29 28 28 28 28 28 28 29 28 27 27 27 27 26 25 24
34 35 36 36 36 35 35 34 35 35 35 35 35 35 34 33 31 29 28 29 28 28 29 29 28 27 27 26 26 26 25 25 24 24 25 25 24 24 23 23 23 24 24
31 32 32 32 32 32 32 33 33 33 33 32 31 30 29 29 29 29 29 28 28 27 26 24 23 21 20 20 19 20 20 21 21 22 22 23 23 24 24 25 26 26 27
27 28 28 28 29 29 29 30 31 31 31 30 29 28 27 25 24 23 21 20 19 19 19 19 20 20 20 21 22 22 22 23 24 24 25 26 27 27 28 29 30 32 33
24 25 25 25 25 24 24 24 24 24 24 24 23 22 20 19 19 19 20 20 21 21 21 22 22 23 24 24 25 26 26 27 28 29 30 30 31 32 33 34 34 36 38

GFSGL_prec_cthk_090.txt.gz
RH
42 32 37 38 40 46 58 72 86 92 98 94 94 93 91 93 91 94 94 95 93 88 84 86 85 87 83 85 87 82 84 86 91 92 95 92 91 89 87 88 89 88 88
38 33 37 38 40 48 58 70 85 84 88 93 96 89 92 93 94 95 97 96 92 89 87 83 80 73 70 79 85 85 88 92 90 91 89 85 83 83 87 86 85 86 83
40 36 38 39 41 48 55 65 74 81 82 83 87 87 93 89 89 94 99 93 95 86 83 78 73 68 72 75 77 81 84 86 83 84 76 78 79 81 84 84 83 84 84
42 40 38 38 43 48 54 60 65 69 70 68 67 67 67 76 78 83 91 89 81 74 72 70 70 70 74 79 83 80 78 80 79 75 71 66 67 64 70 68 68 69 71
46 44 40 41 46 49 51 54 56 57 58 59 61 63 64 66 67 69 72 71 74 72 69 67 65 64 68 69 70 71 76 75 73 72 73 67 64 66 70 71 72 71 69
53 51 50 49 51 52 52 54 55 55 57 59 61 62 62 60 58 59 60 60 60 62 65 67 66 66 68 69 70 72 77 82 84 83 82 83 83 84 81 82 83 84 82
65 57 56 53 54 56 57 58 58 58 59 60 61 61 59 59 62 63 65 68 71 74 75 77 78 80 81 83 86 88 89 88 87 88 88 88 87 89 92 91 93 96 94
72 66 65 64 63 65 68 71 72 72 73 72 74 71 69 69 70 72 76 79 80 78 80 81 82 84 84 87 89 92 94 95 95 95 93 94 96 98 98 97 98 97 98
85 78 78 75 73 78 84 85 87 87 86 86 87 87 87 87 87 89 91 90 89 89 90 91 92 95 95 96 99 97 99 98 96 93 96 97 98 97 96 98 99 98 97
96 96 94 94 93 93 94 94 94 93 92 91 92 93 94 95 94 95 97 97 96 95 94 93 93 93 96 95 96 96 94 95 91 96 81 99 87 91 81 81 80 68 65
97 98 99 96 95 96 95 95 92 91 90 91 91 90 90 91 92 95 95 95 97 96 97 96 91 88 85 84 81 76 76 71 70 70 65 63 56 50 49 48 48 48 48
97 98 95 95 94 93 92 91 91 91 91 88 86 85 86 88 90 87 83 82 82 82 79 76 68 61 56 52 49 48 46 46 46 47 48 47 47 46 46 46 47 48 49
98 97 95 95 95 92 90 87 85 83 81 76 72 69 66 65 63 60 58 53 49 47 46 45 45 45 45 45 46 45 45 45 45 45 45 45 46 48 49 50 50 51 53
97 95 96 94 94 91 88 83 78 68 65 63 59 55 53 51 51 49 47 45 45 46 47 48 49 49 48 47 46 45 44 44 45 46 47 49 50 51 51 52 53 55 57
95 95 91 88 81 78 70 65 62 61 60 60 58 57 56 56 56 56 55 55 53 52 51 50 50 49 48 46 45 46 46 47 49 50 51 53 53 53 51 49 50 51 49
88 87 87 87 86 87 84 77 73 70 67 65 63 61 60 58 57 55 54 52 51 50 49 48 48 48 48 47 47 48 49 49 48 46 45 47 47 43 42 42 42 42 40
85 85 83 80 77 75 74 73 69 66 65 62 59 57 56 54 54 53 52 51 51 50 50 50 50 51 53 51 50 48 44 39 35 32 33 34 38 41 41 42 42 42 40
70 70 70 68 67 66 68 68 65 62 60 59 58 58 58 57 57 56 55 54 53 53 53 53 54 54 51 46 40 36 33 32 31 32 32 33 36 41 41 40 38 36 34
68 68 67 67 66 66 65 63 60 57 56 56 56 55 55 55 55 54 54 53 53 52 49 44 40 37 35 36 34 31 30 30 31 32 33 31 32 38 38 37 36 33 30
62 62 62 62 61 60 58 58 57 57 56 52 49 48 48 46 40 37 35 33 32 33 32 30 30 29 31 35 32 31 36 31 30 30 29 28 27 35 35 34 33 33 32
45 44 44 45 45 45 46 45 44 42 39 35 33 31 30 31 29 28 28 28 28 29 29 29 28 27 29 28 30 27 26 27 26 25 25 24 24 27 28 32 31 30 28
31 31 30 31 31 31 32 31 31 31 31 30 28 25 25 25 26 26 26 27 27 27 28 29 28 26 25 26 26 27 27 26 25 24 23 22 21 26 22 25 25 26 27
33 34 33 32 31 30 34 34 34 34 32 30 30 27 26 26 26 27 27 26 26 26 26 26 26 26 25 25 24 23 22 20 19 18 18 18 19 23 22 27 28 29 29
31 32 32 28 27 31 32 32 29 27 30 33 32 29 26 25 26 26 26 26 25 25 25 24 23 22 20 19 19 19 19 19 19 19 20 20 21 22 24 30 31 32 33
29 30 29 29 29 30 30 31 31 31 31 31 30 28 25 24 23 22 21 20 21 20 19 19 19 20 20 20 20 20 21 22 22 23 24 24 25 27 28 29 33 36 36
23 24 28 28 28 28 28 29 28 28 26 25 23 21 20 21 21 20 20 20 20 21 21 22 22 22 22 23 23 24 25 26 26 26 27 29 29 31 34 36 38 41 42

GFSGL_prec_cthk_093.txt.gz
RH
67 58 47 39 36 38 43 49 67 83 95 99 98 98 99 99 99 99 99 97 91 77 74 80 89 93 90 85 84 84 85 93 85 82 80 82 84 94 94 92 90 86 86
66 52 48 40 36 39 44 54 74 84 93 96 97 98 99 99 98 96 90 85 86 89 92 93 91 92 89 87 83 81 83 78 82 81 81 82 87 87 83 84 87 81 80
65 54 50 41 37 42 47 57 74 81 88 89 96 96 96 95 93 93 92 92 95 96 96 93 87 81 81 77 72 72 72 72 76 78 78 81 79 78 77 72 74 75 77
63 56 50 44 40 45 52 57 66 76 82 84 91 91 94 95 94 94 94 95 96 96 96 92 87 83 75 70 65 66 68 73 75 75 73 68 73 70 71 68 69 71 73
63 59 52 49 43 47 52 56 61 68 72 73 70 72 72 76 81 84 88 95 99 93 86 77 76 74 73 70 67 65 63 67 71 74 76 77 76 78 81 83 80 76 81
65 59 54 52 47 49 52 56 58 61 62 65 66 66 66 64 66 68 69 72 78 78 72 74 70 65 62 60 61 63 70 78 82 85 87 89 86 86 87 88 89 89 94
70 65 58 55 52 51 54 56 59 61 61 60 62 60 60 60 60 61 62 64 66 63 64 66 70 71 76 81 84 85 85 86 87 88 90 91 91 91 91 93 93 95 95
81 75 65 60 57 58 61 62 62 63 64 65 64 63 62 64 65 66 68 69 70 72 75 78 79 81 83 86 90 92 91 89 88 93 96 98 97 98 98 96 99 98 97
85 80 72 69 62 60 61 64 68 70 75 76 79 80 80 82 82 80 80 80 81 82 83 84 84 85 87 91 92 96 96 99 96 98 94 96 95 99 95 95 94 94 93
91 89 83 79 76 73 72 72 74 79 83 85 87 87 87 89 90 91 92 93 92 90 91 90 90 91 92 93 94 95 93 90 88 89 88 85 78 85 67 70 60 54 48
97 96 96 94 92 91 87 84 83 91 97 97 97 97 96 95 96 98 99 99 99 99 98 99 98 98 95 94 95 98 87 88 77 74 70 65 60 49 44 42 42 42 42
95 96 97 99 94 97 98 97 97 97 95 98 97 97 98 99 99 95 92 93 97 98 98 93 90 87 83 77 73 69 59 53 49 47 45 44 44 43 42 41 40 39 40
97 98 95 95 98 98 98 98 94 98 95 99 98 98 98 97 93 89 85 82 81 79 75 71 68 63 57 50 45 43 44 44 44 45 45 44 43 41 41 42 42 43 43
97 98 96 97 99 98 98 98 97 97 96 96 94 92 90 86 80 73 66 62 59 57 55 52 50 49 48 48 49 49 49 47 47 46 46 46 46 44 43 43 44 45 47
97 96 97 97 97 97 95 94 93 94 90 87 84 79 74 68 66 64 62 60 58 58 58 57 56 55 54 54 52 50 49 49 48 48 47 47 46 45 45 43 42 42 39
96 95 96 97 98 96 96 95 92 88 83 77 74 74 72 70 65 62 65 66 65 63 62 59 58 56 54 53 52 51 48 47 46 45 43 41 41 38 37 37 36 36 34
90 90 95 96 96 95 94 93 93 94 93 92 89 84 80 79 73 69 66 63 62 61 58 57 56 55 55 56 55 53 49 40 35 33 31 31 35 34 34 33 34 35 36
80 78 76 76 76 76 76 77 77 78 78 77 78 76 75 73 70 68 64 64 63 62 62 60 58 57 54 50 44 38 34 31 30 31 29 31 31 34 35 34 35 35 33
75 76 76 76 74 73 74 76 75 75 74 72 71 69 68 66 64 64 61 57 52 49 47 44 41 39 37 36 35 34 30 31 29 34 35 34 34 34 33 33 34 33 31
53 54 55 56 57 58 59 60 60 59 58 53 48 48 50 47 43 39 37 38 39 37 36 36 35 34 34 34 35 35 34 34 34 34 33 33 31 33 33 32 32 31 31
37 37 37 37 37 37 37 37 37 37 36 34 26 26 30 35 35 34 33 32 32 31 31 32 32 32 33 33 34 34 34 34 33 34 34 31 31 32 31 29 28 27 30
32 33 33 33 33 34 34 34 34 34 33 32 32 29 32 33 32 32 32 32 32 32 32 32 32 32 28 33 34 35 34 33 31 25 24 24 28 26 25 25 25 26 28
30 30 30 30 31 31 31 31 30 30 30 29 30 30 31 31 31 32 32 32 32 30 24 28 31 31 26 27 28 29 27 24 21 19 17 17 22 25 25 26 27 28 32
30 30 30 30 29 31 31 30 30 29 30 30 30 30 31 31 31 31 27 22 23 25 20 20 19 19 18 19 20 22 19 17 17 18 19 20 25 27 25 29 30 31 32
26 26 27 28 28 29 29 29 29 28 28 28 28 28 29 29 29 28 28 23 19 20 19 19 19 19 19 19 19 18 19 20 21 22 22 23 24 26 31 32 33 35 35
25 26 26 27 28 27 28 29 28 27 27 27 27 27 27 26 26 26 26 25 20 20 21 23 21 20 20 23 21 22 23 24 24 25 26 27 28 33 34 34 35 38 39

GFSGL_prec_cthk_096.txt.gz
RH
66 71 67 65 62 51 42 38 41 49 67 80 85 96 99 98 98 99 98 98 97 98 97 91 82 78 83 90 89 86 90 89 82 80 82 83 85 86 85 83 83 85 88
69 73 71 67 60 51 41 40 43 61 74 82 91 98 98 99 98 99 99 98 98 97 95 95 88 89 91 91 91 90 91 86 78 77 75 76 81 78 78 79 81 78 78
74 74 75 64 61 51 42 42 49 67 78 79 92 97 98 99 98 99 99 96 94 97 98 92 86 83 86 87 89 91 90 83 76 71 75 75 75 80 82 77 73 71 69
79 78 74 63 62 51 45 46 53 63 77 83 90 96 97 98 98 99 99 98 97 94 93 94 96 97 95 93 87 82 78 72 68 72 71 70 68 69 69 68 67 70 74
84 84 73 67 65 53 47 50 55 63 69 79 87 90 94 96 96 95 95 95 96 96 98 98 97 94 92 84 79 74 67 65 69 67 59 60 65 73 76 81 85 85 91
87 86 75 72 71 62 55 53 59 64 66 66 68 70 78 84 91 90 97 97 98 97 96 98 98 92 76 76 78 76 72 64 62 64 65 72 80 86 85 92 91 92 92
91 88 77 74 74 65 60 57 59 63 63 61 63 65 66 68 70 73 78 87 88 94 94 83 81 72 74 69 65 64 66 66 68 73 82 87 89 86 89 94 96 95 97
94 89 83 82 73 66 64 61 59 61 64 65 64 64 64 64 65 66 66 66 67 67 68 66 67 68 70 72 73 80 82 84 85 86 90 92 93 96 98 96 97 97 97
95 92 88 84 78 75 71 67 65 62 63 64 65 67 68 69 69 69 70 70 71 71 73 74 77 81 85 87 88 88 89 91 92 92 98 96 93 98 95 94 93 93 80
95 96 92 88 83 79 79 77 72 69 70 70 71 74 77 80 81 82 81 81 80 80 81 84 88 90 90 91 91 93 94 94 93 95 98 98 95 97 82 74 67 60 54
95 96 95 89 85 82 81 80 80 75 72 74 75 77 80 84 86 87 88 89 90 90 91 92 94 98 97 99 99 98 98 99 97 99 95 94 82 73 61 51 45 43 42
98 96 99 94 92 91 92 90 92 91 87 81 80 81 87 92 94 96 97 95 95 96 99 98 96 96 99 99 98 97 97 96 90 82 72 60 52 48 47 46 45 43 42
98 97 98 98 98 98 98 97 97 99 97 98 99 95 95 99 98 98 95 98 98 99 98 95 92 94 93 92 88 81 75 69 61 53 49 48 49 49 48 47 46 45 44
98 97 97 98 97 97 98 98 96 99 96 98 98 98 98 96 96 96 93 93 91 90 88 83 78 74 70 66 62 60 57 55 54 54 54 52 51 49 47 44 43 43 43
97 96 96 97 96 97 96 96 97 97 97 97 97 98 94 95 95 93 90 84 80 77 75 68 63 61 61 59 57 55 56 56 55 53 51 49 47 45 43 38 37 38 37
95 95 96 97 96 97 97 96 96 97 96 96 95 95 94 93 92 85 79 74 70 66 63 58 59 57 57 59 60 58 55 52 50 48 46 43 42 39 38 36 32 32 32
92 93 92 93 93 94 95 95 95 97 96 95 96 96 96 95 92 88 84 82 79 78 74 73 70 68 68 65 62 57 52 48 44 39 35 33 32 33 31 30 28 25 25
84 85 85 87 86 87 88 87 88 88 88 89 90 92 92 92 90 91 90 90 88 86 83 81 77 73 68 59 50 42 38 32 30 28 25 23 24 29 29 27 29 27 25
64 68 69 69 71 71 73 74 74 76 78 79 78 79 79 78 78 76 74 71 69 66 62 58 53 50 47 42 40 37 30 26 25 25 24 22 22 25 29 27 28 27 28
36 38 41 43 45 45 44 44 45 44 43 42 43 46 48 44 42 42 41 40 40 41 41 39 37 34 32 32 29 28 29 24 22 22 22 21 21 25 28 29 30 30 30
31 31 32 31 31 32 32 33 33 32 30 26 23 26 30 29 30 28 26 26 26 27 28 27 26 25 25 26 27 26 24 23 22 21 21 22 24 29 28 27 27 25 24
29 28 28 28 27 27 29 29 29 29 30 30 29 27 28 29 28 26 24 23 23 23 24 26 25 24 23 23 24 25 25 22 20 18 18 17 19 23 22 22 24 24 24
29 29 29 29 30 30 29 29 30 31 30 30 29 29 28 27 27 27 25 25 25 22 22 22 22 21 20 20 21 19 18 18 16 16 16 17 17 19 19 20 23 26 27
26 27 30 30 28 27 29 30 30 29 29 29 29 28 28 27 27 26 22 20 20 19 19 18 18 18 18 18 18 16 17 17 17 18 18 18 18 19 21 24 29 30 30
24 24 26 27 27 29 32 32 31 30 30 29 28 28 27 27 26 25 25 21 19 19 19 19 19 18 17 17 17 18 18 19 20 20 21 21 22 25 30 30 30 31 34
23 22 23 24 24 25 26 27 28 27 26 26 27 27 26 27 26 26 26 24 22 20 21 23 20 20 21 20 20 21 22 22 23 24 25 26 27 28 29 30 31 32 35

GFSGL_prec_cthk_099.txt.gz
RH
60 51 55 59 68 72 68 67 50 41 40 46 61 72 78 85 94 99 99 97 97 97 98 98 98 94 93 92 91 83 85 89 84 91 90 89 89 89 88 87 89 91 86
56 63 65 72 74 68 69 58 49 40 45 58 69 77 86 90 98 96 99 95 99 98 98 99 99 96 95 94 89 88 83 85 90 92 92 89 86 84 82 83 86 87 87
70 78 80 79 74 69 68 59 48 45 51 64 73 84 93 97 99 98 98 99 98 97 99 98 98 96 95 94 89 88 89 89 90 91 91 88 84 79 78 80 78 83 82
80 83 85 82 79 71 66 60 49 49 56 64 73 81 95 99 99 99 98 99 99 98 98 98 95 96 96 92 91 91 93 93 92 92 88 82 77 74 74 74 72 74 72
82 83 84 81 81 69 65 63 54 53 60 67 71 82 96 98 98 98 97 98 98 98 99 97 98 98 94 93 93 94 94 90 88 83 80 76 77 75 70 67 68 76 79
81 87 88 86 85 76 74 69 62 56 62 68 70 71 89 97 97 97 98 99 98 98 98 95 95 98 98 98 98 98 95 93 86 78 72 67 66 65 68 70 78 91 89
89 87 92 90 86 81 82 75 67 60 61 68 69 69 71 83 96 98 98 97 98 98 97 97 98 98 99 99 98 92 89 85 83 80 71 66 68 72 77 87 96 94 92
92 92 92 92 92 85 87 79 72 69 68 67 67 67 69 72 72 87 90 96 98 98 97 97 97 98 99 95 80 77 75 73 72 72 73 77 82 88 89 94 96 97 97
94 96 95 93 96 89 89 85 75 74 74 71 70 71 71 69 68 68 69 72 79 85 85 90 94 86 80 80 74 75 75 71 79 86 89 91 91 94 95 98 98 99 94
92 93 95 95 92 94 89 85 84 81 78 76 73 71 72 73 72 69 67 67 67 67 68 67 70 69 69 70 76 80 88 91 91 91 94 94 95 95 99 99 96 98 91
95 95 98 96 96 94 86 89 85 85 84 82 79 77 76 77 79 82 82 80 77 75 75 77 79 83 84 86 90 91 93 93 95 96 96 98 98 98 97 95 89 90 78
98 98 96 96 98 97 95 99 89 90 88 90 90 88 85 85 86 88 90 92 92 91 91 91 90 90 93 95 97 98 99 98 98 98 99 99 98 95 87 72 55 51 47
97 97 97 96 98 98 99 98 95 89 92 94 93 94 94 94 91 91 92 92 97 97 97 98 97 98 98 99 98 99 99 98 97 95 89 83 78 68 57 51 48 47 47
97 96 97 96 98 97 97 98 98 98 98 97 98 98 97 98 98 98 98 99 98 96 98 98 96 98 97 96 93 89 86 80 76 72 67 62 57 53 50 47 47 48 47
96 96 96 97 97 96 97 97 97 98 97 97 97 97 96 97 97 96 96 97 97 97 97 96 95 94 90 85 81 76 69 65 61 58 55 52 49 46 45 43 42 41 39
96 96 96 95 95 96 97 96 96 97 97 96 97 97 96 96 98 96 95 94 96 95 93 87 82 78 75 71 66 64 63 60 56 54 52 50 47 47 44 39 37 37 36
85 87 88 89 92 96 97 96 96 97 96 96 97 96 96 97 96 97 97 94 96 96 95 93 91 88 84 79 75 72 70 68 63 58 55 54 49 47 42 35 33 31 28
61 66 71 76 76 78 79 80 83 87 91 93 95 96 96 96 96 96 96 95 95 95 96 96 95 93 89 80 72 64 61 59 55 52 50 48 45 42 39 36 34 31 29
35 37 38 42 46 51 54 56 58 62 64 66 68 71 74 78 78 77 74 71 70 68 67 64 60 58 56 54 51 49 48 46 43 41 39 37 34 32 31 28 25 24 24
28 28 28 29 29 30 32 34 35 33 33 37 39 39 37 36 37 39 41 42 44 45 45 42 41 40 39 38 37 35 33 31 29 27 25 23 22 21 20 20 20 20 20
26 26 25 25 27 28 28 28 28 27 26 24 27 30 31 30 30 30 30 30 31 32 31 32 32 31 28 25 23 22 21 20 19 18 18 17 16 17 18 18 19 20 20
22 23 24 25 26 26 27 27 28 28 27 27 26 26 26 24 24 22 22 22 22 23 22 21 21 21 20 19 18 17 17 17 16 16 16 16 16 16 16 17 19 20 21
20 20 21 22 24 24 24 25 26 26 26 26 27 27 26 25 25 24 23 21 21 21 20 19 19 19 18 17 17 17 17 16 16 16 16 15 16 16 16 17 18 19 21
19 20 21 22 23 23 24 24 24 25 25 26 26 26 25 25 24 23 22 20 18 17 16 16 16 17 17 16 16 17 17 16 17 17 17 17 17 17 17 18 19 22 23
20 22 23 23 23 25 26 26 26 25 26 26 26 25 25 25 25 24 22 20 19 18 17 17 17 17 17 17 18 18 18 18 19 19 19 19 19 20 21 22 24 25 26
24 24 24 25 25 26 27 28 27 27 27 27 26 26 26 26 26 26 26 24 23 21 20 19 19 19 19 19 20 20 20 21 21 21 22 23 24 25 26 26 27 29 31

GFSGL_prec_cthk_102.txt.gz
RH
57 60 60 61 57 59 53 54 62 72 74 60 44 42 46 57 72 77 78 86 97 98 95 98 98 98 96 95 92 93 91 88 90 79 82 87 88 84 84 84 86 86 84
65 77 72 71 58 58 61 73 74 75 64 50 42 46 54 68 74 81 86 96 99 97 98 99 99 98 99 96 97 95 93 92 91 87 88 86 89 91 90 92 91 93 89
82 78 76 69 67 67 78 78 78 69 54 47 46 51 61 71 81 90 93 98 98 98 98 98 96 98 99 95 98 96 96 97 92 86 95 93 92 91 94 93 92 90 89
82 79 77 74 79 83 85 82 74 68 55 50 50 54 59 70 86 97 98 97 98 98 97 98 99 98 99 97 98 98 97 96 95 95 91 93 92 94 97 94 89 84 81
75 77 77 83 88 88 84 81 72 66 60 55 54 59 65 71 91 98 99 98 98 98 99 97 98 98 99 98 96 96 97 99 95 94 91 89 91 94 90 88 83 80 80
84 84 83 86 87 89 85 80 76 68 66 61 59 65 69 70 86 97 98 98 99 99 99 98 99 99 98 98 98 97 96 98 95 92 92 94 95 91 91 83 80 78 73
87 88 87 88 92 90 88 82 82 76 68 64 63 68 70 69 80 94 96 97 99 98 99 99 98 98 97 98 98 98 96 95 95 98 97 95 92 88 79 77 75 75 76
91 90 91 96 94 93 92 91 88 78 72 70 66 69 73 73 75 78 94 98 98 99 99 99 99 99 98 98 98 99 99 98 98 97 96 95 91 82 76 75 77 80 85
91 94 95 97 93 96 96 95 91 87 72 74 71 70 70 72 73 76 83 90 98 98 97 97 96 96 97 99 98 99 98 98 96 88 87 83 81 78 76 80 87 94 96
92 95 97 99 99 95 97 96 95 91 86 72 75 73 72 74 78 74 71 72 77 85 90 96 98 98 98 98 99 99 99 94 91 81 74 72 78 80 87 90 94 97 98
92 96 96 98 96 98 95 97 97 94 91 85 79 81 78 76 74 78 77 76 71 71 70 71 78 86 87 93 96 91 82 82 77 77 81 95 94 95 97 98 98 98 98
89 92 98 96 96 96 93 96 99 95 90 95 84 87 88 87 82 80 81 81 82 82 82 79 78 77 77 77 78 79 82 84 85 84 88 95 97 98 98 98 98 98 95
94 94 95 97 97 97 98 98 98 98 96 96 98 92 90 96 96 95 93 90 87 88 89 91 92 93 93 91 88 89 91 92 96 98 99 99 98 98 97 93 88 83 79
95 96 97 95 96 97 96 97 98 96 97 97 96 98 96 96 98 98 97 98 96 97 95 95 94 94 98 98 98 98 98 98 98 97 96 93 88 85 82 79 74 71 66
92 95 97 96 96 96 96 97 97 96 96 97 96 99 97 96 97 98 97 97 98 97 96 97 97 97 96 96 95 96 96 94 92 90 88 84 78 73 66 59 57 52 46
77 81 86 90 94 96 96 97 96 96 96 96 96 97 97 97 96 97 96 96 97 97 96 96 96 97 96 95 95 95 93 91 87 82 76 70 64 57 53 50 48 50 51
48 51 56 63 71 81 85 89 92 94 96 96 95 96 97 97 96 96 96 96 96 97 97 96 96 97 96 96 92 89 87 85 80 75 70 67 65 64 63 63 61 58 57
29 32 33 36 39 43 48 58 68 75 80 86 90 92 95 96 96 96 96 96 96 96 96 96 96 96 96 95 92 87 80 76 74 71 68 66 64 60 58 55 53 50 48
20 21 22 23 24 25 25 26 28 35 43 52 55 58 63 69 73 74 75 76 77 76 76 73 70 67 64 64 62 61 59 57 56 54 52 51 49 47 44 41 38 35 32
19 19 19 20 20 21 22 22 22 20 22 24 25 29 33 36 39 41 43 45 46 46 47 47 48 48 47 47 46 45 43 42 41 40 38 35 33 31 29 27 24 21 18
20 19 19 18 19 20 21 21 22 22 22 22 23 25 25 24 24 25 28 30 30 30 31 32 32 32 32 32 31 30 29 27 25 23 23 21 20 18 17 17 17 17 17
20 19 19 20 21 21 21 22 22 21 22 22 23 23 24 24 24 24 24 24 24 25 25 24 24 23 23 22 21 20 19 19 18 17 16 16 16 16 16 15 15 15 15
19 21 21 21 21 21 22 22 23 23 24 24 23 23 23 24 24 23 22 21 21 21 22 22 21 21 20 19 19 18 18 18 17 16 16 16 15 15 15 15 16 16 17
19 22 22 23 23 23 23 24 24 24 25 25 24 24 24 24 24 24 23 21 19 19 19 19 18 18 18 18 18 17 17 17 17 17 16 16 16 16 16 17 17 18 18
22 23 25 26 26 26 26 26 26 26 26 26 26 26 25 25 25 25 25 24 22 20 19 19 19 19 19 19 19 19 19 18 18 18 18 18 18 19 19 20 20 21 22
25 26 27 27 27 28 28 29 29 29 29 28 28 27 27 26 27 27 27 25 25 24 22 21 20 20 20 20 20 20 20 20 20 20 21 21 21 22 23 24 25 25 26

GFSGL_prec_cthk_105.txt.gz
RH
54 50 54 63 74 68 66 61 62 56 51 50 55 61 71 59 45 43 46 54 65 71 74 81 87 86 92 95 97 97 96 93 89 82 77 73 66 61 59 60 61 64 67
64 61 61 77 77 78 76 77 72 64 57 54 64 75 67 52 45 48 56 66 74 76 82 86 95 97 94 95 98 96 97 92 91 88 83 85 77 74 69 70 72 82 86
84 78 69 73 76 83 86 82 67 61 64 74 77 70 55 46 48 57 63 69 74 84 88 92 98 99 96 98 98 98 97 92 94 94 88 89 87 86 87 89 91 93 92
96 95 93 98 93 95 90 78 69 75 78 76 72 64 53 51 54 59 64 73 84 86 90 95 98 98 96 99 98 97 96 96 97 96 91 94 94 95 95 92 94 94 95
87 81 90 90 93 93 87 75 77 81 78 76 73 63 58 53 57 61 64 71 88 96 98 98 98 99 99 98 98 98 97 98 97 97 94 97 94 94 96 95 95 96 96
92 96 98 95 85 82 84 85 86 82 81 78 73 68 62 56 61 65 65 81 96 96 98 98 98 98 99 98 99 99 98 96 95 97 98 96 96 97 95 95 96 96 95
97 97 99 85 83 83 88 93 91 87 79 78 77 72 63 62 65 67 70 80 94 98 98 97 98 98 98 99 98 99 99 98 98 99 98 98 97 97 97 97 96 95 96
87 85 83 86 87 86 89 91 90 92 89 84 83 79 72 65 69 72 74 75 91 96 98 98 98 99 98 98 99 99 99 98 97 97 96 96 97 98 96 96 97 98 95
86 88 87 91 86 87 90 91 90 90 94 89 90 90 78 69 69 70 72 76 84 96 98 99 99 99 99 99 98 99 98 98 99 98 98 98 98 97 98 98 98 96 90
79 84 85 88 90 88 89 91 92 92 93 96 95 93 88 76 74 79 76 80 74 82 94 97 98 98 99 98 98 99 98 98 98 98 98 99 98 98 97 93 93 93 89
74 79 83 87 90 92 93 93 98 96 98 98 97 94 94 79 74 80 80 80 76 73 74 75 89 89 98 98 98 97 98 98 98 98 98 98 98 97 87 81 80 81 80
74 77 79 84 89 92 91 92 96 95 98 97 95 95 94 94 84 85 84 82 82 83 81 84 77 79 87 89 95 93 98 98 98 99 98 98 96 91 84 84 97 97 96
78 79 83 85 86 87 96 97 97 98 96 97 98 94 96 95 95 88 88 90 85 87 83 81 86 83 87 85 81 81 87 86 90 90 84 81 83 89 85 85 89 92 96
79 84 87 88 90 90 89 91 93 95 97 97 97 97 98 98 96 95 94 98 95 95 95 93 90 86 87 89 92 95 95 96 96 95 93 93 96 92 91 94 93 91 88
62 66 71 79 84 87 90 93 95 96 96 96 96 97 97 97 97 97 97 95 97 97 97 98 98 97 96 95 93 93 95 96 96 96 97 97 96 94 92 89 86 82 77
35 37 40 44 49 60 72 83 89 94 95 96 96 97 97 95 96 97 97 97 97 96 97 97 97 97 97 97 97 97 97 97 96 96 94 91 87 85 82 79 75 69 64
22 23 24 26 29 31 35 41 47 60 77 90 95 97 97 96 96 96 97 96 96 97 97 97 97 97 97 97 97 97 96 95 93 90 87 80 76 71 68 69 75 77 78
14 14 15 14 15 16 18 21 25 29 32 39 49 63 79 88 93 96 96 96 96 96 96 96 96 97 96 96 96 96 96 94 90 88 87 86 85 81 77 74 70 68 67
13 13 14 14 14 14 13 13 13 15 18 20 21 22 26 34 40 51 61 68 74 78 79 79 77 75 75 73 71 70 70 68 67 66 65 64 63 62 60 59 57 55 53
15 16 16 16 16 15 16 15 15 14 14 14 15 16 18 20 21 23 26 32 38 43 47 49 51 54 56 56 56 55 54 54 52 52 50 48 45 44 43 41 39 37 34
16 17 18 19 18 18 17 18 19 18 18 18 17 16 16 16 16 19 21 23 24 25 26 29 33 36 38 39 37 36 35 34 32 32 32 31 30 29 28 27 26 25 22
17 18 19 19 20 20 20 20 20 21 20 20 21 20 19 18 17 17 17 18 20 22 22 23 23 23 23 23 24 23 24 24 22 21 21 20 19 18 17 16 16 16 16
19 21 23 23 23 24 24 23 23 22 22 23 23 22 22 21 20 19 18 17 17 17 17 18 19 19 19 19 19 19 19 18 18 18 17 17 17 17 17 16 16 16 16
22 23 26 27 27 27 26 26 26 25 25 24 24 24 24 23 23 22 20 19 18 17 16 16 16 17 17 17 17 17 17 17 18 18 18 18 18 18 18 18 18 18 18
27 27 28 28 28 29 29 29 29 28 28 28 27 27 26 26 25 25 25 24 22 21 20 19 19 19 18 18 18 18 19 19 19 19 19 19 19 19 19 19 20 20 20
31 30 30 31 31 30 29 30 31 31 31 32 32 32 31 30 30 29 28 27 26 25 22 21 21 21 22 21 21 21 21 20 20 21 21 21 21 22 22 22 23 23 23

GFSGL_prec_cthk_108.txt.gz
RH
60 53 54 52 58 53 49 46 50 60 67 65 60 46 50 56 59 61 68 71 56 45 45 51 60 65 69 70 77 88 98 98 97 96 92 92 86 78 68 68 58 53 57
66 65 62 64 56 50 50 58 67 71 70 74 66 61 59 62 64 68 69 63 57 50 52 61 65 69 78 75 89 88 97 96 98 96 93 86 86 84 76 74 66 63 62
78 70 66 67 62 62 67 70 76 76 80 88 77 63 65 65 68 75 69 62 50 54 60 62 69 76 78 80 90 88 94 97 99 97 96 92 88 86 82 80 75 70 67
83 83 80 80 79 75 84 84 87 92 92 91 75 66 69 76 74 71 68 52 52 56 60 63 69 78 79 89 91 97 95 97 99 98 97 95 93 89 91 87 81 77 74
91 84 90 89 88 85 92 97 97 98 93 77 71 77 82 80 76 74 59 52 55 58 58 61 71 82 83 93 91 95 98 98 99 99 97 97 94 92 90 93 90 88 88
94 98 97 98 98 95 97 97 98 89 82 79 84 85 81 83 85 71 64 56 57 58 63 69 94 94 94 96 97 97 98 99 98 98 98 95 95 92 90 98 96 96 96
96 99 94 97 90 99 98 95 92 88 85 85 86 85 87 85 78 74 70 61 62 64 68 76 97 98 98 98 98 99 99 99 98 98 96 96 97 96 94 95 97 97 97
92 97 93 98 98 98 91 91 87 89 91 91 90 89 91 85 85 84 78 70 65 67 72 81 90 97 98 99 98 98 99 98 99 98 98 98 97 98 98 97 98 98 98
89 89 95 99 96 97 99 88 89 92 92 95 94 95 94 90 90 88 86 80 71 72 75 83 89 96 98 98 99 98 99 99 99 99 99 99 99 99 98 99 98 98 98
77 85 88 90 98 92 98 99 93 93 92 92 92 90 92 94 94 91 91 89 81 78 77 78 86 91 97 98 98 98 99 98 99 99 99 99 98 97 97 98 98 98 99
68 70 74 79 86 93 93 95 94 93 89 90 90 97 88 88 96 93 92 95 82 81 79 78 81 80 87 96 97 98 98 98 97 98 98 98 98 98 99 99 98 98 98
73 70 71 73 76 79 83 90 93 93 90 95 98 96 96 96 95 96 94 95 94 88 84 85 81 86 80 84 91 94 97 97 98 97 98 98 98 98 99 99 99 99 99
65 70 74 76 77 82 84 83 83 85 89 92 94 92 97 96 96 96 97 95 97 95 95 89 91 90 88 90 85 83 89 93 97 95 94 97 98 98 98 97 96 95 97
45 48 52 57 66 74 80 84 86 86 84 83 88 92 96 97 96 96 97 97 96 96 96 95 95 94 95 93 92 90 92 91 92 92 90 94 95 95 93 95 92 88 85
27 29 31 33 35 38 41 48 57 69 81 86 87 88 88 91 93 95 96 96 97 97 96 97 96 97 98 98 97 97 97 96 94 96 97 96 96 95 95 95 95 95 93
15 16 16 17 19 24 28 31 35 39 44 49 56 73 88 92 94 95 96 96 97 96 96 97 96 96 97 97 97 97 97 97 97 97 97 97 97 96 96 93 90 86 81
11 11 11 11 11 11 11 12 16 20 23 25 29 35 41 49 67 85 95 96 96 96 96 96 96 96 97 96 96 96 96 96 96 96 96 93 89 86 83 81 81 87 89
12 11 11 12 11 11 11 11 11 10 11 11 12 14 15 18 23 31 38 53 72 89 95 96 96 96 96 96 96 97 96 96 96 96 96 96 96 95 92 88 84 80 78
13 13 15 15 14 13 13 13 12 12 12 12 11 11 11 13 15 15 18 20 25 32 40 48 57 65 71 75 77 78 79 79 79 79 78 77 75 71 69 67 65 64 61
14 15 16 17 17 16 16 16 16 15 14 14 13 12 12 13 12 13 14 15 17 20 23 27 33 36 39 43 47 51 53 54 55 56 57 56 55 54 52 51 50 48 46
16 17 19 20 20 20 20 20 20 20 19 19 18 18 17 15 15 14 14 15 16 17 17 18 19 21 23 26 31 32 32 35 38 40 41 41 40 39 37 37 36 34 32
19 20 20 21 22 23 24 25 24 23 22 22 22 21 20 18 17 16 16 16 16 17 18 18 18 17 17 18 19 20 21 21 22 24 27 28 29 29 29 28 27 26 26
22 23 23 24 26 27 27 27 27 27 27 26 25 25 24 22 21 20 19 17 17 17 16 17 17 17 17 17 16 16 17 18 19 18 18 18 18 18 18 18 18 18 18
26 25 25 26 27 27 28 28 28 28 29 29 29 28 28 27 26 25 24 22 20 20 18 18 18 18 17 17 17 17 17 17 17 17 17 18 18 18 18 18 18 18 19
28 28 28 27 27 28 27 27 27 28 28 29 30 30 31 32 31 31 29 28 26 25 23 22 21 21 20 20 20 20 20 20 20 20 19 19 19 19 19 19 19 19 19
32 31 30 28 27 27 26 27 28 30 31 32 34 34 35 35 35 35 35 34 33 32 29 26 24 23 23 22 22 21 21 21 21 21 21 21 21 21 21 21 22 22 22

GFSGL_prec_cthk_111.txt.gz
RH
68 66 65 68 65 64 62 62 63 57 55 56 60 65 72 68 62 53 50 49 54 61 64 76 73 56 49 48 53 66 66 66 70 85 93 95 97 96 96 91 83 67 50
86 79 75 79 72 67 66 72 74 62 58 61 63 66 67 70 76 54 51 54 62 66 72 70 54 52 51 56 61 62 67 74 77 80 95 96 96 98 97 95 82 72 63
87 79 75 77 76 75 72 77 77 69 68 65 71 75 76 77 79 62 59 64 67 70 71 67 63 55 55 58 63 66 71 78 81 93 95 96 97 98 95 89 86 83 77
94 93 86 84 81 79 78 79 77 70 74 80 89 93 91 89 79 70 63 65 67 76 73 69 55 58 59 65 63 70 80 78 80 94 90 95 97 96 94 92 89 90 85
88 94 93 96 92 92 89 80 72 70 76 85 92 94 91 90 81 70 68 72 80 74 72 60 55 56 57 60 64 69 79 78 87 93 91 94 98 97 92 91 90 88 89
98 92 93 98 98 97 95 94 90 92 97 97 96 94 92 87 73 71 77 83 80 78 72 61 55 55 59 68 78 91 83 86 91 95 95 95 98 97 96 94 93 92 95
93 99 95 95 99 97 97 99 99 98 96 92 98 97 84 75 79 84 87 85 82 80 73 64 56 57 60 67 91 98 98 96 99 95 96 96 99 98 98 97 94 93 95
93 97 98 96 99 97 98 98 96 97 98 97 97 87 85 87 86 85 87 89 87 84 80 74 64 61 64 69 91 96 99 98 99 99 98 98 99 98 98 97 96 97 98
93 98 98 98 98 97 97 98 98 98 98 98 98 96 97 96 96 96 95 91 88 87 85 82 77 66 63 69 89 95 98 98 98 99 99 99 99 99 99 99 98 98 98
77 84 88 92 94 97 98 98 98 99 97 98 94 96 97 97 97 96 95 93 88 88 90 88 82 73 69 74 82 88 94 98 98 98 99 98 99 99 99 98 98 98 98
72 74 72 74 78 78 87 95 94 97 98 97 95 93 96 94 95 96 92 94 89 91 93 90 87 84 75 74 78 85 89 91 97 98 98 99 98 99 98 99 98 99 98
59 62 65 67 70 72 72 74 77 82 86 91 89 96 94 91 97 97 95 97 94 96 97 95 91 94 89 83 83 84 92 92 94 97 98 97 97 98 98 98 98 99 99
33 35 38 42 45 49 55 63 71 73 74 79 81 84 87 87 90 93 94 97 97 97 97 97 94 95 96 91 94 92 89 90 91 92 94 95 97 97 98 99 99 98 98
21 21 23 24 26 28 31 35 38 43 49 57 67 78 82 82 81 83 86 92 96 96 97 97 97 96 97 95 94 96 96 96 93 95 93 93 95 96 98 97 95 97 98
12 12 12 12 13 15 18 21 24 28 30 32 37 42 47 54 69 82 84 87 88 91 94 95 95 96 97 96 97 97 97 97 96 98 97 98 96 95 95 95 94 95 97
9 9 10 10 10 10 11 12 12 12 13 15 17 20 23 29 35 41 47 63 83 87 88 89 91 93 95 96 96 96 96 96 96 97 97 97 97 96 96 97 97 96 96
11 11 11 10 10 10 10 10 10 11 10 10 9 9 10 10 14 17 20 25 32 45 60 82 91 92 94 95 96 96 96 96 96 96 96 96 97 96 96 95 91 90 91
13 13 13 13 12 12 12 13 12 11 11 11 10 10 10 10 11 12 13 16 15 16 20 27 40 58 83 93 95 96 96 96 96 96 96 96 96 96 96 96 96 95 94
16 16 16 16 16 16 16 15 15 14 14 14 13 13 12 12 13 12 12 11 12 13 15 16 16 17 23 29 38 55 68 77 83 86 88 87 86 85 83 81 79 77 75
19 19 18 19 19 19 20 20 19 19 18 18 17 16 15 14 13 13 13 14 14 15 15 15 16 16 16 17 18 20 25 36 44 51 56 58 60 61 61 60 60 59 58
20 20 20 21 22 23 24 24 24 24 24 23 22 21 20 18 17 16 15 15 16 17 16 16 15 16 16 16 15 15 16 17 19 22 27 35 40 42 44 44 46 46 46
22 22 22 23 23 23 25 25 25 26 26 27 26 25 24 23 22 21 20 18 18 17 17 18 18 17 17 16 16 16 16 16 16 17 18 20 22 24 27 29 30 31 32
25 25 24 24 24 24 24 24 25 28 27 26 25 25 25 25 25 24 24 24 22 21 20 19 18 18 18 18 17 17 17 17 17 17 18 18 18 18 18 18 18 18 18
26 27 27 26 25 25 25 24 23 24 24 24 25 25 26 26 27 28 27 27 26 25 24 23 22 21 20 20 19 19 19 19 19 19 18 18 18 18 18 17 17 17 17
30 31 30 29 28 26 25 24 24 25 27 29 30 31 32 31 31 32 32 32 32 31 30 29 28 26 25 24 23 22 22 22 22 21 21 21 20 20 20 20 20 20 20
36 36 35 32 31 29 28 30 32 35 36 36 36 37 37 38 37 37 37 37 37 37 36 35 34 32 30 29 27 25 24 23 23 23 23 23 23 23 23 23 23 23 23

GFSGL_prec_cthk_114.txt.gz
RH
66 50 47 46 47 59 54 56 60 65 69 67 62 60 58 56 53 57 69 74 79 71 62 54 54 57 63 64 77 67 53 50 53 55 62 65 63 87 94 98 98 96 93
79 71 67 63 66 75 76 69 69 72 75 72 70 65 63 59 62 69 74 83 80 76 53 57 57 62 66 73 72 56 51 51 60 60 62 64 68 75 89 97 99 97 98
93 86 78 74 80 75 70 73 79 83 85 82 77 77 77 77 78 77 88 90 84 80 67 59 62 75 71 70 65 60 57 60 61 62 63 66 72 76 90 98 99 98 99
97 93 92 91 90 84 76 77 78 79 85 82 84 81 77 73 75 80 80 82 79 82 70 68 69 68 74 70 66 55 57 60 62 62 67 73 75 83 93 97 98 99 98
99 97 97 96 93 88 86 81 82 83 87 89 88 81 73 75 82 88 92 92 88 84 79 67 66 70 69 70 57 54 59 60 61 62 71 71 76 78 91 94 99 99 98
98 99 96 96 93 91 88 88 87 91 91 91 89 82 83 87 93 97 97 92 91 86 71 66 70 72 73 64 55 53 57 63 65 72 82 82 72 81 90 92 93 94 96
95 98 99 98 98 98 98 97 94 95 94 92 90 90 94 96 96 98 97 94 92 77 72 75 78 79 73 67 60 55 58 61 68 83 96 87 82 88 93 96 93 96 98
98 97 98 98 98 99 97 98 98 98 98 97 96 95 97 99 97 98 99 94 87 84 84 85 85 81 78 75 70 65 66 63 70 91 97 96 93 91 93 96 95 99 99
85 92 95 97 97 98 97 98 98 98 98 97 98 98 97 98 98 96 93 88 87 90 92 92 86 87 84 81 79 74 68 63 65 81 95 96 98 99 98 99 98 99 99
75 77 79 81 87 89 96 98 98 98 98 98 98 98 98 98 97 95 96 96 97 99 98 95 91 89 89 86 84 80 72 67 66 77 91 96 98 99 99 99 99 99 99
50 55 61 65 73 77 78 80 87 89 92 95 97 98 98 97 98 98 98 98 97 95 94 94 92 91 89 91 88 86 81 75 74 73 84 89 95 97 98 98 98 98 99
29 30 32 35 39 48 53 56 62 66 71 76 80 84 87 90 94 95 92 97 97 95 97 94 93 91 91 91 92 93 92 91 84 79 79 86 88 91 98 98 98 99 98
18 18 18 20 21 22 23 24 26 31 36 43 48 52 58 69 77 81 84 86 85 90 94 95 96 98 96 95 93 94 95 95 93 89 83 82 88 92 96 98 98 98 98
12 12 11 10 11 11 13 14 15 17 19 22 26 28 31 36 41 46 56 70 78 80 81 85 88 92 93 95 96 94 96 96 96 94 91 92 91 89 94 97 98 97 98
10 9 10 10 10 14 11 9 10 9 9 11 13 18 18 19 22 27 30 36 44 51 64 74 77 81 87 92 94 95 96 96 97 97 96 96 94 95 93 93 95 97 98
17 17 12 14 14 13 14 18 10 10 9 9 9 8 10 10 11 12 15 19 23 27 35 42 50 63 80 86 88 92 94 95 96 95 95 96 97 96 96 95 95 97 97
14 17 19 18 19 16 15 15 16 16 12 11 11 10 10 10 10 10 11 12 13 16 20 24 29 36 47 55 69 87 90 90 93 93 94 94 96 96 97 96 96 96 96
19 18 24 21 21 23 23 24 23 20 19 16 13 12 12 11 11 12 12 14 16 16 19 21 21 22 23 27 36 48 61 80 91 95 96 96 96 96 96 96 97 96 96
18 19 27 27 27 27 26 26 25 25 25 24 19 15 14 13 13 13 13 17 22 22 22 22 22 22 22 22 22 23 23 22 35 59 85 95 96 97 96 96 96 95 93
26 19 21 26 27 27 27 27 26 26 26 26 25 21 16 23 22 20 20 22 23 23 24 24 24 24 23 23 23 23 24 24 25 26 27 32 45 63 75 78 79 77 76
31 31 25 28 28 27 27 27 27 27 26 26 25 22 17 24 23 23 23 23 23 24 24 25 25 25 25 25 25 24 23 24 22 24 25 26 27 28 32 40 51 57 59
29 31 30 29 28 28 28 28 30 32 34 34 31 29 24 25 24 24 24 24 24 24 24 24 25 25 21 21 21 25 23 21 22 25 25 24 26 26 27 27 28 30 31
34 33 31 30 30 30 30 30 30 29 31 32 31 31 29 26 25 25 26 25 25 26 25 24 26 24 21 21 20 20 20 19 19 19 27 27 27 27 27 27 26 27 26
35 34 33 33 33 33 32 33 34 35 31 33 35 35 37 35 33 32 31 31 30 30 30 30 27 25 24 23 22 22 20 20 20 20 21 28 28 27 27 27 25 20 22
37 37 38 39 38 39 39 40 39 39 39 40 42 43 42 43 43 43 39 36 35 35 34 34 31 31 29 29 28 26 24 24 23 23 23 24 22 22 22 26 28 27 23
39 39 39 40 43 42 42 41 41 43 45 46 48 49 50 50 50 50 49 46 43 41 40 39 38 34 33 35 33 32 30 29 27 26 26 26 28 29 30 25 24 30 28

GFSGL_prec_cthk_117.txt.gz
RH
74 78 64 52 51 40 32 42 48 53 60 61 61 46 41 41 43 50 57 61 67 68 71 78 78 82 78 69 61 66 66 65 63 67 59 52 51 52 59 64 63 76 91
88 81 64 49 40 43 52 64 65 73 78 76 68 67 50 48 51 55 65 67 69 76 80 80 84 81 78 58 55 61 61 64 72 67 54 52 51 56 58 60 63 69 78
97 83 78 61 53 52 57 68 78 78 93 85 77 79 71 57 56 62 67 72 72 76 83 85 88 89 79 62 67 71 69 75 73 68 59 55 58 57 58 63 67 72 77
98 92 86 80 73 66 69 80 89 83 74 74 77 79 77 64 61 65 76 79 82 81 87 93 91 97 85 69 67 68 72 71 67 71 57 51 54 57 61 65 67 73 77
98 99 96 94 89 84 91 84 84 81 79 81 83 84 76 76 78 82 86 90 89 85 89 91 96 90 82 80 71 67 69 69 71 65 55 55 55 56 59 66 76 75 80
98 98 99 98 97 94 93 94 85 84 83 78 87 92 93 96 96 93 89 89 87 88 88 89 87 91 88 76 74 67 69 72 70 61 58 57 59 64 67 80 88 82 76
98 97 97 99 98 99 96 97 95 93 91 90 90 90 93 93 97 98 94 93 95 94 95 94 94 90 89 84 76 74 77 76 69 64 63 62 65 68 77 87 92 84 76
94 95 94 95 98 98 98 98 98 98 99 96 99 100 95 97 99 100 98 99 98 99 97 95 96 94 94 84 82 84 82 78 76 73 71 68 67 67 82 94 98 90 89
77 81 87 92 96 96 97 98 98 98 98 98 99 99 98 99 96 98 95 95 97 98 97 95 98 93 88 86 87 91 87 86 82 79 75 69 68 67 72 92 98 97 89
46 50 60 67 73 80 86 95 97 98 98 96 96 97 97 98 97 98 96 97 98 98 98 96 92 91 93 96 95 95 92 88 84 83 78 75 72 70 69 85 97 99 99
24 24 25 30 40 45 51 54 58 63 67 79 88 93 94 97 98 98 98 98 97 98 98 98 98 99 98 98 99 99 94 92 88 83 82 81 80 78 72 74 91 98 98
18 17 16 17 16 18 25 26 30 32 33 40 45 48 55 63 73 80 87 94 95 96 96 97 98 98 98 98 97 94 95 95 91 88 87 88 86 86 82 77 78 91 98
14 13 13 13 12 12 12 14 17 18 19 21 22 28 29 31 35 41 45 49 58 71 78 84 84 86 89 90 91 94 94 93 93 92 89 91 90 88 90 87 84 85 92
12 14 15 12 14 11 10 9 9 10 12 15 18 18 19 18 18 20 23 26 30 34 43 48 54 62 72 76 79 84 87 94 94 95 92 90 92 93 93 94 93 91 90
19 19 21 21 20 22 20 17 14 12 10 10 10 12 11 12 17 18 18 16 20 23 26 31 35 39 44 48 54 64 74 79 87 92 94 93 93 92 92 94 95 96 98
23 22 20 23 22 22 22 23 23 20 16 12 11 11 12 10 10 9 10 11 12 13 18 20 22 26 31 35 41 46 51 58 70 81 87 90 93 92 92 94 96 96 97
24 25 24 24 24 24 24 24 24 24 23 20 13 12 11 11 10 10 11 18 16 14 19 20 20 21 22 27 31 34 40 45 51 58 67 82 89 91 91 92 95 96 95
21 27 28 29 28 27 26 25 25 24 24 24 23 14 12 20 17 12 11 17 20 21 21 22 22 22 23 24 23 24 30 35 42 47 53 58 66 77 86 91 93 94 94
25 23 29 29 29 28 27 27 26 26 26 27 25 21 13 20 21 21 20 20 21 21 23 25 23 23 23 24 24 24 24 24 24 29 37 47 53 57 65 72 86 94 96
29 26 29 29 29 28 28 29 27 28 30 30 30 23 21 22 22 23 22 21 21 22 21 23 27 23 23 23 25 24 25 26 26 27 28 26 27 34 42 51 61 68 81
30 30 29 29 29 29 28 33 34 34 35 34 34 28 23 24 28 30 30 23 22 22 22 22 24 23 22 22 23 24 25 25 26 27 27 28 28 32 38 37 33 30 32
31 31 31 31 33 32 34 38 37 36 36 35 35 35 29 33 33 33 32 26 25 25 25 25 25 25 24 23 23 23 24 25 26 26 27 30 34 37 35 34 37 34 30
35 37 39 41 41 38 40 39 38 38 37 37 36 36 36 36 36 37 35 31 30 30 29 29 28 28 28 28 27 27 26 25 26 23 27 31 33 34 39 39 36 39 33
43 42 45 44 42 41 41 41 40 39 39 38 38 38 38 39 41 41 42 42 38 36 36 34 33 32 30 27 30 30 23 23 22 24 27 29 32 33 37 37 32 31 30
44 45 46 44 43 43 43 42 41 40 40 40 40 41 42 43 44 46 46 47 48 47 46 44 42 38 37 35 31 29 28 27 27 26 29 32 31 31 28 31 32 32 30
46 48 46 45 45 44 43 41 40 40 40 41 44 46 47 48 50 52 53 54 55 55 54 52 51 47 44 42 40 37 34 32 31 30 31 36 35 35 35 34 32 36 33